<?xml version="1.0" encoding="UTF-8" standalone="no" ?>
<gpx xmlns="http://www.topografix.com/GPX/1/1" xmlns:xsi="http://www.w3.org/2001/XMLSchema-instance" xsi:schemaLocation="http://www.topografix.com/GPX/1/1 http://www.topografix.com/GPX/1/1/gpx.xsd" version="1.1" creator="VisuGPX - https://www.visugpx.com">
  <metadata>
    <name>Marche 12km</name>
    <desc><![CDATA[Marche ASCU 12km Juin 2024]]></desc>
  </metadata>
  <trk>
    <name><![CDATA[Uriménil Marche à pied]]></name>
    <trkseg>
      <trkpt lat="48.10363" lon="6.40092">
        <ele>383.20001220703</ele>
        <time>2024-01-28T07:56:25.000Z</time>
      </trkpt>
      <trkpt lat="48.10362" lon="6.40088">
        <ele>383</ele>
        <time>2024-01-28T07:56:32.000Z</time>
      </trkpt>
      <trkpt lat="48.10362" lon="6.40083">
        <ele>382.60000610352</ele>
        <time>2024-01-28T07:56:34.000Z</time>
      </trkpt>
      <trkpt lat="48.10362" lon="6.40076">
        <ele>382.20001220703</ele>
        <time>2024-01-28T07:56:37.000Z</time>
      </trkpt>
      <trkpt lat="48.10362" lon="6.40069">
        <ele>382</ele>
        <time>2024-01-28T07:56:40.000Z</time>
      </trkpt>
      <trkpt lat="48.10362" lon="6.40054">
        <ele>381.39999389648</ele>
        <time>2024-01-28T07:56:48.000Z</time>
      </trkpt>
      <trkpt lat="48.10362" lon="6.40053">
        <ele>381.20001220703</ele>
        <time>2024-01-28T07:56:49.000Z</time>
      </trkpt>
      <trkpt lat="48.10363" lon="6.40051">
        <ele>380.79998779297</ele>
        <time>2024-01-28T07:56:50.000Z</time>
      </trkpt>
      <trkpt lat="48.10364" lon="6.40044">
        <ele>380</ele>
        <time>2024-01-28T07:56:54.000Z</time>
      </trkpt>
      <trkpt lat="48.10367" lon="6.40033">
        <ele>379.20001220703</ele>
        <time>2024-01-28T07:57:01.000Z</time>
      </trkpt>
      <trkpt lat="48.10367" lon="6.40031">
        <ele>379</ele>
        <time>2024-01-28T07:57:02.000Z</time>
      </trkpt>
      <trkpt lat="48.10368" lon="6.4003">
        <ele>379</ele>
        <time>2024-01-28T07:57:03.000Z</time>
      </trkpt>
      <trkpt lat="48.10369" lon="6.40024">
        <ele>378.39999389648</ele>
        <time>2024-01-28T07:57:06.000Z</time>
      </trkpt>
      <trkpt lat="48.10371" lon="6.40019">
        <ele>378</ele>
        <time>2024-01-28T07:57:09.000Z</time>
      </trkpt>
      <trkpt lat="48.10373" lon="6.40014">
        <ele>377.60000610352</ele>
        <time>2024-01-28T07:57:12.000Z</time>
      </trkpt>
      <trkpt lat="48.10374" lon="6.40012">
        <ele>377.39999389648</ele>
        <time>2024-01-28T07:57:13.000Z</time>
      </trkpt>
      <trkpt lat="48.10377" lon="6.40005">
        <ele>376.60000610352</ele>
        <time>2024-01-28T07:57:17.000Z</time>
      </trkpt>
      <trkpt lat="48.10379" lon="6.39998">
        <ele>375.60000610352</ele>
        <time>2024-01-28T07:57:21.000Z</time>
      </trkpt>
      <trkpt lat="48.10382" lon="6.39994">
        <ele>375.20001220703</ele>
        <time>2024-01-28T07:57:24.000Z</time>
      </trkpt>
      <trkpt lat="48.10383" lon="6.39993">
        <ele>375</ele>
        <time>2024-01-28T07:57:25.000Z</time>
      </trkpt>
      <trkpt lat="48.10386" lon="6.39993">
        <ele>374.79998779297</ele>
        <time>2024-01-28T07:57:27.000Z</time>
      </trkpt>
      <trkpt lat="48.1039" lon="6.39993">
        <ele>374.79998779297</ele>
        <time>2024-01-28T07:57:30.000Z</time>
      </trkpt>
      <trkpt lat="48.10391" lon="6.39993">
        <ele>375</ele>
        <time>2024-01-28T07:57:31.000Z</time>
      </trkpt>
      <trkpt lat="48.10392" lon="6.39993">
        <ele>375</ele>
        <time>2024-01-28T07:57:32.000Z</time>
      </trkpt>
      <trkpt lat="48.10405" lon="6.39992">
        <ele>375.39999389648</ele>
        <time>2024-01-28T07:57:41.000Z</time>
      </trkpt>
      <trkpt lat="48.1041" lon="6.39994">
        <ele>375.39999389648</ele>
        <time>2024-01-28T07:57:44.000Z</time>
      </trkpt>
      <trkpt lat="48.10429" lon="6.39999">
        <ele>375.79998779297</ele>
        <time>2024-01-28T07:57:57.000Z</time>
      </trkpt>
      <trkpt lat="48.10432" lon="6.39999">
        <ele>375.79998779297</ele>
        <time>2024-01-28T07:57:59.000Z</time>
      </trkpt>
      <trkpt lat="48.10437" lon="6.40001">
        <ele>375.79998779297</ele>
        <time>2024-01-28T07:58:03.000Z</time>
      </trkpt>
      <trkpt lat="48.10441" lon="6.40002">
        <ele>375.79998779297</ele>
        <time>2024-01-28T07:58:06.000Z</time>
      </trkpt>
      <trkpt lat="48.10444" lon="6.40003">
        <ele>375.60000610352</ele>
        <time>2024-01-28T07:58:08.000Z</time>
      </trkpt>
      <trkpt lat="48.10448" lon="6.40004">
        <ele>375.60000610352</ele>
        <time>2024-01-28T07:58:11.000Z</time>
      </trkpt>
      <trkpt lat="48.1045" lon="6.40005">
        <ele>375.60000610352</ele>
        <time>2024-01-28T07:58:13.000Z</time>
      </trkpt>
      <trkpt lat="48.10468" lon="6.40011">
        <ele>375.79998779297</ele>
        <time>2024-01-28T07:58:26.000Z</time>
      </trkpt>
      <trkpt lat="48.10483" lon="6.40016">
        <ele>376.20001220703</ele>
        <time>2024-01-28T07:58:38.000Z</time>
      </trkpt>
      <trkpt lat="48.105" lon="6.40021">
        <ele>376.20001220703</ele>
        <time>2024-01-28T07:58:50.000Z</time>
      </trkpt>
      <trkpt lat="48.10511" lon="6.40027">
        <ele>376.39999389648</ele>
        <time>2024-01-28T07:58:59.000Z</time>
      </trkpt>
      <trkpt lat="48.10517" lon="6.40031">
        <ele>376.39999389648</ele>
        <time>2024-01-28T07:59:04.000Z</time>
      </trkpt>
      <trkpt lat="48.10533" lon="6.40041">
        <ele>376.39999389648</ele>
        <time>2024-01-28T07:59:16.000Z</time>
      </trkpt>
      <trkpt lat="48.10535" lon="6.40042">
        <ele>376.39999389648</ele>
        <time>2024-01-28T07:59:17.000Z</time>
      </trkpt>
      <trkpt lat="48.1054" lon="6.40047">
        <ele>376.39999389648</ele>
        <time>2024-01-28T07:59:22.000Z</time>
      </trkpt>
      <trkpt lat="48.10544" lon="6.40051">
        <ele>376.39999389648</ele>
        <time>2024-01-28T07:59:25.000Z</time>
      </trkpt>
      <trkpt lat="48.10549" lon="6.40057">
        <ele>376.20001220703</ele>
        <time>2024-01-28T07:59:30.000Z</time>
      </trkpt>
      <trkpt lat="48.10563" lon="6.4007">
        <ele>376.20001220703</ele>
        <time>2024-01-28T07:59:41.000Z</time>
      </trkpt>
      <trkpt lat="48.10566" lon="6.40074">
        <ele>376</ele>
        <time>2024-01-28T07:59:44.000Z</time>
      </trkpt>
      <trkpt lat="48.10573" lon="6.40083">
        <ele>376</ele>
        <time>2024-01-28T07:59:51.000Z</time>
      </trkpt>
      <trkpt lat="48.10586" lon="6.40098">
        <ele>376</ele>
        <time>2024-01-28T08:00:03.000Z</time>
      </trkpt>
      <trkpt lat="48.10593" lon="6.40105">
        <ele>375.60000610352</ele>
        <time>2024-01-28T08:00:09.000Z</time>
      </trkpt>
      <trkpt lat="48.10595" lon="6.40108">
        <ele>375.79998779297</ele>
        <time>2024-01-28T08:00:12.000Z</time>
      </trkpt>
      <trkpt lat="48.10598" lon="6.4011">
        <ele>375.79998779297</ele>
        <time>2024-01-28T08:00:14.000Z</time>
      </trkpt>
      <trkpt lat="48.10603" lon="6.40117">
        <ele>376.20001220703</ele>
        <time>2024-01-28T08:00:21.000Z</time>
      </trkpt>
      <trkpt lat="48.10605" lon="6.4012">
        <ele>376.39999389648</ele>
        <time>2024-01-28T08:00:23.000Z</time>
      </trkpt>
      <trkpt lat="48.10617" lon="6.40135">
        <ele>376.60000610352</ele>
        <time>2024-01-28T08:00:35.000Z</time>
      </trkpt>
      <trkpt lat="48.1062" lon="6.40139">
        <ele>376.60000610352</ele>
        <time>2024-01-28T08:00:38.000Z</time>
      </trkpt>
      <trkpt lat="48.10629" lon="6.40148">
        <ele>376.79998779297</ele>
        <time>2024-01-28T08:00:46.000Z</time>
      </trkpt>
      <trkpt lat="48.10634" lon="6.40154">
        <ele>376.79998779297</ele>
        <time>2024-01-28T08:00:51.000Z</time>
      </trkpt>
      <trkpt lat="48.10642" lon="6.40161">
        <ele>376.79998779297</ele>
        <time>2024-01-28T08:00:58.000Z</time>
      </trkpt>
      <trkpt lat="48.10649" lon="6.40169">
        <ele>377</ele>
        <time>2024-01-28T08:01:05.000Z</time>
      </trkpt>
      <trkpt lat="48.10654" lon="6.40174">
        <ele>377</ele>
        <time>2024-01-28T08:01:10.000Z</time>
      </trkpt>
      <trkpt lat="48.10666" lon="6.40187">
        <ele>376.79998779297</ele>
        <time>2024-01-28T08:01:21.000Z</time>
      </trkpt>
      <trkpt lat="48.10682" lon="6.40202">
        <ele>376.39999389648</ele>
        <time>2024-01-28T08:01:34.000Z</time>
      </trkpt>
      <trkpt lat="48.10684" lon="6.40204">
        <ele>376.60000610352</ele>
        <time>2024-01-28T08:01:36.000Z</time>
      </trkpt>
      <trkpt lat="48.10697" lon="6.4022">
        <ele>376.60000610352</ele>
        <time>2024-01-28T08:01:49.000Z</time>
      </trkpt>
      <trkpt lat="48.1071" lon="6.40234">
        <ele>376.39999389648</ele>
        <time>2024-01-28T08:02:01.000Z</time>
      </trkpt>
      <trkpt lat="48.10726" lon="6.40251">
        <ele>376.39999389648</ele>
        <time>2024-01-28T08:02:15.000Z</time>
      </trkpt>
      <trkpt lat="48.10729" lon="6.40254">
        <ele>376.39999389648</ele>
        <time>2024-01-28T08:02:18.000Z</time>
      </trkpt>
      <trkpt lat="48.10731" lon="6.40256">
        <ele>376.39999389648</ele>
        <time>2024-01-28T08:02:20.000Z</time>
      </trkpt>
      <trkpt lat="48.10745" lon="6.40266">
        <ele>376.60000610352</ele>
        <time>2024-01-28T08:02:32.000Z</time>
      </trkpt>
      <trkpt lat="48.1076" lon="6.40279">
        <ele>377</ele>
        <time>2024-01-28T08:02:45.000Z</time>
      </trkpt>
      <trkpt lat="48.10761" lon="6.40281">
        <ele>377.20001220703</ele>
        <time>2024-01-28T08:02:46.000Z</time>
      </trkpt>
      <trkpt lat="48.10774" lon="6.403">
        <ele>377.20001220703</ele>
        <time>2024-01-28T08:02:59.000Z</time>
      </trkpt>
      <trkpt lat="48.10783" lon="6.40317">
        <ele>377.39999389648</ele>
        <time>2024-01-28T08:03:10.000Z</time>
      </trkpt>
      <trkpt lat="48.10785" lon="6.40321">
        <ele>377.39999389648</ele>
        <time>2024-01-28T08:03:13.000Z</time>
      </trkpt>
      <trkpt lat="48.10797" lon="6.40332">
        <ele>377.39999389648</ele>
        <time>2024-01-28T08:03:24.000Z</time>
      </trkpt>
      <trkpt lat="48.10804" lon="6.40332">
        <ele>377.60000610352</ele>
        <time>2024-01-28T08:03:30.000Z</time>
      </trkpt>
      <trkpt lat="48.10807" lon="6.40332">
        <ele>377.79998779297</ele>
        <time>2024-01-28T08:03:32.000Z</time>
      </trkpt>
      <trkpt lat="48.10812" lon="6.4033">
        <ele>378</ele>
        <time>2024-01-28T08:03:36.000Z</time>
      </trkpt>
      <trkpt lat="48.10821" lon="6.40326">
        <ele>378.39999389648</ele>
        <time>2024-01-28T08:03:44.000Z</time>
      </trkpt>
      <trkpt lat="48.10822" lon="6.40327">
        <ele>378.39999389648</ele>
        <time>2024-01-28T08:03:45.000Z</time>
      </trkpt>
      <trkpt lat="48.10823" lon="6.40326">
        <ele>378.60000610352</ele>
        <time>2024-01-28T08:03:46.000Z</time>
      </trkpt>
      <trkpt lat="48.10825" lon="6.40326">
        <ele>378.79998779297</ele>
        <time>2024-01-28T08:03:47.000Z</time>
      </trkpt>
      <trkpt lat="48.10829" lon="6.40323">
        <ele>379</ele>
        <time>2024-01-28T08:03:52.000Z</time>
      </trkpt>
      <trkpt lat="48.10834" lon="6.40322">
        <ele>379.60000610352</ele>
        <time>2024-01-28T08:03:56.000Z</time>
      </trkpt>
      <trkpt lat="48.10837" lon="6.40321">
        <ele>379.79998779297</ele>
        <time>2024-01-28T08:03:58.000Z</time>
      </trkpt>
      <trkpt lat="48.10841" lon="6.40322">
        <ele>380.20001220703</ele>
        <time>2024-01-28T08:04:02.000Z</time>
      </trkpt>
      <trkpt lat="48.10842" lon="6.40322">
        <ele>380.20001220703</ele>
        <time>2024-01-28T08:04:03.000Z</time>
      </trkpt>
      <trkpt lat="48.10847" lon="6.40322">
        <ele>380.79998779297</ele>
        <time>2024-01-28T08:04:07.000Z</time>
      </trkpt>
      <trkpt lat="48.10849" lon="6.40323">
        <ele>380.79998779297</ele>
        <time>2024-01-28T08:04:08.000Z</time>
      </trkpt>
      <trkpt lat="48.10857" lon="6.40325">
        <ele>381.60000610352</ele>
        <time>2024-01-28T08:04:15.000Z</time>
      </trkpt>
      <trkpt lat="48.10861" lon="6.40327">
        <ele>382</ele>
        <time>2024-01-28T08:04:18.000Z</time>
      </trkpt>
      <trkpt lat="48.10865" lon="6.40327">
        <ele>382.39999389648</ele>
        <time>2024-01-28T08:04:21.000Z</time>
      </trkpt>
      <trkpt lat="48.10871" lon="6.40329">
        <ele>383</ele>
        <time>2024-01-28T08:04:25.000Z</time>
      </trkpt>
      <trkpt lat="48.10873" lon="6.40329">
        <ele>383</ele>
        <time>2024-01-28T08:04:26.000Z</time>
      </trkpt>
      <trkpt lat="48.10884" lon="6.40334">
        <ele>384.20001220703</ele>
        <time>2024-01-28T08:04:35.000Z</time>
      </trkpt>
      <trkpt lat="48.10886" lon="6.40335">
        <ele>384.20001220703</ele>
        <time>2024-01-28T08:04:36.000Z</time>
      </trkpt>
      <trkpt lat="48.10898" lon="6.40341">
        <ele>385.20001220703</ele>
        <time>2024-01-28T08:04:46.000Z</time>
      </trkpt>
      <trkpt lat="48.10901" lon="6.40342">
        <ele>385.39999389648</ele>
        <time>2024-01-28T08:04:48.000Z</time>
      </trkpt>
      <trkpt lat="48.10905" lon="6.40344">
        <ele>385.60000610352</ele>
        <time>2024-01-28T08:04:51.000Z</time>
      </trkpt>
      <trkpt lat="48.10922" lon="6.40354">
        <ele>386.20001220703</ele>
        <time>2024-01-28T08:05:05.000Z</time>
      </trkpt>
      <trkpt lat="48.10923" lon="6.40354">
        <ele>386.20001220703</ele>
        <time>2024-01-28T08:05:06.000Z</time>
      </trkpt>
      <trkpt lat="48.10933" lon="6.40359">
        <ele>386.60000610352</ele>
        <time>2024-01-28T08:05:14.000Z</time>
      </trkpt>
      <trkpt lat="48.10941" lon="6.40363">
        <ele>387</ele>
        <time>2024-01-28T08:05:20.000Z</time>
      </trkpt>
      <trkpt lat="48.10946" lon="6.40365">
        <ele>387</ele>
        <time>2024-01-28T08:05:24.000Z</time>
      </trkpt>
      <trkpt lat="48.10949" lon="6.40367">
        <ele>387.20001220703</ele>
        <time>2024-01-28T08:05:27.000Z</time>
      </trkpt>
      <trkpt lat="48.10958" lon="6.40372">
        <ele>387.79998779297</ele>
        <time>2024-01-28T08:05:35.000Z</time>
      </trkpt>
      <trkpt lat="48.10971" lon="6.40379">
        <ele>388.20001220703</ele>
        <time>2024-01-28T08:05:45.000Z</time>
      </trkpt>
      <trkpt lat="48.10974" lon="6.40381">
        <ele>388.20001220703</ele>
        <time>2024-01-28T08:05:48.000Z</time>
      </trkpt>
      <trkpt lat="48.10982" lon="6.40384">
        <ele>388.39999389648</ele>
        <time>2024-01-28T08:05:54.000Z</time>
      </trkpt>
      <trkpt lat="48.10989" lon="6.40388">
        <ele>388.39999389648</ele>
        <time>2024-01-28T08:06:00.000Z</time>
      </trkpt>
      <trkpt lat="48.10991" lon="6.40389">
        <ele>388.60000610352</ele>
        <time>2024-01-28T08:06:02.000Z</time>
      </trkpt>
      <trkpt lat="48.10996" lon="6.40391">
        <ele>388.60000610352</ele>
        <time>2024-01-28T08:06:06.000Z</time>
      </trkpt>
      <trkpt lat="48.10998" lon="6.40392">
        <ele>388.60000610352</ele>
        <time>2024-01-28T08:06:07.000Z</time>
      </trkpt>
      <trkpt lat="48.11013" lon="6.40394">
        <ele>388.60000610352</ele>
        <time>2024-01-28T08:06:19.000Z</time>
      </trkpt>
      <trkpt lat="48.11028" lon="6.4039">
        <ele>388.60000610352</ele>
        <time>2024-01-28T08:06:29.000Z</time>
      </trkpt>
      <trkpt lat="48.11031" lon="6.40389">
        <ele>389</ele>
        <time>2024-01-28T08:06:32.000Z</time>
      </trkpt>
      <trkpt lat="48.11034" lon="6.40389">
        <ele>389.20001220703</ele>
        <time>2024-01-28T08:06:34.000Z</time>
      </trkpt>
      <trkpt lat="48.11035" lon="6.40389">
        <ele>389.20001220703</ele>
        <time>2024-01-28T08:06:35.000Z</time>
      </trkpt>
      <trkpt lat="48.11036" lon="6.4039">
        <ele>389.20001220703</ele>
        <time>2024-01-28T08:06:36.000Z</time>
      </trkpt>
      <trkpt lat="48.1104" lon="6.40391">
        <ele>389.60000610352</ele>
        <time>2024-01-28T08:06:39.000Z</time>
      </trkpt>
      <trkpt lat="48.1105" lon="6.40394">
        <ele>390.39999389648</ele>
        <time>2024-01-28T08:06:47.000Z</time>
      </trkpt>
      <trkpt lat="48.11058" lon="6.40397">
        <ele>391</ele>
        <time>2024-01-28T08:06:54.000Z</time>
      </trkpt>
      <trkpt lat="48.11066" lon="6.404">
        <ele>391</ele>
        <time>2024-01-28T08:07:01.000Z</time>
      </trkpt>
      <trkpt lat="48.11072" lon="6.40403">
        <ele>391.39999389648</ele>
        <time>2024-01-28T08:07:07.000Z</time>
      </trkpt>
      <trkpt lat="48.11076" lon="6.40406">
        <ele>391.60000610352</ele>
        <time>2024-01-28T08:07:10.000Z</time>
      </trkpt>
      <trkpt lat="48.11083" lon="6.40408">
        <ele>391.60000610352</ele>
        <time>2024-01-28T08:07:15.000Z</time>
      </trkpt>
      <trkpt lat="48.11095" lon="6.40413">
        <ele>392</ele>
        <time>2024-01-28T08:07:24.000Z</time>
      </trkpt>
      <trkpt lat="48.11104" lon="6.40417">
        <ele>392.39999389648</ele>
        <time>2024-01-28T08:07:31.000Z</time>
      </trkpt>
      <trkpt lat="48.11106" lon="6.40417">
        <ele>392.39999389648</ele>
        <time>2024-01-28T08:07:32.000Z</time>
      </trkpt>
      <trkpt lat="48.11118" lon="6.40418">
        <ele>392.79998779297</ele>
        <time>2024-01-28T08:07:40.000Z</time>
      </trkpt>
      <trkpt lat="48.11126" lon="6.40421">
        <ele>393.20001220703</ele>
        <time>2024-01-28T08:07:47.000Z</time>
      </trkpt>
      <trkpt lat="48.11128" lon="6.40422">
        <ele>393.39999389648</ele>
        <time>2024-01-28T08:07:49.000Z</time>
      </trkpt>
      <trkpt lat="48.11133" lon="6.40424">
        <ele>394</ele>
        <time>2024-01-28T08:07:53.000Z</time>
      </trkpt>
      <trkpt lat="48.11141" lon="6.40428">
        <ele>394.60000610352</ele>
        <time>2024-01-28T08:08:00.000Z</time>
      </trkpt>
      <trkpt lat="48.11149" lon="6.40432">
        <ele>395</ele>
        <time>2024-01-28T08:08:06.000Z</time>
      </trkpt>
      <trkpt lat="48.11158" lon="6.40436">
        <ele>395.60000610352</ele>
        <time>2024-01-28T08:08:14.000Z</time>
      </trkpt>
      <trkpt lat="48.11159" lon="6.40436">
        <ele>395.79998779297</ele>
        <time>2024-01-28T08:08:15.000Z</time>
      </trkpt>
      <trkpt lat="48.11167" lon="6.40439">
        <ele>396.60000610352</ele>
        <time>2024-01-28T08:08:22.000Z</time>
      </trkpt>
      <trkpt lat="48.11168" lon="6.40439">
        <ele>396.60000610352</ele>
        <time>2024-01-28T08:08:23.000Z</time>
      </trkpt>
      <trkpt lat="48.11172" lon="6.4044">
        <ele>397</ele>
        <time>2024-01-28T08:08:26.000Z</time>
      </trkpt>
      <trkpt lat="48.11185" lon="6.40442">
        <ele>397.60000610352</ele>
        <time>2024-01-28T08:08:36.000Z</time>
      </trkpt>
      <trkpt lat="48.11186" lon="6.40442">
        <ele>397.60000610352</ele>
        <time>2024-01-28T08:08:37.000Z</time>
      </trkpt>
      <trkpt lat="48.112" lon="6.40443">
        <ele>398.20001220703</ele>
        <time>2024-01-28T08:08:48.000Z</time>
      </trkpt>
      <trkpt lat="48.11201" lon="6.40443">
        <ele>398.20001220703</ele>
        <time>2024-01-28T08:08:49.000Z</time>
      </trkpt>
      <trkpt lat="48.11207" lon="6.40443">
        <ele>398.39999389648</ele>
        <time>2024-01-28T08:08:53.000Z</time>
      </trkpt>
      <trkpt lat="48.1121" lon="6.40444">
        <ele>398.60000610352</ele>
        <time>2024-01-28T08:08:56.000Z</time>
      </trkpt>
      <trkpt lat="48.1122" lon="6.40444">
        <ele>399.20001220703</ele>
        <time>2024-01-28T08:09:04.000Z</time>
      </trkpt>
      <trkpt lat="48.11228" lon="6.40444">
        <ele>399.79998779297</ele>
        <time>2024-01-28T08:09:10.000Z</time>
      </trkpt>
      <trkpt lat="48.11236" lon="6.40444">
        <ele>400.20001220703</ele>
        <time>2024-01-28T08:09:17.000Z</time>
      </trkpt>
      <trkpt lat="48.11244" lon="6.40442">
        <ele>400.60000610352</ele>
        <time>2024-01-28T08:09:24.000Z</time>
      </trkpt>
      <trkpt lat="48.11245" lon="6.40441">
        <ele>400.79998779297</ele>
        <time>2024-01-28T08:09:25.000Z</time>
      </trkpt>
      <trkpt lat="48.11251" lon="6.4044">
        <ele>401.20001220703</ele>
        <time>2024-01-28T08:09:30.000Z</time>
      </trkpt>
      <trkpt lat="48.11257" lon="6.40437">
        <ele>401.60000610352</ele>
        <time>2024-01-28T08:09:36.000Z</time>
      </trkpt>
      <trkpt lat="48.1126" lon="6.40436">
        <ele>401.79998779297</ele>
        <time>2024-01-28T08:09:39.000Z</time>
      </trkpt>
      <trkpt lat="48.1127" lon="6.40433">
        <ele>403</ele>
        <time>2024-01-28T08:09:48.000Z</time>
      </trkpt>
      <trkpt lat="48.11271" lon="6.40432">
        <ele>403</ele>
        <time>2024-01-28T08:09:49.000Z</time>
      </trkpt>
      <trkpt lat="48.11275" lon="6.40433">
        <ele>403.39999389648</ele>
        <time>2024-01-28T08:09:52.000Z</time>
      </trkpt>
      <trkpt lat="48.11279" lon="6.40433">
        <ele>404</ele>
        <time>2024-01-28T08:09:56.000Z</time>
      </trkpt>
      <trkpt lat="48.11281" lon="6.40432">
        <ele>404.20001220703</ele>
        <time>2024-01-28T08:09:58.000Z</time>
      </trkpt>
      <trkpt lat="48.11285" lon="6.40432">
        <ele>404.60000610352</ele>
        <time>2024-01-28T08:10:01.000Z</time>
      </trkpt>
      <trkpt lat="48.1129" lon="6.40432">
        <ele>405.20001220703</ele>
        <time>2024-01-28T08:10:05.000Z</time>
      </trkpt>
      <trkpt lat="48.11292" lon="6.40432">
        <ele>405.39999389648</ele>
        <time>2024-01-28T08:10:07.000Z</time>
      </trkpt>
      <trkpt lat="48.113" lon="6.40432">
        <ele>406.39999389648</ele>
        <time>2024-01-28T08:10:14.000Z</time>
      </trkpt>
      <trkpt lat="48.11304" lon="6.40432">
        <ele>406.60000610352</ele>
        <time>2024-01-28T08:10:17.000Z</time>
      </trkpt>
      <trkpt lat="48.11308" lon="6.40433">
        <ele>407.39999389648</ele>
        <time>2024-01-28T08:10:22.000Z</time>
      </trkpt>
      <trkpt lat="48.1131" lon="6.40432">
        <ele>407.60000610352</ele>
        <time>2024-01-28T08:10:24.000Z</time>
      </trkpt>
      <trkpt lat="48.11315" lon="6.40431">
        <ele>408.20001220703</ele>
        <time>2024-01-28T08:10:29.000Z</time>
      </trkpt>
      <trkpt lat="48.11317" lon="6.40431">
        <ele>408.39999389648</ele>
        <time>2024-01-28T08:10:31.000Z</time>
      </trkpt>
      <trkpt lat="48.11319" lon="6.40431">
        <ele>408.60000610352</ele>
        <time>2024-01-28T08:10:32.000Z</time>
      </trkpt>
      <trkpt lat="48.11327" lon="6.4043">
        <ele>409.39999389648</ele>
        <time>2024-01-28T08:10:39.000Z</time>
      </trkpt>
      <trkpt lat="48.11329" lon="6.4043">
        <ele>409.60000610352</ele>
        <time>2024-01-28T08:10:41.000Z</time>
      </trkpt>
      <trkpt lat="48.11333" lon="6.4043">
        <ele>409.79998779297</ele>
        <time>2024-01-28T08:10:45.000Z</time>
      </trkpt>
      <trkpt lat="48.11335" lon="6.40429">
        <ele>410</ele>
        <time>2024-01-28T08:10:46.000Z</time>
      </trkpt>
      <trkpt lat="48.11341" lon="6.40429">
        <ele>410.60000610352</ele>
        <time>2024-01-28T08:10:51.000Z</time>
      </trkpt>
      <trkpt lat="48.11346" lon="6.4043">
        <ele>411.20001220703</ele>
        <time>2024-01-28T08:10:55.000Z</time>
      </trkpt>
      <trkpt lat="48.11352" lon="6.40428">
        <ele>411.79998779297</ele>
        <time>2024-01-28T08:10:59.000Z</time>
      </trkpt>
      <trkpt lat="48.11358" lon="6.40428">
        <ele>412.79998779297</ele>
        <time>2024-01-28T08:11:07.000Z</time>
      </trkpt>
      <trkpt lat="48.11364" lon="6.40429">
        <ele>414</ele>
        <time>2024-01-28T08:11:14.000Z</time>
      </trkpt>
      <trkpt lat="48.11366" lon="6.40429">
        <ele>414.20001220703</ele>
        <time>2024-01-28T08:11:16.000Z</time>
      </trkpt>
      <trkpt lat="48.11373" lon="6.40427">
        <ele>415</ele>
        <time>2024-01-28T08:11:21.000Z</time>
      </trkpt>
      <trkpt lat="48.11375" lon="6.40426">
        <ele>415.39999389648</ele>
        <time>2024-01-28T08:11:23.000Z</time>
      </trkpt>
      <trkpt lat="48.11378" lon="6.40426">
        <ele>415.79998779297</ele>
        <time>2024-01-28T08:11:26.000Z</time>
      </trkpt>
      <trkpt lat="48.11382" lon="6.40425">
        <ele>416</ele>
        <time>2024-01-28T08:11:29.000Z</time>
      </trkpt>
      <trkpt lat="48.11383" lon="6.40424">
        <ele>416.20001220703</ele>
        <time>2024-01-28T08:11:30.000Z</time>
      </trkpt>
      <trkpt lat="48.1139" lon="6.40425">
        <ele>417</ele>
        <time>2024-01-28T08:11:36.000Z</time>
      </trkpt>
      <trkpt lat="48.1139" lon="6.40424">
        <ele>417.20001220703</ele>
        <time>2024-01-28T08:11:37.000Z</time>
      </trkpt>
      <trkpt lat="48.11391" lon="6.40424">
        <ele>417.20001220703</ele>
        <time>2024-01-28T08:11:38.000Z</time>
      </trkpt>
      <trkpt lat="48.11393" lon="6.40423">
        <ele>417.60000610352</ele>
        <time>2024-01-28T08:11:40.000Z</time>
      </trkpt>
      <trkpt lat="48.11399" lon="6.40423">
        <ele>418.20001220703</ele>
        <time>2024-01-28T08:11:46.000Z</time>
      </trkpt>
      <trkpt lat="48.114" lon="6.40423">
        <ele>418.39999389648</ele>
        <time>2024-01-28T08:11:47.000Z</time>
      </trkpt>
      <trkpt lat="48.11404" lon="6.40423">
        <ele>418.60000610352</ele>
        <time>2024-01-28T08:11:50.000Z</time>
      </trkpt>
      <trkpt lat="48.11408" lon="6.40424">
        <ele>419.20001220703</ele>
        <time>2024-01-28T08:11:54.000Z</time>
      </trkpt>
      <trkpt lat="48.11411" lon="6.40424">
        <ele>419.39999389648</ele>
        <time>2024-01-28T08:11:56.000Z</time>
      </trkpt>
      <trkpt lat="48.11413" lon="6.40424">
        <ele>419.60000610352</ele>
        <time>2024-01-28T08:11:58.000Z</time>
      </trkpt>
      <trkpt lat="48.11421" lon="6.40423">
        <ele>420.20001220703</ele>
        <time>2024-01-28T08:12:05.000Z</time>
      </trkpt>
      <trkpt lat="48.11422" lon="6.40423">
        <ele>420.20001220703</ele>
        <time>2024-01-28T08:12:06.000Z</time>
      </trkpt>
      <trkpt lat="48.1143" lon="6.40425">
        <ele>420.60000610352</ele>
        <time>2024-01-28T08:12:13.000Z</time>
      </trkpt>
      <trkpt lat="48.11431" lon="6.40425">
        <ele>420.79998779297</ele>
        <time>2024-01-28T08:12:14.000Z</time>
      </trkpt>
      <trkpt lat="48.11434" lon="6.40425">
        <ele>421.20001220703</ele>
        <time>2024-01-28T08:12:17.000Z</time>
      </trkpt>
      <trkpt lat="48.1144" lon="6.40429">
        <ele>421.79998779297</ele>
        <time>2024-01-28T08:12:23.000Z</time>
      </trkpt>
      <trkpt lat="48.11443" lon="6.40431">
        <ele>422.20001220703</ele>
        <time>2024-01-28T08:12:26.000Z</time>
      </trkpt>
      <trkpt lat="48.11445" lon="6.40432">
        <ele>422.39999389648</ele>
        <time>2024-01-28T08:12:28.000Z</time>
      </trkpt>
      <trkpt lat="48.11447" lon="6.40436">
        <ele>423</ele>
        <time>2024-01-28T08:12:31.000Z</time>
      </trkpt>
      <trkpt lat="48.11451" lon="6.4044">
        <ele>423.60000610352</ele>
        <time>2024-01-28T08:12:35.000Z</time>
      </trkpt>
      <trkpt lat="48.11454" lon="6.40444">
        <ele>424</ele>
        <time>2024-01-28T08:12:38.000Z</time>
      </trkpt>
      <trkpt lat="48.11455" lon="6.40445">
        <ele>424</ele>
        <time>2024-01-28T08:12:39.000Z</time>
      </trkpt>
      <trkpt lat="48.11459" lon="6.40453">
        <ele>424.60000610352</ele>
        <time>2024-01-28T08:12:43.000Z</time>
      </trkpt>
      <trkpt lat="48.11461" lon="6.40454">
        <ele>424.79998779297</ele>
        <time>2024-01-28T08:12:44.000Z</time>
      </trkpt>
      <trkpt lat="48.11464" lon="6.40458">
        <ele>425.39999389648</ele>
        <time>2024-01-28T08:12:47.000Z</time>
      </trkpt>
      <trkpt lat="48.11467" lon="6.4046">
        <ele>425.79998779297</ele>
        <time>2024-01-28T08:12:49.000Z</time>
      </trkpt>
      <trkpt lat="48.11472" lon="6.40467">
        <ele>426.20001220703</ele>
        <time>2024-01-28T08:12:54.000Z</time>
      </trkpt>
      <trkpt lat="48.11473" lon="6.40468">
        <ele>426.60000610352</ele>
        <time>2024-01-28T08:12:57.000Z</time>
      </trkpt>
      <trkpt lat="48.11476" lon="6.40461">
        <ele>426.60000610352</ele>
        <time>2024-01-28T08:13:03.000Z</time>
      </trkpt>
      <trkpt lat="48.11478" lon="6.40458">
        <ele>426.79998779297</ele>
        <time>2024-01-28T08:13:06.000Z</time>
      </trkpt>
      <trkpt lat="48.1148" lon="6.40458">
        <ele>427</ele>
        <time>2024-01-28T08:13:09.000Z</time>
      </trkpt>
      <trkpt lat="48.11481" lon="6.40458">
        <ele>427.20001220703</ele>
        <time>2024-01-28T08:13:13.000Z</time>
      </trkpt>
      <trkpt lat="48.11487" lon="6.40461">
        <ele>427.79998779297</ele>
        <time>2024-01-28T08:13:19.000Z</time>
      </trkpt>
      <trkpt lat="48.11496" lon="6.40464">
        <ele>428.60000610352</ele>
        <time>2024-01-28T08:13:27.000Z</time>
      </trkpt>
      <trkpt lat="48.11498" lon="6.40467">
        <ele>428.79998779297</ele>
        <time>2024-01-28T08:13:30.000Z</time>
      </trkpt>
      <trkpt lat="48.11503" lon="6.40468">
        <ele>429.39999389648</ele>
        <time>2024-01-28T08:13:34.000Z</time>
      </trkpt>
      <trkpt lat="48.11506" lon="6.40466">
        <ele>429.60000610352</ele>
        <time>2024-01-28T08:13:36.000Z</time>
      </trkpt>
      <trkpt lat="48.1151" lon="6.40465">
        <ele>429.79998779297</ele>
        <time>2024-01-28T08:13:40.000Z</time>
      </trkpt>
      <trkpt lat="48.11514" lon="6.40464">
        <ele>430</ele>
        <time>2024-01-28T08:13:44.000Z</time>
      </trkpt>
      <trkpt lat="48.11516" lon="6.40459">
        <ele>429.79998779297</ele>
        <time>2024-01-28T08:13:47.000Z</time>
      </trkpt>
      <trkpt lat="48.11517" lon="6.40458">
        <ele>429.79998779297</ele>
        <time>2024-01-28T08:13:48.000Z</time>
      </trkpt>
      <trkpt lat="48.11521" lon="6.40454">
        <ele>429.20001220703</ele>
        <time>2024-01-28T08:13:53.000Z</time>
      </trkpt>
      <trkpt lat="48.11524" lon="6.40455">
        <ele>429.20001220703</ele>
        <time>2024-01-28T08:13:55.000Z</time>
      </trkpt>
      <trkpt lat="48.11529" lon="6.40457">
        <ele>429.60000610352</ele>
        <time>2024-01-28T08:13:59.000Z</time>
      </trkpt>
      <trkpt lat="48.11533" lon="6.40459">
        <ele>430</ele>
        <time>2024-01-28T08:14:04.000Z</time>
      </trkpt>
      <trkpt lat="48.11536" lon="6.40458">
        <ele>430.20001220703</ele>
        <time>2024-01-28T08:14:06.000Z</time>
      </trkpt>
      <trkpt lat="48.11542" lon="6.40463">
        <ele>431</ele>
        <time>2024-01-28T08:14:11.000Z</time>
      </trkpt>
      <trkpt lat="48.11545" lon="6.40467">
        <ele>431.20001220703</ele>
        <time>2024-01-28T08:14:13.000Z</time>
      </trkpt>
      <trkpt lat="48.11547" lon="6.40467">
        <ele>431.20001220703</ele>
        <time>2024-01-28T08:14:14.000Z</time>
      </trkpt>
      <trkpt lat="48.11551" lon="6.40472">
        <ele>432</ele>
        <time>2024-01-28T08:14:19.000Z</time>
      </trkpt>
      <trkpt lat="48.11556" lon="6.40478">
        <ele>433.39999389648</ele>
        <time>2024-01-28T08:14:25.000Z</time>
      </trkpt>
      <trkpt lat="48.1156" lon="6.40481">
        <ele>434.39999389648</ele>
        <time>2024-01-28T08:14:30.000Z</time>
      </trkpt>
      <trkpt lat="48.11562" lon="6.40484">
        <ele>434.79998779297</ele>
        <time>2024-01-28T08:14:33.000Z</time>
      </trkpt>
      <trkpt lat="48.11564" lon="6.40484">
        <ele>435</ele>
        <time>2024-01-28T08:14:37.000Z</time>
      </trkpt>
      <trkpt lat="48.11566" lon="6.40483">
        <ele>435.39999389648</ele>
        <time>2024-01-28T08:14:39.000Z</time>
      </trkpt>
      <trkpt lat="48.11571" lon="6.40483">
        <ele>436.39999389648</ele>
        <time>2024-01-28T08:14:46.000Z</time>
      </trkpt>
      <trkpt lat="48.11571" lon="6.40484">
        <ele>436.60000610352</ele>
        <time>2024-01-28T08:14:47.000Z</time>
      </trkpt>
      <trkpt lat="48.11572" lon="6.40485">
        <ele>436.60000610352</ele>
        <time>2024-01-28T08:14:48.000Z</time>
      </trkpt>
      <trkpt lat="48.11576" lon="6.40484">
        <ele>437.39999389648</ele>
        <time>2024-01-28T08:14:54.000Z</time>
      </trkpt>
      <trkpt lat="48.11576" lon="6.40482">
        <ele>437.39999389648</ele>
        <time>2024-01-28T08:14:55.000Z</time>
      </trkpt>
      <trkpt lat="48.11578" lon="6.40478">
        <ele>437.60000610352</ele>
        <time>2024-01-28T08:14:58.000Z</time>
      </trkpt>
      <trkpt lat="48.11582" lon="6.40475">
        <ele>437.79998779297</ele>
        <time>2024-01-28T08:15:01.000Z</time>
      </trkpt>
      <trkpt lat="48.11583" lon="6.40473">
        <ele>437.79998779297</ele>
        <time>2024-01-28T08:15:03.000Z</time>
      </trkpt>
      <trkpt lat="48.11584" lon="6.40466">
        <ele>437.20001220703</ele>
        <time>2024-01-28T08:15:07.000Z</time>
      </trkpt>
      <trkpt lat="48.11585" lon="6.40465">
        <ele>437.20001220703</ele>
        <time>2024-01-28T08:15:09.000Z</time>
      </trkpt>
      <trkpt lat="48.11587" lon="6.40461">
        <ele>437.20001220703</ele>
        <time>2024-01-28T08:15:13.000Z</time>
      </trkpt>
      <trkpt lat="48.11589" lon="6.40456">
        <ele>437.60000610352</ele>
        <time>2024-01-28T08:15:17.000Z</time>
      </trkpt>
      <trkpt lat="48.11589" lon="6.40455">
        <ele>437.60000610352</ele>
        <time>2024-01-28T08:15:18.000Z</time>
      </trkpt>
      <trkpt lat="48.1159" lon="6.40452">
        <ele>437.60000610352</ele>
        <time>2024-01-28T08:15:20.000Z</time>
      </trkpt>
      <trkpt lat="48.11592" lon="6.40444">
        <ele>437.39999389648</ele>
        <time>2024-01-28T08:15:26.000Z</time>
      </trkpt>
      <trkpt lat="48.11592" lon="6.40442">
        <ele>437.39999389648</ele>
        <time>2024-01-28T08:15:27.000Z</time>
      </trkpt>
      <trkpt lat="48.11592" lon="6.40435">
        <ele>437.60000610352</ele>
        <time>2024-01-28T08:15:31.000Z</time>
      </trkpt>
      <trkpt lat="48.11594" lon="6.40431">
        <ele>438</ele>
        <time>2024-01-28T08:15:35.000Z</time>
      </trkpt>
      <trkpt lat="48.11594" lon="6.40428">
        <ele>438.39999389648</ele>
        <time>2024-01-28T08:15:39.000Z</time>
      </trkpt>
      <trkpt lat="48.11593" lon="6.40426">
        <ele>438.39999389648</ele>
        <time>2024-01-28T08:15:40.000Z</time>
      </trkpt>
      <trkpt lat="48.11585" lon="6.40417">
        <ele>438.20001220703</ele>
        <time>2024-01-28T08:15:47.000Z</time>
      </trkpt>
      <trkpt lat="48.11584" lon="6.40414">
        <ele>438.20001220703</ele>
        <time>2024-01-28T08:15:50.000Z</time>
      </trkpt>
      <trkpt lat="48.11583" lon="6.40408">
        <ele>438.20001220703</ele>
        <time>2024-01-28T08:15:53.000Z</time>
      </trkpt>
      <trkpt lat="48.11578" lon="6.40396">
        <ele>438.39999389648</ele>
        <time>2024-01-28T08:16:00.000Z</time>
      </trkpt>
      <trkpt lat="48.11576" lon="6.40393">
        <ele>438.60000610352</ele>
        <time>2024-01-28T08:16:03.000Z</time>
      </trkpt>
      <trkpt lat="48.11574" lon="6.40389">
        <ele>438.60000610352</ele>
        <time>2024-01-28T08:16:05.000Z</time>
      </trkpt>
      <trkpt lat="48.11573" lon="6.40388">
        <ele>438.79998779297</ele>
        <time>2024-01-28T08:16:06.000Z</time>
      </trkpt>
      <trkpt lat="48.11573" lon="6.40386">
        <ele>438.79998779297</ele>
        <time>2024-01-28T08:16:07.000Z</time>
      </trkpt>
      <trkpt lat="48.11573" lon="6.40384">
        <ele>438.79998779297</ele>
        <time>2024-01-28T08:16:08.000Z</time>
      </trkpt>
      <trkpt lat="48.11572" lon="6.40381">
        <ele>439</ele>
        <time>2024-01-28T08:16:10.000Z</time>
      </trkpt>
      <trkpt lat="48.11571" lon="6.40374">
        <ele>439.20001220703</ele>
        <time>2024-01-28T08:16:13.000Z</time>
      </trkpt>
      <trkpt lat="48.1157" lon="6.40371">
        <ele>439.39999389648</ele>
        <time>2024-01-28T08:16:15.000Z</time>
      </trkpt>
      <trkpt lat="48.11567" lon="6.40366">
        <ele>439.79998779297</ele>
        <time>2024-01-28T08:16:19.000Z</time>
      </trkpt>
      <trkpt lat="48.11566" lon="6.40355">
        <ele>440.60000610352</ele>
        <time>2024-01-28T08:16:25.000Z</time>
      </trkpt>
      <trkpt lat="48.11565" lon="6.40353">
        <ele>440.60000610352</ele>
        <time>2024-01-28T08:16:26.000Z</time>
      </trkpt>
      <trkpt lat="48.11564" lon="6.40351">
        <ele>440.79998779297</ele>
        <time>2024-01-28T08:16:27.000Z</time>
      </trkpt>
      <trkpt lat="48.11563" lon="6.40349">
        <ele>441</ele>
        <time>2024-01-28T08:16:28.000Z</time>
      </trkpt>
      <trkpt lat="48.11562" lon="6.40344">
        <ele>441.39999389648</ele>
        <time>2024-01-28T08:16:31.000Z</time>
      </trkpt>
      <trkpt lat="48.11559" lon="6.4033">
        <ele>442</ele>
        <time>2024-01-28T08:16:38.000Z</time>
      </trkpt>
      <trkpt lat="48.11558" lon="6.40328">
        <ele>442</ele>
        <time>2024-01-28T08:16:39.000Z</time>
      </trkpt>
      <trkpt lat="48.11555" lon="6.40323">
        <ele>442.39999389648</ele>
        <time>2024-01-28T08:16:44.000Z</time>
      </trkpt>
      <trkpt lat="48.11554" lon="6.40322">
        <ele>442.39999389648</ele>
        <time>2024-01-28T08:16:45.000Z</time>
      </trkpt>
      <trkpt lat="48.11554" lon="6.4032">
        <ele>442.39999389648</ele>
        <time>2024-01-28T08:16:46.000Z</time>
      </trkpt>
      <trkpt lat="48.11547" lon="6.40309">
        <ele>442.39999389648</ele>
        <time>2024-01-28T08:16:53.000Z</time>
      </trkpt>
      <trkpt lat="48.1154" lon="6.40306">
        <ele>441.20001220703</ele>
        <time>2024-01-28T08:17:01.000Z</time>
      </trkpt>
      <trkpt lat="48.11539" lon="6.40305">
        <ele>441</ele>
        <time>2024-01-28T08:17:02.000Z</time>
      </trkpt>
      <trkpt lat="48.11538" lon="6.40305">
        <ele>440.79998779297</ele>
        <time>2024-01-28T08:17:03.000Z</time>
      </trkpt>
      <trkpt lat="48.11533" lon="6.40305">
        <ele>440.20001220703</ele>
        <time>2024-01-28T08:17:07.000Z</time>
      </trkpt>
      <trkpt lat="48.11531" lon="6.40305">
        <ele>440</ele>
        <time>2024-01-28T08:17:08.000Z</time>
      </trkpt>
      <trkpt lat="48.1153" lon="6.40304">
        <ele>439.79998779297</ele>
        <time>2024-01-28T08:17:09.000Z</time>
      </trkpt>
      <trkpt lat="48.11525" lon="6.40301">
        <ele>439.20001220703</ele>
        <time>2024-01-28T08:17:12.000Z</time>
      </trkpt>
      <trkpt lat="48.11521" lon="6.40299">
        <ele>438.79998779297</ele>
        <time>2024-01-28T08:17:15.000Z</time>
      </trkpt>
      <trkpt lat="48.11519" lon="6.40298">
        <ele>438.79998779297</ele>
        <time>2024-01-28T08:17:16.000Z</time>
      </trkpt>
      <trkpt lat="48.11515" lon="6.40295">
        <ele>438.39999389648</ele>
        <time>2024-01-28T08:17:20.000Z</time>
      </trkpt>
      <trkpt lat="48.11512" lon="6.40293">
        <ele>438</ele>
        <time>2024-01-28T08:17:23.000Z</time>
      </trkpt>
      <trkpt lat="48.1151" lon="6.40292">
        <ele>437.60000610352</ele>
        <time>2024-01-28T08:17:25.000Z</time>
      </trkpt>
      <trkpt lat="48.11504" lon="6.40291">
        <ele>437</ele>
        <time>2024-01-28T08:17:29.000Z</time>
      </trkpt>
      <trkpt lat="48.11502" lon="6.4029">
        <ele>436.79998779297</ele>
        <time>2024-01-28T08:17:31.000Z</time>
      </trkpt>
      <trkpt lat="48.11501" lon="6.4029">
        <ele>436.60000610352</ele>
        <time>2024-01-28T08:17:32.000Z</time>
      </trkpt>
      <trkpt lat="48.115" lon="6.4029">
        <ele>436.39999389648</ele>
        <time>2024-01-28T08:17:33.000Z</time>
      </trkpt>
      <trkpt lat="48.115" lon="6.40287">
        <ele>436</ele>
        <time>2024-01-28T08:17:36.000Z</time>
      </trkpt>
      <trkpt lat="48.11502" lon="6.40285">
        <ele>436</ele>
        <time>2024-01-28T08:17:37.000Z</time>
      </trkpt>
      <trkpt lat="48.11503" lon="6.40284">
        <ele>436</ele>
        <time>2024-01-28T08:17:38.000Z</time>
      </trkpt>
      <trkpt lat="48.11505" lon="6.40284">
        <ele>436.20001220703</ele>
        <time>2024-01-28T08:17:40.000Z</time>
      </trkpt>
      <trkpt lat="48.11509" lon="6.40284">
        <ele>436.79998779297</ele>
        <time>2024-01-28T08:17:44.000Z</time>
      </trkpt>
      <trkpt lat="48.11515" lon="6.40286">
        <ele>437.39999389648</ele>
        <time>2024-01-28T08:17:50.000Z</time>
      </trkpt>
      <trkpt lat="48.11516" lon="6.40286">
        <ele>437.60000610352</ele>
        <time>2024-01-28T08:17:51.000Z</time>
      </trkpt>
      <trkpt lat="48.11524" lon="6.40288">
        <ele>438.60000610352</ele>
        <time>2024-01-28T08:17:58.000Z</time>
      </trkpt>
      <trkpt lat="48.11528" lon="6.40288">
        <ele>439</ele>
        <time>2024-01-28T08:18:01.000Z</time>
      </trkpt>
      <trkpt lat="48.11532" lon="6.40286">
        <ele>439.60000610352</ele>
        <time>2024-01-28T08:18:05.000Z</time>
      </trkpt>
      <trkpt lat="48.11533" lon="6.40286">
        <ele>440</ele>
        <time>2024-01-28T08:18:06.000Z</time>
      </trkpt>
      <trkpt lat="48.11534" lon="6.40285">
        <ele>440.60000610352</ele>
        <time>2024-01-28T08:18:08.000Z</time>
      </trkpt>
      <trkpt lat="48.11534" lon="6.40285">
        <ele>441</ele>
        <time>2024-01-28T08:18:09.000Z</time>
      </trkpt>
      <trkpt lat="48.11537" lon="6.40281">
        <ele>442</ele>
        <time>2024-01-28T08:18:14.000Z</time>
      </trkpt>
      <trkpt lat="48.11537" lon="6.40278">
        <ele>442.60000610352</ele>
        <time>2024-01-28T08:18:16.000Z</time>
      </trkpt>
      <trkpt lat="48.11539" lon="6.40273">
        <ele>443</ele>
        <time>2024-01-28T08:18:19.000Z</time>
      </trkpt>
      <trkpt lat="48.11542" lon="6.4027">
        <ele>443.60000610352</ele>
        <time>2024-01-28T08:18:21.000Z</time>
      </trkpt>
      <trkpt lat="48.11542" lon="6.40269">
        <ele>444</ele>
        <time>2024-01-28T08:18:22.000Z</time>
      </trkpt>
      <trkpt lat="48.11543" lon="6.40268">
        <ele>444.20001220703</ele>
        <time>2024-01-28T08:18:23.000Z</time>
      </trkpt>
      <trkpt lat="48.11546" lon="6.40263">
        <ele>445.20001220703</ele>
        <time>2024-01-28T08:18:27.000Z</time>
      </trkpt>
      <trkpt lat="48.11548" lon="6.40263">
        <ele>445.39999389648</ele>
        <time>2024-01-28T08:18:28.000Z</time>
      </trkpt>
      <trkpt lat="48.11552" lon="6.40265">
        <ele>445.79998779297</ele>
        <time>2024-01-28T08:18:31.000Z</time>
      </trkpt>
      <trkpt lat="48.11553" lon="6.40267">
        <ele>445.79998779297</ele>
        <time>2024-01-28T08:18:32.000Z</time>
      </trkpt>
      <trkpt lat="48.11555" lon="6.4027">
        <ele>446</ele>
        <time>2024-01-28T08:18:34.000Z</time>
      </trkpt>
      <trkpt lat="48.11556" lon="6.40271">
        <ele>446.20001220703</ele>
        <time>2024-01-28T08:18:35.000Z</time>
      </trkpt>
      <trkpt lat="48.11559" lon="6.40275">
        <ele>446.39999389648</ele>
        <time>2024-01-28T08:18:38.000Z</time>
      </trkpt>
      <trkpt lat="48.11562" lon="6.40279">
        <ele>446.60000610352</ele>
        <time>2024-01-28T08:18:41.000Z</time>
      </trkpt>
      <trkpt lat="48.11565" lon="6.40282">
        <ele>446.79998779297</ele>
        <time>2024-01-28T08:18:44.000Z</time>
      </trkpt>
      <trkpt lat="48.11569" lon="6.40288">
        <ele>447.20001220703</ele>
        <time>2024-01-28T08:18:48.000Z</time>
      </trkpt>
      <trkpt lat="48.11572" lon="6.40293">
        <ele>447.20001220703</ele>
        <time>2024-01-28T08:18:52.000Z</time>
      </trkpt>
      <trkpt lat="48.11574" lon="6.40299">
        <ele>447.39999389648</ele>
        <time>2024-01-28T08:18:56.000Z</time>
      </trkpt>
      <trkpt lat="48.11578" lon="6.40303">
        <ele>447.60000610352</ele>
        <time>2024-01-28T08:19:00.000Z</time>
      </trkpt>
      <trkpt lat="48.1158" lon="6.40305">
        <ele>447.79998779297</ele>
        <time>2024-01-28T08:19:02.000Z</time>
      </trkpt>
      <trkpt lat="48.11587" lon="6.4031">
        <ele>448</ele>
        <time>2024-01-28T08:19:09.000Z</time>
      </trkpt>
      <trkpt lat="48.11587" lon="6.40308">
        <ele>448.20001220703</ele>
        <time>2024-01-28T08:19:11.000Z</time>
      </trkpt>
      <trkpt lat="48.11585" lon="6.40307">
        <ele>448.60000610352</ele>
        <time>2024-01-28T08:19:13.000Z</time>
      </trkpt>
      <trkpt lat="48.11582" lon="6.403">
        <ele>448.79998779297</ele>
        <time>2024-01-28T08:19:18.000Z</time>
      </trkpt>
      <trkpt lat="48.11582" lon="6.40292">
        <ele>449</ele>
        <time>2024-01-28T08:19:22.000Z</time>
      </trkpt>
      <trkpt lat="48.11579" lon="6.40289">
        <ele>449.39999389648</ele>
        <time>2024-01-28T08:19:25.000Z</time>
      </trkpt>
      <trkpt lat="48.1158" lon="6.40288">
        <ele>449.39999389648</ele>
        <time>2024-01-28T08:19:26.000Z</time>
      </trkpt>
      <trkpt lat="48.11581" lon="6.40287">
        <ele>449.60000610352</ele>
        <time>2024-01-28T08:19:27.000Z</time>
      </trkpt>
      <trkpt lat="48.11583" lon="6.40288">
        <ele>449.79998779297</ele>
        <time>2024-01-28T08:19:28.000Z</time>
      </trkpt>
      <trkpt lat="48.11586" lon="6.40291">
        <ele>450.20001220703</ele>
        <time>2024-01-28T08:19:30.000Z</time>
      </trkpt>
      <trkpt lat="48.11587" lon="6.40293">
        <ele>450.20001220703</ele>
        <time>2024-01-28T08:19:31.000Z</time>
      </trkpt>
      <trkpt lat="48.11595" lon="6.40302">
        <ele>450.60000610352</ele>
        <time>2024-01-28T08:19:38.000Z</time>
      </trkpt>
      <trkpt lat="48.11596" lon="6.40303">
        <ele>450.60000610352</ele>
        <time>2024-01-28T08:19:39.000Z</time>
      </trkpt>
      <trkpt lat="48.11597" lon="6.40304">
        <ele>450.60000610352</ele>
        <time>2024-01-28T08:19:40.000Z</time>
      </trkpt>
      <trkpt lat="48.11598" lon="6.40305">
        <ele>450.79998779297</ele>
        <time>2024-01-28T08:19:41.000Z</time>
      </trkpt>
      <trkpt lat="48.11603" lon="6.40309">
        <ele>451.39999389648</ele>
        <time>2024-01-28T08:19:45.000Z</time>
      </trkpt>
      <trkpt lat="48.11606" lon="6.40312">
        <ele>451.79998779297</ele>
        <time>2024-01-28T08:19:49.000Z</time>
      </trkpt>
      <trkpt lat="48.11612" lon="6.40315">
        <ele>452.20001220703</ele>
        <time>2024-01-28T08:19:54.000Z</time>
      </trkpt>
      <trkpt lat="48.11614" lon="6.40317">
        <ele>452.39999389648</ele>
        <time>2024-01-28T08:19:56.000Z</time>
      </trkpt>
      <trkpt lat="48.11615" lon="6.40318">
        <ele>452.60000610352</ele>
        <time>2024-01-28T08:19:57.000Z</time>
      </trkpt>
      <trkpt lat="48.11618" lon="6.4032">
        <ele>452.79998779297</ele>
        <time>2024-01-28T08:19:59.000Z</time>
      </trkpt>
      <trkpt lat="48.1162" lon="6.40323">
        <ele>453.20001220703</ele>
        <time>2024-01-28T08:20:02.000Z</time>
      </trkpt>
      <trkpt lat="48.11627" lon="6.40327">
        <ele>454</ele>
        <time>2024-01-28T08:20:08.000Z</time>
      </trkpt>
      <trkpt lat="48.11629" lon="6.40329">
        <ele>454.20001220703</ele>
        <time>2024-01-28T08:20:10.000Z</time>
      </trkpt>
      <trkpt lat="48.11635" lon="6.40334">
        <ele>455</ele>
        <time>2024-01-28T08:20:17.000Z</time>
      </trkpt>
      <trkpt lat="48.11637" lon="6.40335">
        <ele>455.39999389648</ele>
        <time>2024-01-28T08:20:19.000Z</time>
      </trkpt>
      <trkpt lat="48.11643" lon="6.40338">
        <ele>456.20001220703</ele>
        <time>2024-01-28T08:20:24.000Z</time>
      </trkpt>
      <trkpt lat="48.11645" lon="6.40339">
        <ele>456.39999389648</ele>
        <time>2024-01-28T08:20:25.000Z</time>
      </trkpt>
      <trkpt lat="48.11652" lon="6.40343">
        <ele>457.20001220703</ele>
        <time>2024-01-28T08:20:32.000Z</time>
      </trkpt>
      <trkpt lat="48.11659" lon="6.40349">
        <ele>458.20001220703</ele>
        <time>2024-01-28T08:20:39.000Z</time>
      </trkpt>
      <trkpt lat="48.1166" lon="6.40349">
        <ele>458.39999389648</ele>
        <time>2024-01-28T08:20:40.000Z</time>
      </trkpt>
      <trkpt lat="48.11671" lon="6.40356">
        <ele>459.39999389648</ele>
        <time>2024-01-28T08:20:51.000Z</time>
      </trkpt>
      <trkpt lat="48.11678" lon="6.4036">
        <ele>460</ele>
        <time>2024-01-28T08:20:57.000Z</time>
      </trkpt>
      <trkpt lat="48.11683" lon="6.40363">
        <ele>460.39999389648</ele>
        <time>2024-01-28T08:21:02.000Z</time>
      </trkpt>
      <trkpt lat="48.11694" lon="6.40368">
        <ele>461</ele>
        <time>2024-01-28T08:21:12.000Z</time>
      </trkpt>
      <trkpt lat="48.11699" lon="6.4037">
        <ele>461.20001220703</ele>
        <time>2024-01-28T08:21:17.000Z</time>
      </trkpt>
      <trkpt lat="48.11702" lon="6.40371">
        <ele>461.20001220703</ele>
        <time>2024-01-28T08:21:20.000Z</time>
      </trkpt>
      <trkpt lat="48.11702" lon="6.40371">
        <ele>461.39999389648</ele>
        <time>2024-01-28T08:21:21.000Z</time>
      </trkpt>
      <trkpt lat="48.1171" lon="6.40376">
        <ele>461.79998779297</ele>
        <time>2024-01-28T08:21:27.000Z</time>
      </trkpt>
      <trkpt lat="48.11719" lon="6.40385">
        <ele>462.20001220703</ele>
        <time>2024-01-28T08:21:35.000Z</time>
      </trkpt>
      <trkpt lat="48.11723" lon="6.40388">
        <ele>462.39999389648</ele>
        <time>2024-01-28T08:21:40.000Z</time>
      </trkpt>
      <trkpt lat="48.11728" lon="6.40391">
        <ele>462.60000610352</ele>
        <time>2024-01-28T08:21:44.000Z</time>
      </trkpt>
      <trkpt lat="48.11732" lon="6.40394">
        <ele>462.79998779297</ele>
        <time>2024-01-28T08:21:48.000Z</time>
      </trkpt>
      <trkpt lat="48.1174" lon="6.40398">
        <ele>463.39999389648</ele>
        <time>2024-01-28T08:21:55.000Z</time>
      </trkpt>
      <trkpt lat="48.11741" lon="6.40398">
        <ele>463.39999389648</ele>
        <time>2024-01-28T08:21:56.000Z</time>
      </trkpt>
      <trkpt lat="48.11744" lon="6.40399">
        <ele>463.60000610352</ele>
        <time>2024-01-28T08:21:58.000Z</time>
      </trkpt>
      <trkpt lat="48.11745" lon="6.40399">
        <ele>463.60000610352</ele>
        <time>2024-01-28T08:21:59.000Z</time>
      </trkpt>
      <trkpt lat="48.11755" lon="6.40404">
        <ele>464.39999389648</ele>
        <time>2024-01-28T08:22:07.000Z</time>
      </trkpt>
      <trkpt lat="48.1176" lon="6.40406">
        <ele>464.60000610352</ele>
        <time>2024-01-28T08:22:11.000Z</time>
      </trkpt>
      <trkpt lat="48.11767" lon="6.40408">
        <ele>465.39999389648</ele>
        <time>2024-01-28T08:22:17.000Z</time>
      </trkpt>
      <trkpt lat="48.1177" lon="6.4041">
        <ele>465.60000610352</ele>
        <time>2024-01-28T08:22:20.000Z</time>
      </trkpt>
      <trkpt lat="48.11777" lon="6.40412">
        <ele>466.20001220703</ele>
        <time>2024-01-28T08:22:25.000Z</time>
      </trkpt>
      <trkpt lat="48.11778" lon="6.40412">
        <ele>466.20001220703</ele>
        <time>2024-01-28T08:22:26.000Z</time>
      </trkpt>
      <trkpt lat="48.11779" lon="6.40412">
        <ele>466.20001220703</ele>
        <time>2024-01-28T08:22:27.000Z</time>
      </trkpt>
      <trkpt lat="48.1178" lon="6.40413">
        <ele>466.20001220703</ele>
        <time>2024-01-28T08:22:28.000Z</time>
      </trkpt>
      <trkpt lat="48.11783" lon="6.40415">
        <ele>466.20001220703</ele>
        <time>2024-01-28T08:22:30.000Z</time>
      </trkpt>
      <trkpt lat="48.11787" lon="6.40418">
        <ele>466.20001220703</ele>
        <time>2024-01-28T08:22:33.000Z</time>
      </trkpt>
      <trkpt lat="48.11794" lon="6.40422">
        <ele>466.60000610352</ele>
        <time>2024-01-28T08:22:38.000Z</time>
      </trkpt>
      <trkpt lat="48.11799" lon="6.40427">
        <ele>466.39999389648</ele>
        <time>2024-01-28T08:22:42.000Z</time>
      </trkpt>
      <trkpt lat="48.11808" lon="6.40434">
        <ele>466.39999389648</ele>
        <time>2024-01-28T08:22:50.000Z</time>
      </trkpt>
      <trkpt lat="48.11807" lon="6.40432">
        <ele>466.39999389648</ele>
        <time>2024-01-28T08:22:54.000Z</time>
      </trkpt>
      <trkpt lat="48.11807" lon="6.40431">
        <ele>466.60000610352</ele>
        <time>2024-01-28T08:22:55.000Z</time>
      </trkpt>
      <trkpt lat="48.11807" lon="6.40428">
        <ele>466.79998779297</ele>
        <time>2024-01-28T08:22:58.000Z</time>
      </trkpt>
      <trkpt lat="48.11809" lon="6.40424">
        <ele>467</ele>
        <time>2024-01-28T08:23:00.000Z</time>
      </trkpt>
      <trkpt lat="48.11811" lon="6.4042">
        <ele>467.20001220703</ele>
        <time>2024-01-28T08:23:03.000Z</time>
      </trkpt>
      <trkpt lat="48.11817" lon="6.40417">
        <ele>467.39999389648</ele>
        <time>2024-01-28T08:23:07.000Z</time>
      </trkpt>
      <trkpt lat="48.11821" lon="6.40413">
        <ele>467.60000610352</ele>
        <time>2024-01-28T08:23:12.000Z</time>
      </trkpt>
      <trkpt lat="48.11822" lon="6.40411">
        <ele>467.60000610352</ele>
        <time>2024-01-28T08:23:15.000Z</time>
      </trkpt>
      <trkpt lat="48.11829" lon="6.40407">
        <ele>467.60000610352</ele>
        <time>2024-01-28T08:23:22.000Z</time>
      </trkpt>
      <trkpt lat="48.11831" lon="6.40406">
        <ele>467.60000610352</ele>
        <time>2024-01-28T08:23:23.000Z</time>
      </trkpt>
      <trkpt lat="48.11838" lon="6.40397">
        <ele>467.79998779297</ele>
        <time>2024-01-28T08:23:30.000Z</time>
      </trkpt>
      <trkpt lat="48.11841" lon="6.4039">
        <ele>468</ele>
        <time>2024-01-28T08:23:35.000Z</time>
      </trkpt>
      <trkpt lat="48.11845" lon="6.40383">
        <ele>468</ele>
        <time>2024-01-28T08:23:39.000Z</time>
      </trkpt>
      <trkpt lat="48.11851" lon="6.4037">
        <ele>468.39999389648</ele>
        <time>2024-01-28T08:23:48.000Z</time>
      </trkpt>
      <trkpt lat="48.11854" lon="6.40366">
        <ele>468.39999389648</ele>
        <time>2024-01-28T08:23:51.000Z</time>
      </trkpt>
      <trkpt lat="48.11855" lon="6.40361">
        <ele>468.60000610352</ele>
        <time>2024-01-28T08:23:54.000Z</time>
      </trkpt>
      <trkpt lat="48.11854" lon="6.40356">
        <ele>468.60000610352</ele>
        <time>2024-01-28T08:23:57.000Z</time>
      </trkpt>
      <trkpt lat="48.11855" lon="6.40351">
        <ele>468.60000610352</ele>
        <time>2024-01-28T08:24:00.000Z</time>
      </trkpt>
      <trkpt lat="48.11854" lon="6.4035">
        <ele>468.60000610352</ele>
        <time>2024-01-28T08:24:01.000Z</time>
      </trkpt>
      <trkpt lat="48.11855" lon="6.40344">
        <ele>468.60000610352</ele>
        <time>2024-01-28T08:24:05.000Z</time>
      </trkpt>
      <trkpt lat="48.11855" lon="6.40339">
        <ele>468.60000610352</ele>
        <time>2024-01-28T08:24:08.000Z</time>
      </trkpt>
      <trkpt lat="48.11856" lon="6.40333">
        <ele>468.79998779297</ele>
        <time>2024-01-28T08:24:12.000Z</time>
      </trkpt>
      <trkpt lat="48.11856" lon="6.40329">
        <ele>468.79998779297</ele>
        <time>2024-01-28T08:24:14.000Z</time>
      </trkpt>
      <trkpt lat="48.11857" lon="6.40314">
        <ele>468.79998779297</ele>
        <time>2024-01-28T08:24:22.000Z</time>
      </trkpt>
      <trkpt lat="48.11856" lon="6.40303">
        <ele>468.79998779297</ele>
        <time>2024-01-28T08:24:29.000Z</time>
      </trkpt>
      <trkpt lat="48.11855" lon="6.40298">
        <ele>468.79998779297</ele>
        <time>2024-01-28T08:24:32.000Z</time>
      </trkpt>
      <trkpt lat="48.11853" lon="6.4029">
        <ele>468.79998779297</ele>
        <time>2024-01-28T08:24:37.000Z</time>
      </trkpt>
      <trkpt lat="48.11851" lon="6.40283">
        <ele>468.79998779297</ele>
        <time>2024-01-28T08:24:41.000Z</time>
      </trkpt>
      <trkpt lat="48.11848" lon="6.40279">
        <ele>468.79998779297</ele>
        <time>2024-01-28T08:24:45.000Z</time>
      </trkpt>
      <trkpt lat="48.11843" lon="6.40263">
        <ele>468.60000610352</ele>
        <time>2024-01-28T08:24:54.000Z</time>
      </trkpt>
      <trkpt lat="48.11838" lon="6.40251">
        <ele>468.60000610352</ele>
        <time>2024-01-28T08:25:02.000Z</time>
      </trkpt>
      <trkpt lat="48.11838" lon="6.40247">
        <ele>468.39999389648</ele>
        <time>2024-01-28T08:25:04.000Z</time>
      </trkpt>
      <trkpt lat="48.11839" lon="6.40236">
        <ele>468.20001220703</ele>
        <time>2024-01-28T08:25:10.000Z</time>
      </trkpt>
      <trkpt lat="48.11839" lon="6.40228">
        <ele>468.20001220703</ele>
        <time>2024-01-28T08:25:15.000Z</time>
      </trkpt>
      <trkpt lat="48.11838" lon="6.40224">
        <ele>468</ele>
        <time>2024-01-28T08:25:17.000Z</time>
      </trkpt>
      <trkpt lat="48.11841" lon="6.40217">
        <ele>467.79998779297</ele>
        <time>2024-01-28T08:25:21.000Z</time>
      </trkpt>
      <trkpt lat="48.11843" lon="6.40214">
        <ele>467.60000610352</ele>
        <time>2024-01-28T08:25:23.000Z</time>
      </trkpt>
      <trkpt lat="48.11855" lon="6.40206">
        <ele>467.20001220703</ele>
        <time>2024-01-28T08:25:33.000Z</time>
      </trkpt>
      <trkpt lat="48.11858" lon="6.40205">
        <ele>467</ele>
        <time>2024-01-28T08:25:36.000Z</time>
      </trkpt>
      <trkpt lat="48.11867" lon="6.40207">
        <ele>466.60000610352</ele>
        <time>2024-01-28T08:25:41.000Z</time>
      </trkpt>
      <trkpt lat="48.1187" lon="6.4021">
        <ele>466.39999389648</ele>
        <time>2024-01-28T08:25:43.000Z</time>
      </trkpt>
      <trkpt lat="48.11881" lon="6.40216">
        <ele>466</ele>
        <time>2024-01-28T08:25:52.000Z</time>
      </trkpt>
      <trkpt lat="48.1189" lon="6.40229">
        <ele>465.39999389648</ele>
        <time>2024-01-28T08:26:00.000Z</time>
      </trkpt>
      <trkpt lat="48.11891" lon="6.4023">
        <ele>465.39999389648</ele>
        <time>2024-01-28T08:26:01.000Z</time>
      </trkpt>
      <trkpt lat="48.11896" lon="6.40237">
        <ele>465.20001220703</ele>
        <time>2024-01-28T08:26:06.000Z</time>
      </trkpt>
      <trkpt lat="48.11901" lon="6.40245">
        <ele>465</ele>
        <time>2024-01-28T08:26:12.000Z</time>
      </trkpt>
      <trkpt lat="48.11902" lon="6.40247">
        <ele>464.79998779297</ele>
        <time>2024-01-28T08:26:13.000Z</time>
      </trkpt>
      <trkpt lat="48.11905" lon="6.40258">
        <ele>464.60000610352</ele>
        <time>2024-01-28T08:26:18.000Z</time>
      </trkpt>
      <trkpt lat="48.11905" lon="6.40259">
        <ele>464.60000610352</ele>
        <time>2024-01-28T08:26:19.000Z</time>
      </trkpt>
      <trkpt lat="48.11906" lon="6.4026">
        <ele>464.60000610352</ele>
        <time>2024-01-28T08:26:20.000Z</time>
      </trkpt>
      <trkpt lat="48.1191" lon="6.40274">
        <ele>464.39999389648</ele>
        <time>2024-01-28T08:26:27.000Z</time>
      </trkpt>
      <trkpt lat="48.11916" lon="6.40286">
        <ele>464.20001220703</ele>
        <time>2024-01-28T08:26:35.000Z</time>
      </trkpt>
      <trkpt lat="48.11919" lon="6.40288">
        <ele>464.20001220703</ele>
        <time>2024-01-28T08:26:36.000Z</time>
      </trkpt>
      <trkpt lat="48.11922" lon="6.40293">
        <ele>464.20001220703</ele>
        <time>2024-01-28T08:26:41.000Z</time>
      </trkpt>
      <trkpt lat="48.11927" lon="6.40303">
        <ele>464</ele>
        <time>2024-01-28T08:26:47.000Z</time>
      </trkpt>
      <trkpt lat="48.11928" lon="6.40304">
        <ele>463.79998779297</ele>
        <time>2024-01-28T08:26:48.000Z</time>
      </trkpt>
      <trkpt lat="48.11934" lon="6.40301">
        <ele>463.60000610352</ele>
        <time>2024-01-28T08:26:54.000Z</time>
      </trkpt>
      <trkpt lat="48.11942" lon="6.40294">
        <ele>463.20001220703</ele>
        <time>2024-01-28T08:27:03.000Z</time>
      </trkpt>
      <trkpt lat="48.11943" lon="6.40294">
        <ele>463</ele>
        <time>2024-01-28T08:27:04.000Z</time>
      </trkpt>
      <trkpt lat="48.11946" lon="6.40291">
        <ele>462.79998779297</ele>
        <time>2024-01-28T08:27:08.000Z</time>
      </trkpt>
      <trkpt lat="48.11948" lon="6.40286">
        <ele>462.60000610352</ele>
        <time>2024-01-28T08:27:11.000Z</time>
      </trkpt>
      <trkpt lat="48.1195" lon="6.40284">
        <ele>462.20001220703</ele>
        <time>2024-01-28T08:27:13.000Z</time>
      </trkpt>
      <trkpt lat="48.11951" lon="6.40284">
        <ele>462.20001220703</ele>
        <time>2024-01-28T08:27:14.000Z</time>
      </trkpt>
      <trkpt lat="48.11955" lon="6.40285">
        <ele>462</ele>
        <time>2024-01-28T08:27:16.000Z</time>
      </trkpt>
      <trkpt lat="48.11959" lon="6.40286">
        <ele>461.79998779297</ele>
        <time>2024-01-28T08:27:19.000Z</time>
      </trkpt>
      <trkpt lat="48.11961" lon="6.40287">
        <ele>461.60000610352</ele>
        <time>2024-01-28T08:27:21.000Z</time>
      </trkpt>
      <trkpt lat="48.11975" lon="6.40286">
        <ele>461.20001220703</ele>
        <time>2024-01-28T08:27:32.000Z</time>
      </trkpt>
      <trkpt lat="48.11987" lon="6.40288">
        <ele>461</ele>
        <time>2024-01-28T08:27:41.000Z</time>
      </trkpt>
      <trkpt lat="48.11994" lon="6.40289">
        <ele>461.20001220703</ele>
        <time>2024-01-28T08:27:47.000Z</time>
      </trkpt>
      <trkpt lat="48.12013" lon="6.40294">
        <ele>461.39999389648</ele>
        <time>2024-01-28T08:27:59.000Z</time>
      </trkpt>
      <trkpt lat="48.1203" lon="6.40298">
        <ele>462.20001220703</ele>
        <time>2024-01-28T08:28:10.000Z</time>
      </trkpt>
      <trkpt lat="48.12035" lon="6.40299">
        <ele>462.39999389648</ele>
        <time>2024-01-28T08:28:14.000Z</time>
      </trkpt>
      <trkpt lat="48.12039" lon="6.40303">
        <ele>462.60000610352</ele>
        <time>2024-01-28T08:28:17.000Z</time>
      </trkpt>
      <trkpt lat="48.12043" lon="6.40303">
        <ele>462.79998779297</ele>
        <time>2024-01-28T08:28:19.000Z</time>
      </trkpt>
      <trkpt lat="48.12044" lon="6.40303">
        <ele>462.79998779297</ele>
        <time>2024-01-28T08:28:20.000Z</time>
      </trkpt>
      <trkpt lat="48.12056" lon="6.40308">
        <ele>463.60000610352</ele>
        <time>2024-01-28T08:28:32.000Z</time>
      </trkpt>
      <trkpt lat="48.12065" lon="6.4031">
        <ele>464</ele>
        <time>2024-01-28T08:28:38.000Z</time>
      </trkpt>
      <trkpt lat="48.12072" lon="6.40313">
        <ele>464.20001220703</ele>
        <time>2024-01-28T08:28:44.000Z</time>
      </trkpt>
      <trkpt lat="48.12087" lon="6.40318">
        <ele>464.79998779297</ele>
        <time>2024-01-28T08:28:55.000Z</time>
      </trkpt>
      <trkpt lat="48.12091" lon="6.40319">
        <ele>465</ele>
        <time>2024-01-28T08:28:58.000Z</time>
      </trkpt>
      <trkpt lat="48.12099" lon="6.40323">
        <ele>465.39999389648</ele>
        <time>2024-01-28T08:29:05.000Z</time>
      </trkpt>
      <trkpt lat="48.12104" lon="6.40326">
        <ele>465.60000610352</ele>
        <time>2024-01-28T08:29:09.000Z</time>
      </trkpt>
      <trkpt lat="48.12109" lon="6.40328">
        <ele>465.79998779297</ele>
        <time>2024-01-28T08:29:13.000Z</time>
      </trkpt>
      <trkpt lat="48.12115" lon="6.4033">
        <ele>466</ele>
        <time>2024-01-28T08:29:18.000Z</time>
      </trkpt>
      <trkpt lat="48.12121" lon="6.40332">
        <ele>466.20001220703</ele>
        <time>2024-01-28T08:29:22.000Z</time>
      </trkpt>
      <trkpt lat="48.12128" lon="6.40334">
        <ele>466.20001220703</ele>
        <time>2024-01-28T08:29:28.000Z</time>
      </trkpt>
      <trkpt lat="48.12132" lon="6.40336">
        <ele>466.39999389648</ele>
        <time>2024-01-28T08:29:31.000Z</time>
      </trkpt>
      <trkpt lat="48.12141" lon="6.40341">
        <ele>466.39999389648</ele>
        <time>2024-01-28T08:29:38.000Z</time>
      </trkpt>
      <trkpt lat="48.12155" lon="6.40347">
        <ele>466.60000610352</ele>
        <time>2024-01-28T08:29:49.000Z</time>
      </trkpt>
      <trkpt lat="48.12168" lon="6.40351">
        <ele>466.79998779297</ele>
        <time>2024-01-28T08:29:58.000Z</time>
      </trkpt>
      <trkpt lat="48.1218" lon="6.40355">
        <ele>466.79998779297</ele>
        <time>2024-01-28T08:30:08.000Z</time>
      </trkpt>
      <trkpt lat="48.12195" lon="6.40356">
        <ele>466.79998779297</ele>
        <time>2024-01-28T08:30:18.000Z</time>
      </trkpt>
      <trkpt lat="48.12205" lon="6.40357">
        <ele>467</ele>
        <time>2024-01-28T08:30:26.000Z</time>
      </trkpt>
      <trkpt lat="48.1221" lon="6.40359">
        <ele>467.20001220703</ele>
        <time>2024-01-28T08:30:29.000Z</time>
      </trkpt>
      <trkpt lat="48.12226" lon="6.40365">
        <ele>467.60000610352</ele>
        <time>2024-01-28T08:30:40.000Z</time>
      </trkpt>
      <trkpt lat="48.12236" lon="6.40371">
        <ele>468</ele>
        <time>2024-01-28T08:30:49.000Z</time>
      </trkpt>
      <trkpt lat="48.12237" lon="6.40371">
        <ele>468.20001220703</ele>
        <time>2024-01-28T08:30:50.000Z</time>
      </trkpt>
      <trkpt lat="48.12241" lon="6.40372">
        <ele>468.39999389648</ele>
        <time>2024-01-28T08:30:54.000Z</time>
      </trkpt>
      <trkpt lat="48.12247" lon="6.40375">
        <ele>468.60000610352</ele>
        <time>2024-01-28T08:30:59.000Z</time>
      </trkpt>
      <trkpt lat="48.12256" lon="6.40375">
        <ele>468.79998779297</ele>
        <time>2024-01-28T08:31:06.000Z</time>
      </trkpt>
      <trkpt lat="48.12268" lon="6.40377">
        <ele>469.20001220703</ele>
        <time>2024-01-28T08:31:14.000Z</time>
      </trkpt>
      <trkpt lat="48.12271" lon="6.4038">
        <ele>469.39999389648</ele>
        <time>2024-01-28T08:31:17.000Z</time>
      </trkpt>
      <trkpt lat="48.12282" lon="6.40386">
        <ele>470.20001220703</ele>
        <time>2024-01-28T08:31:26.000Z</time>
      </trkpt>
      <trkpt lat="48.12283" lon="6.40387">
        <ele>470.20001220703</ele>
        <time>2024-01-28T08:31:27.000Z</time>
      </trkpt>
      <trkpt lat="48.1229" lon="6.40394">
        <ele>470.79998779297</ele>
        <time>2024-01-28T08:31:35.000Z</time>
      </trkpt>
      <trkpt lat="48.12296" lon="6.40397">
        <ele>471</ele>
        <time>2024-01-28T08:31:38.000Z</time>
      </trkpt>
      <trkpt lat="48.12304" lon="6.40406">
        <ele>471.20001220703</ele>
        <time>2024-01-28T08:31:46.000Z</time>
      </trkpt>
      <trkpt lat="48.12313" lon="6.40408">
        <ele>471</ele>
        <time>2024-01-28T08:31:53.000Z</time>
      </trkpt>
      <trkpt lat="48.12317" lon="6.40407">
        <ele>471</ele>
        <time>2024-01-28T08:31:56.000Z</time>
      </trkpt>
      <trkpt lat="48.12328" lon="6.40405">
        <ele>470.20001220703</ele>
        <time>2024-01-28T08:32:06.000Z</time>
      </trkpt>
      <trkpt lat="48.12336" lon="6.40401">
        <ele>469.79998779297</ele>
        <time>2024-01-28T08:32:13.000Z</time>
      </trkpt>
      <trkpt lat="48.12339" lon="6.404">
        <ele>469.39999389648</ele>
        <time>2024-01-28T08:32:16.000Z</time>
      </trkpt>
      <trkpt lat="48.12341" lon="6.404">
        <ele>469.20001220703</ele>
        <time>2024-01-28T08:32:18.000Z</time>
      </trkpt>
      <trkpt lat="48.12348" lon="6.40398">
        <ele>468.39999389648</ele>
        <time>2024-01-28T08:32:24.000Z</time>
      </trkpt>
      <trkpt lat="48.1235" lon="6.40398">
        <ele>468</ele>
        <time>2024-01-28T08:32:25.000Z</time>
      </trkpt>
      <trkpt lat="48.12366" lon="6.40393">
        <ele>467</ele>
        <time>2024-01-28T08:32:33.000Z</time>
      </trkpt>
      <trkpt lat="48.12372" lon="6.40391">
        <ele>466.60000610352</ele>
        <time>2024-01-28T08:32:37.000Z</time>
      </trkpt>
      <trkpt lat="48.12377" lon="6.40386">
        <ele>466</ele>
        <time>2024-01-28T08:32:42.000Z</time>
      </trkpt>
      <trkpt lat="48.12378" lon="6.40386">
        <ele>466</ele>
        <time>2024-01-28T08:32:43.000Z</time>
      </trkpt>
      <trkpt lat="48.12385" lon="6.40382">
        <ele>465.39999389648</ele>
        <time>2024-01-28T08:32:48.000Z</time>
      </trkpt>
      <trkpt lat="48.12391" lon="6.40379">
        <ele>465</ele>
        <time>2024-01-28T08:32:53.000Z</time>
      </trkpt>
      <trkpt lat="48.12392" lon="6.40377">
        <ele>464.79998779297</ele>
        <time>2024-01-28T08:32:54.000Z</time>
      </trkpt>
      <trkpt lat="48.12399" lon="6.40374">
        <ele>464.20001220703</ele>
        <time>2024-01-28T08:33:00.000Z</time>
      </trkpt>
      <trkpt lat="48.12401" lon="6.40373">
        <ele>464</ele>
        <time>2024-01-28T08:33:01.000Z</time>
      </trkpt>
      <trkpt lat="48.12402" lon="6.40373">
        <ele>464</ele>
        <time>2024-01-28T08:33:02.000Z</time>
      </trkpt>
      <trkpt lat="48.12405" lon="6.4037">
        <ele>463.60000610352</ele>
        <time>2024-01-28T08:33:05.000Z</time>
      </trkpt>
      <trkpt lat="48.12412" lon="6.40367">
        <ele>462.79998779297</ele>
        <time>2024-01-28T08:33:10.000Z</time>
      </trkpt>
      <trkpt lat="48.12417" lon="6.40362">
        <ele>462.39999389648</ele>
        <time>2024-01-28T08:33:15.000Z</time>
      </trkpt>
      <trkpt lat="48.12422" lon="6.40358">
        <ele>461.79998779297</ele>
        <time>2024-01-28T08:33:20.000Z</time>
      </trkpt>
      <trkpt lat="48.12424" lon="6.40355">
        <ele>461.60000610352</ele>
        <time>2024-01-28T08:33:22.000Z</time>
      </trkpt>
      <trkpt lat="48.12427" lon="6.40355">
        <ele>461.60000610352</ele>
        <time>2024-01-28T08:33:24.000Z</time>
      </trkpt>
      <trkpt lat="48.12437" lon="6.40348">
        <ele>462</ele>
        <time>2024-01-28T08:33:33.000Z</time>
      </trkpt>
      <trkpt lat="48.12447" lon="6.40343">
        <ele>462.20001220703</ele>
        <time>2024-01-28T08:33:41.000Z</time>
      </trkpt>
      <trkpt lat="48.1245" lon="6.40341">
        <ele>462.39999389648</ele>
        <time>2024-01-28T08:33:43.000Z</time>
      </trkpt>
      <trkpt lat="48.12463" lon="6.40334">
        <ele>462.39999389648</ele>
        <time>2024-01-28T08:33:53.000Z</time>
      </trkpt>
      <trkpt lat="48.12475" lon="6.40331">
        <ele>462.20001220703</ele>
        <time>2024-01-28T08:34:02.000Z</time>
      </trkpt>
      <trkpt lat="48.12482" lon="6.40326">
        <ele>462</ele>
        <time>2024-01-28T08:34:08.000Z</time>
      </trkpt>
      <trkpt lat="48.12488" lon="6.40322">
        <ele>461.79998779297</ele>
        <time>2024-01-28T08:34:12.000Z</time>
      </trkpt>
      <trkpt lat="48.12501" lon="6.40311">
        <ele>461</ele>
        <time>2024-01-28T08:34:23.000Z</time>
      </trkpt>
      <trkpt lat="48.12505" lon="6.40307">
        <ele>460.60000610352</ele>
        <time>2024-01-28T08:34:27.000Z</time>
      </trkpt>
      <trkpt lat="48.12513" lon="6.40302">
        <ele>460</ele>
        <time>2024-01-28T08:34:33.000Z</time>
      </trkpt>
      <trkpt lat="48.12516" lon="6.40299">
        <ele>459.60000610352</ele>
        <time>2024-01-28T08:34:35.000Z</time>
      </trkpt>
      <trkpt lat="48.12522" lon="6.40295">
        <ele>458.60000610352</ele>
        <time>2024-01-28T08:34:40.000Z</time>
      </trkpt>
      <trkpt lat="48.12525" lon="6.40294">
        <ele>458.20001220703</ele>
        <time>2024-01-28T08:34:42.000Z</time>
      </trkpt>
      <trkpt lat="48.12528" lon="6.40292">
        <ele>457.60000610352</ele>
        <time>2024-01-28T08:34:45.000Z</time>
      </trkpt>
      <trkpt lat="48.12534" lon="6.40288">
        <ele>456.60000610352</ele>
        <time>2024-01-28T08:34:50.000Z</time>
      </trkpt>
      <trkpt lat="48.12538" lon="6.40285">
        <ele>456</ele>
        <time>2024-01-28T08:34:53.000Z</time>
      </trkpt>
      <trkpt lat="48.12542" lon="6.40283">
        <ele>455.39999389648</ele>
        <time>2024-01-28T08:34:56.000Z</time>
      </trkpt>
      <trkpt lat="48.12548" lon="6.4028">
        <ele>454.39999389648</ele>
        <time>2024-01-28T08:35:01.000Z</time>
      </trkpt>
      <trkpt lat="48.12549" lon="6.40279">
        <ele>454.39999389648</ele>
        <time>2024-01-28T08:35:02.000Z</time>
      </trkpt>
      <trkpt lat="48.12552" lon="6.40277">
        <ele>454</ele>
        <time>2024-01-28T08:35:04.000Z</time>
      </trkpt>
      <trkpt lat="48.1256" lon="6.40272">
        <ele>453.20001220703</ele>
        <time>2024-01-28T08:35:09.000Z</time>
      </trkpt>
      <trkpt lat="48.12564" lon="6.40267">
        <ele>452.79998779297</ele>
        <time>2024-01-28T08:35:13.000Z</time>
      </trkpt>
      <trkpt lat="48.12568" lon="6.40264">
        <ele>452.39999389648</ele>
        <time>2024-01-28T08:35:16.000Z</time>
      </trkpt>
      <trkpt lat="48.1257" lon="6.40262">
        <ele>452</ele>
        <time>2024-01-28T08:35:18.000Z</time>
      </trkpt>
      <trkpt lat="48.12576" lon="6.40256">
        <ele>451.20001220703</ele>
        <time>2024-01-28T08:35:24.000Z</time>
      </trkpt>
      <trkpt lat="48.12579" lon="6.4024">
        <ele>451</ele>
        <time>2024-01-28T08:35:33.000Z</time>
      </trkpt>
      <trkpt lat="48.12581" lon="6.40224">
        <ele>451</ele>
        <time>2024-01-28T08:35:43.000Z</time>
      </trkpt>
      <trkpt lat="48.12583" lon="6.4021">
        <ele>450.39999389648</ele>
        <time>2024-01-28T08:35:50.000Z</time>
      </trkpt>
      <trkpt lat="48.12585" lon="6.40206">
        <ele>450.20001220703</ele>
        <time>2024-01-28T08:35:53.000Z</time>
      </trkpt>
      <trkpt lat="48.12585" lon="6.40192">
        <ele>450</ele>
        <time>2024-01-28T08:36:00.000Z</time>
      </trkpt>
      <trkpt lat="48.12585" lon="6.40191">
        <ele>450</ele>
        <time>2024-01-28T08:36:01.000Z</time>
      </trkpt>
      <trkpt lat="48.12583" lon="6.40176">
        <ele>450.39999389648</ele>
        <time>2024-01-28T08:36:09.000Z</time>
      </trkpt>
      <trkpt lat="48.12584" lon="6.40165">
        <ele>450.60000610352</ele>
        <time>2024-01-28T08:36:16.000Z</time>
      </trkpt>
      <trkpt lat="48.12583" lon="6.40154">
        <ele>450.79998779297</ele>
        <time>2024-01-28T08:36:22.000Z</time>
      </trkpt>
      <trkpt lat="48.12583" lon="6.4015">
        <ele>450.79998779297</ele>
        <time>2024-01-28T08:36:24.000Z</time>
      </trkpt>
      <trkpt lat="48.12582" lon="6.40138">
        <ele>450.79998779297</ele>
        <time>2024-01-28T08:36:29.000Z</time>
      </trkpt>
      <trkpt lat="48.12583" lon="6.40123">
        <ele>450.60000610352</ele>
        <time>2024-01-28T08:36:37.000Z</time>
      </trkpt>
      <trkpt lat="48.12584" lon="6.40108">
        <ele>450.20001220703</ele>
        <time>2024-01-28T08:36:45.000Z</time>
      </trkpt>
      <trkpt lat="48.12583" lon="6.40104">
        <ele>449.79998779297</ele>
        <time>2024-01-28T08:36:48.000Z</time>
      </trkpt>
      <trkpt lat="48.12583" lon="6.40102">
        <ele>449.79998779297</ele>
        <time>2024-01-28T08:36:49.000Z</time>
      </trkpt>
      <trkpt lat="48.12583" lon="6.40098">
        <ele>449.60000610352</ele>
        <time>2024-01-28T08:36:51.000Z</time>
      </trkpt>
      <trkpt lat="48.12581" lon="6.40084">
        <ele>449</ele>
        <time>2024-01-28T08:36:58.000Z</time>
      </trkpt>
      <trkpt lat="48.12581" lon="6.40081">
        <ele>448.79998779297</ele>
        <time>2024-01-28T08:37:00.000Z</time>
      </trkpt>
      <trkpt lat="48.12581" lon="6.40075">
        <ele>448.60000610352</ele>
        <time>2024-01-28T08:37:03.000Z</time>
      </trkpt>
      <trkpt lat="48.12579" lon="6.40064">
        <ele>447.79998779297</ele>
        <time>2024-01-28T08:37:10.000Z</time>
      </trkpt>
      <trkpt lat="48.12579" lon="6.40062">
        <ele>447.79998779297</ele>
        <time>2024-01-28T08:37:11.000Z</time>
      </trkpt>
      <trkpt lat="48.12574" lon="6.40047">
        <ele>447.20001220703</ele>
        <time>2024-01-28T08:37:21.000Z</time>
      </trkpt>
      <trkpt lat="48.12573" lon="6.40035">
        <ele>446.79998779297</ele>
        <time>2024-01-28T08:37:26.000Z</time>
      </trkpt>
      <trkpt lat="48.12573" lon="6.40027">
        <ele>446.60000610352</ele>
        <time>2024-01-28T08:37:30.000Z</time>
      </trkpt>
      <trkpt lat="48.12571" lon="6.40017">
        <ele>446.39999389648</ele>
        <time>2024-01-28T08:37:34.000Z</time>
      </trkpt>
      <trkpt lat="48.1257" lon="6.40012">
        <ele>446.20001220703</ele>
        <time>2024-01-28T08:37:37.000Z</time>
      </trkpt>
      <trkpt lat="48.12569" lon="6.40007">
        <ele>446.20001220703</ele>
        <time>2024-01-28T08:37:39.000Z</time>
      </trkpt>
      <trkpt lat="48.12567" lon="6.39998">
        <ele>446</ele>
        <time>2024-01-28T08:37:43.000Z</time>
      </trkpt>
      <trkpt lat="48.12567" lon="6.39992">
        <ele>445.79998779297</ele>
        <time>2024-01-28T08:37:47.000Z</time>
      </trkpt>
      <trkpt lat="48.12566" lon="6.39987">
        <ele>445.79998779297</ele>
        <time>2024-01-28T08:37:50.000Z</time>
      </trkpt>
      <trkpt lat="48.12564" lon="6.39979">
        <ele>445.60000610352</ele>
        <time>2024-01-28T08:37:54.000Z</time>
      </trkpt>
      <trkpt lat="48.12557" lon="6.39964">
        <ele>445.39999389648</ele>
        <time>2024-01-28T08:38:02.000Z</time>
      </trkpt>
      <trkpt lat="48.12556" lon="6.3996">
        <ele>445.20001220703</ele>
        <time>2024-01-28T08:38:04.000Z</time>
      </trkpt>
      <trkpt lat="48.12562" lon="6.39945">
        <ele>444.79998779297</ele>
        <time>2024-01-28T08:38:12.000Z</time>
      </trkpt>
      <trkpt lat="48.12563" lon="6.39941">
        <ele>444.79998779297</ele>
        <time>2024-01-28T08:38:15.000Z</time>
      </trkpt>
      <trkpt lat="48.12565" lon="6.39938">
        <ele>444.79998779297</ele>
        <time>2024-01-28T08:38:17.000Z</time>
      </trkpt>
      <trkpt lat="48.12566" lon="6.39937">
        <ele>444.60000610352</ele>
        <time>2024-01-28T08:38:18.000Z</time>
      </trkpt>
      <trkpt lat="48.12573" lon="6.39938">
        <ele>444.60000610352</ele>
        <time>2024-01-28T08:38:24.000Z</time>
      </trkpt>
      <trkpt lat="48.12586" lon="6.39935">
        <ele>444.60000610352</ele>
        <time>2024-01-28T08:38:33.000Z</time>
      </trkpt>
      <trkpt lat="48.12599" lon="6.39932">
        <ele>444.79998779297</ele>
        <time>2024-01-28T08:38:44.000Z</time>
      </trkpt>
      <trkpt lat="48.12605" lon="6.39929">
        <ele>445</ele>
        <time>2024-01-28T08:38:49.000Z</time>
      </trkpt>
      <trkpt lat="48.12611" lon="6.39925">
        <ele>445.20001220703</ele>
        <time>2024-01-28T08:38:54.000Z</time>
      </trkpt>
      <trkpt lat="48.12617" lon="6.39918">
        <ele>445.79998779297</ele>
        <time>2024-01-28T08:39:00.000Z</time>
      </trkpt>
      <trkpt lat="48.12619" lon="6.39916">
        <ele>446</ele>
        <time>2024-01-28T08:39:03.000Z</time>
      </trkpt>
      <trkpt lat="48.12626" lon="6.39911">
        <ele>446.39999389648</ele>
        <time>2024-01-28T08:39:09.000Z</time>
      </trkpt>
      <trkpt lat="48.12631" lon="6.39907">
        <ele>446.60000610352</ele>
        <time>2024-01-28T08:39:13.000Z</time>
      </trkpt>
      <trkpt lat="48.12635" lon="6.39903">
        <ele>446.79998779297</ele>
        <time>2024-01-28T08:39:17.000Z</time>
      </trkpt>
      <trkpt lat="48.12641" lon="6.39894">
        <ele>447.20001220703</ele>
        <time>2024-01-28T08:39:23.000Z</time>
      </trkpt>
      <trkpt lat="48.12654" lon="6.39879">
        <ele>447.60000610352</ele>
        <time>2024-01-28T08:39:34.000Z</time>
      </trkpt>
      <trkpt lat="48.1266" lon="6.39877">
        <ele>447.79998779297</ele>
        <time>2024-01-28T08:39:38.000Z</time>
      </trkpt>
      <trkpt lat="48.12664" lon="6.39877">
        <ele>447.79998779297</ele>
        <time>2024-01-28T08:39:41.000Z</time>
      </trkpt>
      <trkpt lat="48.12665" lon="6.39877">
        <ele>447.79998779297</ele>
        <time>2024-01-28T08:39:42.000Z</time>
      </trkpt>
      <trkpt lat="48.12668" lon="6.39877">
        <ele>447.79998779297</ele>
        <time>2024-01-28T08:39:45.000Z</time>
      </trkpt>
      <trkpt lat="48.12672" lon="6.39878">
        <ele>447.79998779297</ele>
        <time>2024-01-28T08:39:48.000Z</time>
      </trkpt>
      <trkpt lat="48.12676" lon="6.39879">
        <ele>447.79998779297</ele>
        <time>2024-01-28T08:39:51.000Z</time>
      </trkpt>
      <trkpt lat="48.12685" lon="6.39882">
        <ele>448.39999389648</ele>
        <time>2024-01-28T08:39:57.000Z</time>
      </trkpt>
      <trkpt lat="48.1269" lon="6.39883">
        <ele>448.60000610352</ele>
        <time>2024-01-28T08:40:02.000Z</time>
      </trkpt>
      <trkpt lat="48.12695" lon="6.39882">
        <ele>448.79998779297</ele>
        <time>2024-01-28T08:40:07.000Z</time>
      </trkpt>
      <trkpt lat="48.12696" lon="6.39882">
        <ele>448.79998779297</ele>
        <time>2024-01-28T08:40:08.000Z</time>
      </trkpt>
      <trkpt lat="48.12715" lon="6.39886">
        <ele>449.39999389648</ele>
        <time>2024-01-28T08:40:21.000Z</time>
      </trkpt>
      <trkpt lat="48.12716" lon="6.39887">
        <ele>449.39999389648</ele>
        <time>2024-01-28T08:40:22.000Z</time>
      </trkpt>
      <trkpt lat="48.12728" lon="6.3989">
        <ele>449.79998779297</ele>
        <time>2024-01-28T08:40:30.000Z</time>
      </trkpt>
      <trkpt lat="48.12729" lon="6.3989">
        <ele>449.79998779297</ele>
        <time>2024-01-28T08:40:31.000Z</time>
      </trkpt>
      <trkpt lat="48.12735" lon="6.39891">
        <ele>450</ele>
        <time>2024-01-28T08:40:37.000Z</time>
      </trkpt>
      <trkpt lat="48.1274" lon="6.39892">
        <ele>450.39999389648</ele>
        <time>2024-01-28T08:40:44.000Z</time>
      </trkpt>
      <trkpt lat="48.12747" lon="6.39892">
        <ele>450.60000610352</ele>
        <time>2024-01-28T08:40:49.000Z</time>
      </trkpt>
      <trkpt lat="48.1275" lon="6.39893">
        <ele>450.79998779297</ele>
        <time>2024-01-28T08:40:52.000Z</time>
      </trkpt>
      <trkpt lat="48.12752" lon="6.39894">
        <ele>451</ele>
        <time>2024-01-28T08:40:54.000Z</time>
      </trkpt>
      <trkpt lat="48.12763" lon="6.39899">
        <ele>452</ele>
        <time>2024-01-28T08:41:04.000Z</time>
      </trkpt>
      <trkpt lat="48.12773" lon="6.39903">
        <ele>452.60000610352</ele>
        <time>2024-01-28T08:41:11.000Z</time>
      </trkpt>
      <trkpt lat="48.12776" lon="6.39905">
        <ele>452.79998779297</ele>
        <time>2024-01-28T08:41:13.000Z</time>
      </trkpt>
      <trkpt lat="48.12779" lon="6.39906">
        <ele>453</ele>
        <time>2024-01-28T08:41:15.000Z</time>
      </trkpt>
      <trkpt lat="48.12784" lon="6.39909">
        <ele>453.39999389648</ele>
        <time>2024-01-28T08:41:21.000Z</time>
      </trkpt>
      <trkpt lat="48.12787" lon="6.39909">
        <ele>453.60000610352</ele>
        <time>2024-01-28T08:41:24.000Z</time>
      </trkpt>
      <trkpt lat="48.12792" lon="6.39912">
        <ele>454</ele>
        <time>2024-01-28T08:41:29.000Z</time>
      </trkpt>
      <trkpt lat="48.12794" lon="6.39913">
        <ele>454</ele>
        <time>2024-01-28T08:41:30.000Z</time>
      </trkpt>
      <trkpt lat="48.12801" lon="6.39915">
        <ele>454.39999389648</ele>
        <time>2024-01-28T08:41:36.000Z</time>
      </trkpt>
      <trkpt lat="48.12805" lon="6.39915">
        <ele>454.79998779297</ele>
        <time>2024-01-28T08:41:41.000Z</time>
      </trkpt>
      <trkpt lat="48.12808" lon="6.39915">
        <ele>455</ele>
        <time>2024-01-28T08:41:43.000Z</time>
      </trkpt>
      <trkpt lat="48.12811" lon="6.39915">
        <ele>455.20001220703</ele>
        <time>2024-01-28T08:41:45.000Z</time>
      </trkpt>
      <trkpt lat="48.12819" lon="6.39918">
        <ele>455.60000610352</ele>
        <time>2024-01-28T08:41:49.000Z</time>
      </trkpt>
      <trkpt lat="48.1282" lon="6.3992">
        <ele>455.79998779297</ele>
        <time>2024-01-28T08:41:50.000Z</time>
      </trkpt>
      <trkpt lat="48.12825" lon="6.39924">
        <ele>456.20001220703</ele>
        <time>2024-01-28T08:41:54.000Z</time>
      </trkpt>
      <trkpt lat="48.12829" lon="6.39927">
        <ele>456.60000610352</ele>
        <time>2024-01-28T08:41:58.000Z</time>
      </trkpt>
      <trkpt lat="48.1284" lon="6.39937">
        <ele>457.20001220703</ele>
        <time>2024-01-28T08:42:05.000Z</time>
      </trkpt>
      <trkpt lat="48.12847" lon="6.39943">
        <ele>458</ele>
        <time>2024-01-28T08:42:12.000Z</time>
      </trkpt>
      <trkpt lat="48.1285" lon="6.39945">
        <ele>458.20001220703</ele>
        <time>2024-01-28T08:42:15.000Z</time>
      </trkpt>
      <trkpt lat="48.12852" lon="6.39947">
        <ele>458.60000610352</ele>
        <time>2024-01-28T08:42:18.000Z</time>
      </trkpt>
      <trkpt lat="48.12853" lon="6.39948">
        <ele>458.60000610352</ele>
        <time>2024-01-28T08:42:19.000Z</time>
      </trkpt>
      <trkpt lat="48.12859" lon="6.39955">
        <ele>459.20001220703</ele>
        <time>2024-01-28T08:42:25.000Z</time>
      </trkpt>
      <trkpt lat="48.1286" lon="6.39956">
        <ele>459.39999389648</ele>
        <time>2024-01-28T08:42:27.000Z</time>
      </trkpt>
      <trkpt lat="48.1286" lon="6.39955">
        <ele>459.60000610352</ele>
        <time>2024-01-28T08:42:30.000Z</time>
      </trkpt>
      <trkpt lat="48.12861" lon="6.39954">
        <ele>459.79998779297</ele>
        <time>2024-01-28T08:42:33.000Z</time>
      </trkpt>
      <trkpt lat="48.12859" lon="6.39946">
        <ele>459.60000610352</ele>
        <time>2024-01-28T08:42:42.000Z</time>
      </trkpt>
      <trkpt lat="48.12856" lon="6.39936">
        <ele>458.60000610352</ele>
        <time>2024-01-28T08:42:48.000Z</time>
      </trkpt>
      <trkpt lat="48.12855" lon="6.39934">
        <ele>458.20001220703</ele>
        <time>2024-01-28T08:42:49.000Z</time>
      </trkpt>
      <trkpt lat="48.12854" lon="6.39932">
        <ele>458</ele>
        <time>2024-01-28T08:42:50.000Z</time>
      </trkpt>
      <trkpt lat="48.12853" lon="6.39928">
        <ele>457.60000610352</ele>
        <time>2024-01-28T08:42:52.000Z</time>
      </trkpt>
      <trkpt lat="48.12853" lon="6.3992">
        <ele>457</ele>
        <time>2024-01-28T08:42:56.000Z</time>
      </trkpt>
      <trkpt lat="48.12852" lon="6.39918">
        <ele>456.60000610352</ele>
        <time>2024-01-28T08:42:57.000Z</time>
      </trkpt>
      <trkpt lat="48.12851" lon="6.39912">
        <ele>455.79998779297</ele>
        <time>2024-01-28T08:43:01.000Z</time>
      </trkpt>
      <trkpt lat="48.12851" lon="6.39911">
        <ele>455.79998779297</ele>
        <time>2024-01-28T08:43:02.000Z</time>
      </trkpt>
      <trkpt lat="48.12849" lon="6.39903">
        <ele>455.20001220703</ele>
        <time>2024-01-28T08:43:06.000Z</time>
      </trkpt>
      <trkpt lat="48.12847" lon="6.39895">
        <ele>455</ele>
        <time>2024-01-28T08:43:10.000Z</time>
      </trkpt>
      <trkpt lat="48.12847" lon="6.39892">
        <ele>454.79998779297</ele>
        <time>2024-01-28T08:43:11.000Z</time>
      </trkpt>
      <trkpt lat="48.12846" lon="6.39887">
        <ele>454.39999389648</ele>
        <time>2024-01-28T08:43:14.000Z</time>
      </trkpt>
      <trkpt lat="48.12845" lon="6.39879">
        <ele>453.79998779297</ele>
        <time>2024-01-28T08:43:18.000Z</time>
      </trkpt>
      <trkpt lat="48.12845" lon="6.39876">
        <ele>453.39999389648</ele>
        <time>2024-01-28T08:43:20.000Z</time>
      </trkpt>
      <trkpt lat="48.12843" lon="6.39872">
        <ele>452.60000610352</ele>
        <time>2024-01-28T08:43:23.000Z</time>
      </trkpt>
      <trkpt lat="48.1284" lon="6.39863">
        <ele>451.79998779297</ele>
        <time>2024-01-28T08:43:28.000Z</time>
      </trkpt>
      <trkpt lat="48.1284" lon="6.3986">
        <ele>451.60000610352</ele>
        <time>2024-01-28T08:43:29.000Z</time>
      </trkpt>
      <trkpt lat="48.12839" lon="6.39854">
        <ele>450.79998779297</ele>
        <time>2024-01-28T08:43:33.000Z</time>
      </trkpt>
      <trkpt lat="48.12838" lon="6.39853">
        <ele>450.60000610352</ele>
        <time>2024-01-28T08:43:34.000Z</time>
      </trkpt>
      <trkpt lat="48.12837" lon="6.39851">
        <ele>450.39999389648</ele>
        <time>2024-01-28T08:43:35.000Z</time>
      </trkpt>
      <trkpt lat="48.12833" lon="6.3984">
        <ele>449.60000610352</ele>
        <time>2024-01-28T08:43:43.000Z</time>
      </trkpt>
      <trkpt lat="48.12833" lon="6.39837">
        <ele>449.60000610352</ele>
        <time>2024-01-28T08:43:44.000Z</time>
      </trkpt>
      <trkpt lat="48.12832" lon="6.39833">
        <ele>449.39999389648</ele>
        <time>2024-01-28T08:43:46.000Z</time>
      </trkpt>
      <trkpt lat="48.12828" lon="6.39824">
        <ele>448.79998779297</ele>
        <time>2024-01-28T08:43:51.000Z</time>
      </trkpt>
      <trkpt lat="48.12826" lon="6.39817">
        <ele>448.60000610352</ele>
        <time>2024-01-28T08:43:57.000Z</time>
      </trkpt>
      <trkpt lat="48.12826" lon="6.39806">
        <ele>448.39999389648</ele>
        <time>2024-01-28T08:44:05.000Z</time>
      </trkpt>
      <trkpt lat="48.12827" lon="6.39804">
        <ele>448.20001220703</ele>
        <time>2024-01-28T08:44:07.000Z</time>
      </trkpt>
      <trkpt lat="48.12827" lon="6.39797">
        <ele>448.20001220703</ele>
        <time>2024-01-28T08:44:15.000Z</time>
      </trkpt>
      <trkpt lat="48.12825" lon="6.39781">
        <ele>448.39999389648</ele>
        <time>2024-01-28T08:44:22.000Z</time>
      </trkpt>
      <trkpt lat="48.12824" lon="6.39778">
        <ele>448.39999389648</ele>
        <time>2024-01-28T08:44:24.000Z</time>
      </trkpt>
      <trkpt lat="48.12824" lon="6.39774">
        <ele>448.39999389648</ele>
        <time>2024-01-28T08:44:26.000Z</time>
      </trkpt>
      <trkpt lat="48.12823" lon="6.3977">
        <ele>448.39999389648</ele>
        <time>2024-01-28T08:44:29.000Z</time>
      </trkpt>
      <trkpt lat="48.12818" lon="6.39762">
        <ele>448.39999389648</ele>
        <time>2024-01-28T08:44:36.000Z</time>
      </trkpt>
      <trkpt lat="48.12817" lon="6.39751">
        <ele>448.60000610352</ele>
        <time>2024-01-28T08:44:43.000Z</time>
      </trkpt>
      <trkpt lat="48.12819" lon="6.39747">
        <ele>449</ele>
        <time>2024-01-28T08:44:48.000Z</time>
      </trkpt>
      <trkpt lat="48.12819" lon="6.39747">
        <ele>449</ele>
        <time>2024-01-28T08:44:49.000Z</time>
      </trkpt>
      <trkpt lat="48.12819" lon="6.39743">
        <ele>449.20001220703</ele>
        <time>2024-01-28T08:44:52.000Z</time>
      </trkpt>
      <trkpt lat="48.12818" lon="6.39738">
        <ele>449.39999389648</ele>
        <time>2024-01-28T08:44:56.000Z</time>
      </trkpt>
      <trkpt lat="48.12818" lon="6.39736">
        <ele>449.79998779297</ele>
        <time>2024-01-28T08:44:58.000Z</time>
      </trkpt>
      <trkpt lat="48.12818" lon="6.39734">
        <ele>450.39999389648</ele>
        <time>2024-01-28T08:45:01.000Z</time>
      </trkpt>
      <trkpt lat="48.12818" lon="6.39732">
        <ele>450.79998779297</ele>
        <time>2024-01-28T08:45:02.000Z</time>
      </trkpt>
      <trkpt lat="48.12818" lon="6.39731">
        <ele>451</ele>
        <time>2024-01-28T08:45:03.000Z</time>
      </trkpt>
      <trkpt lat="48.12818" lon="6.39727">
        <ele>451.39999389648</ele>
        <time>2024-01-28T08:45:05.000Z</time>
      </trkpt>
      <trkpt lat="48.12817" lon="6.39726">
        <ele>451.79998779297</ele>
        <time>2024-01-28T08:45:06.000Z</time>
      </trkpt>
      <trkpt lat="48.12818" lon="6.39724">
        <ele>452.39999389648</ele>
        <time>2024-01-28T08:45:08.000Z</time>
      </trkpt>
      <trkpt lat="48.12818" lon="6.39723">
        <ele>452.60000610352</ele>
        <time>2024-01-28T08:45:09.000Z</time>
      </trkpt>
      <trkpt lat="48.12816" lon="6.3972">
        <ele>453.20001220703</ele>
        <time>2024-01-28T08:45:12.000Z</time>
      </trkpt>
      <trkpt lat="48.12815" lon="6.39717">
        <ele>453.79998779297</ele>
        <time>2024-01-28T08:45:14.000Z</time>
      </trkpt>
      <trkpt lat="48.12814" lon="6.39713">
        <ele>454.39999389648</ele>
        <time>2024-01-28T08:45:16.000Z</time>
      </trkpt>
      <trkpt lat="48.12814" lon="6.39712">
        <ele>454.60000610352</ele>
        <time>2024-01-28T08:45:17.000Z</time>
      </trkpt>
      <trkpt lat="48.12813" lon="6.3971">
        <ele>454.79998779297</ele>
        <time>2024-01-28T08:45:18.000Z</time>
      </trkpt>
      <trkpt lat="48.12814" lon="6.39704">
        <ele>455.79998779297</ele>
        <time>2024-01-28T08:45:22.000Z</time>
      </trkpt>
      <trkpt lat="48.12814" lon="6.39703">
        <ele>456</ele>
        <time>2024-01-28T08:45:23.000Z</time>
      </trkpt>
      <trkpt lat="48.12812" lon="6.39701">
        <ele>456.39999389648</ele>
        <time>2024-01-28T08:45:25.000Z</time>
      </trkpt>
      <trkpt lat="48.12811" lon="6.39699">
        <ele>457</ele>
        <time>2024-01-28T08:45:28.000Z</time>
      </trkpt>
      <trkpt lat="48.1281" lon="6.39696">
        <ele>457.39999389648</ele>
        <time>2024-01-28T08:45:30.000Z</time>
      </trkpt>
      <trkpt lat="48.1281" lon="6.39693">
        <ele>458</ele>
        <time>2024-01-28T08:45:32.000Z</time>
      </trkpt>
      <trkpt lat="48.12808" lon="6.39687">
        <ele>459.20001220703</ele>
        <time>2024-01-28T08:45:37.000Z</time>
      </trkpt>
      <trkpt lat="48.12808" lon="6.39686">
        <ele>459.39999389648</ele>
        <time>2024-01-28T08:45:38.000Z</time>
      </trkpt>
      <trkpt lat="48.12807" lon="6.39679">
        <ele>460.20001220703</ele>
        <time>2024-01-28T08:45:45.000Z</time>
      </trkpt>
      <trkpt lat="48.12806" lon="6.39677">
        <ele>460.20001220703</ele>
        <time>2024-01-28T08:45:46.000Z</time>
      </trkpt>
      <trkpt lat="48.12805" lon="6.39668">
        <ele>461.20001220703</ele>
        <time>2024-01-28T08:45:52.000Z</time>
      </trkpt>
      <trkpt lat="48.12805" lon="6.39668">
        <ele>461.39999389648</ele>
        <time>2024-01-28T08:45:53.000Z</time>
      </trkpt>
      <trkpt lat="48.12801" lon="6.39663">
        <ele>462</ele>
        <time>2024-01-28T08:45:59.000Z</time>
      </trkpt>
      <trkpt lat="48.128" lon="6.39657">
        <ele>462.39999389648</ele>
        <time>2024-01-28T08:46:03.000Z</time>
      </trkpt>
      <trkpt lat="48.128" lon="6.39651">
        <ele>462.79998779297</ele>
        <time>2024-01-28T08:46:06.000Z</time>
      </trkpt>
      <trkpt lat="48.12798" lon="6.39644">
        <ele>463.20001220703</ele>
        <time>2024-01-28T08:46:10.000Z</time>
      </trkpt>
      <trkpt lat="48.12798" lon="6.39643">
        <ele>463.20001220703</ele>
        <time>2024-01-28T08:46:11.000Z</time>
      </trkpt>
      <trkpt lat="48.12797" lon="6.39642">
        <ele>463.39999389648</ele>
        <time>2024-01-28T08:46:13.000Z</time>
      </trkpt>
      <trkpt lat="48.12796" lon="6.39639">
        <ele>463.60000610352</ele>
        <time>2024-01-28T08:46:15.000Z</time>
      </trkpt>
      <trkpt lat="48.12796" lon="6.39632">
        <ele>464.20001220703</ele>
        <time>2024-01-28T08:46:20.000Z</time>
      </trkpt>
      <trkpt lat="48.12796" lon="6.39631">
        <ele>464.20001220703</ele>
        <time>2024-01-28T08:46:21.000Z</time>
      </trkpt>
      <trkpt lat="48.12795" lon="6.39627">
        <ele>464.60000610352</ele>
        <time>2024-01-28T08:46:23.000Z</time>
      </trkpt>
      <trkpt lat="48.12794" lon="6.39622">
        <ele>465</ele>
        <time>2024-01-28T08:46:27.000Z</time>
      </trkpt>
      <trkpt lat="48.12793" lon="6.39611">
        <ele>465.39999389648</ele>
        <time>2024-01-28T08:46:34.000Z</time>
      </trkpt>
      <trkpt lat="48.12793" lon="6.39609">
        <ele>465.60000610352</ele>
        <time>2024-01-28T08:46:40.000Z</time>
      </trkpt>
      <trkpt lat="48.12792" lon="6.39608">
        <ele>465.79998779297</ele>
        <time>2024-01-28T08:46:41.000Z</time>
      </trkpt>
      <trkpt lat="48.12791" lon="6.39603">
        <ele>466</ele>
        <time>2024-01-28T08:46:44.000Z</time>
      </trkpt>
      <trkpt lat="48.1279" lon="6.39598">
        <ele>466.20001220703</ele>
        <time>2024-01-28T08:46:48.000Z</time>
      </trkpt>
      <trkpt lat="48.1279" lon="6.39594">
        <ele>466.60000610352</ele>
        <time>2024-01-28T08:46:51.000Z</time>
      </trkpt>
      <trkpt lat="48.12789" lon="6.39589">
        <ele>466.79998779297</ele>
        <time>2024-01-28T08:46:55.000Z</time>
      </trkpt>
      <trkpt lat="48.12787" lon="6.39579">
        <ele>467.39999389648</ele>
        <time>2024-01-28T08:47:01.000Z</time>
      </trkpt>
      <trkpt lat="48.12787" lon="6.39578">
        <ele>467.39999389648</ele>
        <time>2024-01-28T08:47:02.000Z</time>
      </trkpt>
      <trkpt lat="48.12786" lon="6.39573">
        <ele>467.39999389648</ele>
        <time>2024-01-28T08:47:04.000Z</time>
      </trkpt>
      <trkpt lat="48.12782" lon="6.39563">
        <ele>467.20001220703</ele>
        <time>2024-01-28T08:47:10.000Z</time>
      </trkpt>
      <trkpt lat="48.12781" lon="6.39546">
        <ele>466.79998779297</ele>
        <time>2024-01-28T08:47:18.000Z</time>
      </trkpt>
      <trkpt lat="48.12781" lon="6.39541">
        <ele>466.79998779297</ele>
        <time>2024-01-28T08:47:20.000Z</time>
      </trkpt>
      <trkpt lat="48.1278" lon="6.39531">
        <ele>466.79998779297</ele>
        <time>2024-01-28T08:47:25.000Z</time>
      </trkpt>
      <trkpt lat="48.1278" lon="6.39527">
        <ele>466.79998779297</ele>
        <time>2024-01-28T08:47:28.000Z</time>
      </trkpt>
      <trkpt lat="48.12779" lon="6.3951">
        <ele>466.79998779297</ele>
        <time>2024-01-28T08:47:35.000Z</time>
      </trkpt>
      <trkpt lat="48.12777" lon="6.39497">
        <ele>466.60000610352</ele>
        <time>2024-01-28T08:47:43.000Z</time>
      </trkpt>
      <trkpt lat="48.12775" lon="6.39491">
        <ele>466.39999389648</ele>
        <time>2024-01-28T08:47:47.000Z</time>
      </trkpt>
      <trkpt lat="48.12774" lon="6.39488">
        <ele>466.39999389648</ele>
        <time>2024-01-28T08:47:49.000Z</time>
      </trkpt>
      <trkpt lat="48.12773" lon="6.39483">
        <ele>466.20001220703</ele>
        <time>2024-01-28T08:47:52.000Z</time>
      </trkpt>
      <trkpt lat="48.12771" lon="6.39475">
        <ele>466</ele>
        <time>2024-01-28T08:47:57.000Z</time>
      </trkpt>
      <trkpt lat="48.1277" lon="6.39472">
        <ele>466</ele>
        <time>2024-01-28T08:47:59.000Z</time>
      </trkpt>
      <trkpt lat="48.12768" lon="6.39463">
        <ele>465.60000610352</ele>
        <time>2024-01-28T08:48:04.000Z</time>
      </trkpt>
      <trkpt lat="48.12768" lon="6.3946">
        <ele>465.39999389648</ele>
        <time>2024-01-28T08:48:06.000Z</time>
      </trkpt>
      <trkpt lat="48.12769" lon="6.39459">
        <ele>465.20001220703</ele>
        <time>2024-01-28T08:48:07.000Z</time>
      </trkpt>
      <trkpt lat="48.12767" lon="6.39453">
        <ele>464.79998779297</ele>
        <time>2024-01-28T08:48:10.000Z</time>
      </trkpt>
      <trkpt lat="48.12765" lon="6.39447">
        <ele>464.60000610352</ele>
        <time>2024-01-28T08:48:13.000Z</time>
      </trkpt>
      <trkpt lat="48.12764" lon="6.39445">
        <ele>464.60000610352</ele>
        <time>2024-01-28T08:48:14.000Z</time>
      </trkpt>
      <trkpt lat="48.12765" lon="6.39441">
        <ele>464.20001220703</ele>
        <time>2024-01-28T08:48:16.000Z</time>
      </trkpt>
      <trkpt lat="48.12767" lon="6.39434">
        <ele>464</ele>
        <time>2024-01-28T08:48:20.000Z</time>
      </trkpt>
      <trkpt lat="48.12766" lon="6.39432">
        <ele>463.79998779297</ele>
        <time>2024-01-28T08:48:21.000Z</time>
      </trkpt>
      <trkpt lat="48.12765" lon="6.39425">
        <ele>463.39999389648</ele>
        <time>2024-01-28T08:48:24.000Z</time>
      </trkpt>
      <trkpt lat="48.12765" lon="6.39415">
        <ele>462.60000610352</ele>
        <time>2024-01-28T08:48:30.000Z</time>
      </trkpt>
      <trkpt lat="48.12765" lon="6.39412">
        <ele>462.39999389648</ele>
        <time>2024-01-28T08:48:32.000Z</time>
      </trkpt>
      <trkpt lat="48.12766" lon="6.39405">
        <ele>461.39999389648</ele>
        <time>2024-01-28T08:48:37.000Z</time>
      </trkpt>
      <trkpt lat="48.12765" lon="6.39403">
        <ele>461</ele>
        <time>2024-01-28T08:48:38.000Z</time>
      </trkpt>
      <trkpt lat="48.12764" lon="6.39399">
        <ele>460</ele>
        <time>2024-01-28T08:48:42.000Z</time>
      </trkpt>
      <trkpt lat="48.12765" lon="6.39398">
        <ele>459.60000610352</ele>
        <time>2024-01-28T08:48:44.000Z</time>
      </trkpt>
      <trkpt lat="48.12763" lon="6.39392">
        <ele>459</ele>
        <time>2024-01-28T08:48:46.000Z</time>
      </trkpt>
      <trkpt lat="48.12762" lon="6.3939">
        <ele>458.79998779297</ele>
        <time>2024-01-28T08:48:47.000Z</time>
      </trkpt>
      <trkpt lat="48.1276" lon="6.39383">
        <ele>458.20001220703</ele>
        <time>2024-01-28T08:48:49.000Z</time>
      </trkpt>
      <trkpt lat="48.12761" lon="6.39381">
        <ele>458</ele>
        <time>2024-01-28T08:48:50.000Z</time>
      </trkpt>
      <trkpt lat="48.12762" lon="6.39379">
        <ele>457.60000610352</ele>
        <time>2024-01-28T08:48:51.000Z</time>
      </trkpt>
      <trkpt lat="48.12764" lon="6.39376">
        <ele>457</ele>
        <time>2024-01-28T08:48:54.000Z</time>
      </trkpt>
      <trkpt lat="48.12764" lon="6.39371">
        <ele>456</ele>
        <time>2024-01-28T08:48:58.000Z</time>
      </trkpt>
      <trkpt lat="48.12764" lon="6.39369">
        <ele>455.60000610352</ele>
        <time>2024-01-28T08:48:59.000Z</time>
      </trkpt>
      <trkpt lat="48.12765" lon="6.39362">
        <ele>454.39999389648</ele>
        <time>2024-01-28T08:49:03.000Z</time>
      </trkpt>
      <trkpt lat="48.12765" lon="6.39358">
        <ele>453.79998779297</ele>
        <time>2024-01-28T08:49:06.000Z</time>
      </trkpt>
      <trkpt lat="48.12766" lon="6.39356">
        <ele>453.39999389648</ele>
        <time>2024-01-28T08:49:08.000Z</time>
      </trkpt>
      <trkpt lat="48.12766" lon="6.39349">
        <ele>452.60000610352</ele>
        <time>2024-01-28T08:49:13.000Z</time>
      </trkpt>
      <trkpt lat="48.12766" lon="6.39345">
        <ele>452.39999389648</ele>
        <time>2024-01-28T08:49:15.000Z</time>
      </trkpt>
      <trkpt lat="48.12764" lon="6.39343">
        <ele>451.79998779297</ele>
        <time>2024-01-28T08:49:18.000Z</time>
      </trkpt>
      <trkpt lat="48.12763" lon="6.39332">
        <ele>451.39999389648</ele>
        <time>2024-01-28T08:49:25.000Z</time>
      </trkpt>
      <trkpt lat="48.12759" lon="6.39319">
        <ele>451.20001220703</ele>
        <time>2024-01-28T08:49:30.000Z</time>
      </trkpt>
      <trkpt lat="48.12759" lon="6.39317">
        <ele>451.20001220703</ele>
        <time>2024-01-28T08:49:31.000Z</time>
      </trkpt>
      <trkpt lat="48.1276" lon="6.39307">
        <ele>450.79998779297</ele>
        <time>2024-01-28T08:49:35.000Z</time>
      </trkpt>
      <trkpt lat="48.1276" lon="6.39302">
        <ele>450.39999389648</ele>
        <time>2024-01-28T08:49:37.000Z</time>
      </trkpt>
      <trkpt lat="48.12761" lon="6.39296">
        <ele>450.20001220703</ele>
        <time>2024-01-28T08:49:40.000Z</time>
      </trkpt>
      <trkpt lat="48.12761" lon="6.39294">
        <ele>450.20001220703</ele>
        <time>2024-01-28T08:49:41.000Z</time>
      </trkpt>
      <trkpt lat="48.12761" lon="6.39289">
        <ele>449.79998779297</ele>
        <time>2024-01-28T08:49:44.000Z</time>
      </trkpt>
      <trkpt lat="48.12764" lon="6.39284">
        <ele>449.20001220703</ele>
        <time>2024-01-28T08:49:48.000Z</time>
      </trkpt>
      <trkpt lat="48.12762" lon="6.3928">
        <ele>449</ele>
        <time>2024-01-28T08:49:50.000Z</time>
      </trkpt>
      <trkpt lat="48.12762" lon="6.39278">
        <ele>449</ele>
        <time>2024-01-28T08:49:51.000Z</time>
      </trkpt>
      <trkpt lat="48.12761" lon="6.39274">
        <ele>449</ele>
        <time>2024-01-28T08:49:53.000Z</time>
      </trkpt>
      <trkpt lat="48.12762" lon="6.39271">
        <ele>448.79998779297</ele>
        <time>2024-01-28T08:49:55.000Z</time>
      </trkpt>
      <trkpt lat="48.12761" lon="6.39269">
        <ele>448.79998779297</ele>
        <time>2024-01-28T08:49:56.000Z</time>
      </trkpt>
      <trkpt lat="48.12763" lon="6.39256">
        <ele>448.79998779297</ele>
        <time>2024-01-28T08:50:03.000Z</time>
      </trkpt>
      <trkpt lat="48.12763" lon="6.39252">
        <ele>448.79998779297</ele>
        <time>2024-01-28T08:50:05.000Z</time>
      </trkpt>
      <trkpt lat="48.12763" lon="6.39251">
        <ele>448.79998779297</ele>
        <time>2024-01-28T08:50:06.000Z</time>
      </trkpt>
      <trkpt lat="48.12762" lon="6.39246">
        <ele>449</ele>
        <time>2024-01-28T08:50:09.000Z</time>
      </trkpt>
      <trkpt lat="48.12763" lon="6.39244">
        <ele>449</ele>
        <time>2024-01-28T08:50:11.000Z</time>
      </trkpt>
      <trkpt lat="48.12762" lon="6.39241">
        <ele>449.20001220703</ele>
        <time>2024-01-28T08:50:13.000Z</time>
      </trkpt>
      <trkpt lat="48.12763" lon="6.39239">
        <ele>449.20001220703</ele>
        <time>2024-01-28T08:50:19.000Z</time>
      </trkpt>
      <trkpt lat="48.12763" lon="6.39239">
        <ele>449.20001220703</ele>
        <time>2024-01-28T08:50:20.000Z</time>
      </trkpt>
      <trkpt lat="48.12771" lon="6.3924">
        <ele>449.60000610352</ele>
        <time>2024-01-28T08:50:29.000Z</time>
      </trkpt>
      <trkpt lat="48.12774" lon="6.39238">
        <ele>449.79998779297</ele>
        <time>2024-01-28T08:50:32.000Z</time>
      </trkpt>
      <trkpt lat="48.12775" lon="6.39237">
        <ele>450</ele>
        <time>2024-01-28T08:50:33.000Z</time>
      </trkpt>
      <trkpt lat="48.12776" lon="6.39235">
        <ele>450</ele>
        <time>2024-01-28T08:50:35.000Z</time>
      </trkpt>
      <trkpt lat="48.12776" lon="6.39231">
        <ele>450.20001220703</ele>
        <time>2024-01-28T08:50:40.000Z</time>
      </trkpt>
      <trkpt lat="48.12776" lon="6.3923">
        <ele>450.20001220703</ele>
        <time>2024-01-28T08:50:41.000Z</time>
      </trkpt>
      <trkpt lat="48.12774" lon="6.39219">
        <ele>450.39999389648</ele>
        <time>2024-01-28T08:50:50.000Z</time>
      </trkpt>
      <trkpt lat="48.12775" lon="6.39214">
        <ele>450.60000610352</ele>
        <time>2024-01-28T08:50:53.000Z</time>
      </trkpt>
      <trkpt lat="48.12777" lon="6.39208">
        <ele>450.60000610352</ele>
        <time>2024-01-28T08:50:57.000Z</time>
      </trkpt>
      <trkpt lat="48.12779" lon="6.39198">
        <ele>451</ele>
        <time>2024-01-28T08:51:02.000Z</time>
      </trkpt>
      <trkpt lat="48.1278" lon="6.39192">
        <ele>451</ele>
        <time>2024-01-28T08:51:06.000Z</time>
      </trkpt>
      <trkpt lat="48.12777" lon="6.3919">
        <ele>450.79998779297</ele>
        <time>2024-01-28T08:51:12.000Z</time>
      </trkpt>
      <trkpt lat="48.12776" lon="6.39189">
        <ele>450.79998779297</ele>
        <time>2024-01-28T08:51:13.000Z</time>
      </trkpt>
      <trkpt lat="48.12768" lon="6.39187">
        <ele>450.20001220703</ele>
        <time>2024-01-28T08:51:21.000Z</time>
      </trkpt>
      <trkpt lat="48.12767" lon="6.39185">
        <ele>450</ele>
        <time>2024-01-28T08:51:22.000Z</time>
      </trkpt>
      <trkpt lat="48.12766" lon="6.39176">
        <ele>450</ele>
        <time>2024-01-28T08:51:26.000Z</time>
      </trkpt>
      <trkpt lat="48.12767" lon="6.39173">
        <ele>450</ele>
        <time>2024-01-28T08:51:28.000Z</time>
      </trkpt>
      <trkpt lat="48.12767" lon="6.39161">
        <ele>450.39999389648</ele>
        <time>2024-01-28T08:51:34.000Z</time>
      </trkpt>
      <trkpt lat="48.12767" lon="6.39142">
        <ele>450.39999389648</ele>
        <time>2024-01-28T08:51:43.000Z</time>
      </trkpt>
      <trkpt lat="48.12768" lon="6.3914">
        <ele>450.39999389648</ele>
        <time>2024-01-28T08:51:44.000Z</time>
      </trkpt>
      <trkpt lat="48.12769" lon="6.39137">
        <ele>450.39999389648</ele>
        <time>2024-01-28T08:51:46.000Z</time>
      </trkpt>
      <trkpt lat="48.1277" lon="6.39134">
        <ele>450.60000610352</ele>
        <time>2024-01-28T08:51:49.000Z</time>
      </trkpt>
      <trkpt lat="48.12773" lon="6.39129">
        <ele>450.79998779297</ele>
        <time>2024-01-28T08:51:54.000Z</time>
      </trkpt>
      <trkpt lat="48.12775" lon="6.39127">
        <ele>450.79998779297</ele>
        <time>2024-01-28T08:51:56.000Z</time>
      </trkpt>
      <trkpt lat="48.12775" lon="6.39126">
        <ele>450.79998779297</ele>
        <time>2024-01-28T08:51:57.000Z</time>
      </trkpt>
      <trkpt lat="48.12776" lon="6.39124">
        <ele>451</ele>
        <time>2024-01-28T08:51:58.000Z</time>
      </trkpt>
      <trkpt lat="48.12776" lon="6.39117">
        <ele>450.79998779297</ele>
        <time>2024-01-28T08:52:01.000Z</time>
      </trkpt>
      <trkpt lat="48.12775" lon="6.39114">
        <ele>450.79998779297</ele>
        <time>2024-01-28T08:52:03.000Z</time>
      </trkpt>
      <trkpt lat="48.12774" lon="6.39106">
        <ele>450.79998779297</ele>
        <time>2024-01-28T08:52:08.000Z</time>
      </trkpt>
      <trkpt lat="48.12775" lon="6.39103">
        <ele>450.79998779297</ele>
        <time>2024-01-28T08:52:10.000Z</time>
      </trkpt>
      <trkpt lat="48.12774" lon="6.39102">
        <ele>450.79998779297</ele>
        <time>2024-01-28T08:52:12.000Z</time>
      </trkpt>
      <trkpt lat="48.12772" lon="6.391">
        <ele>450.60000610352</ele>
        <time>2024-01-28T08:52:14.000Z</time>
      </trkpt>
      <trkpt lat="48.12771" lon="6.39097">
        <ele>450.39999389648</ele>
        <time>2024-01-28T08:52:16.000Z</time>
      </trkpt>
      <trkpt lat="48.12771" lon="6.39091">
        <ele>450.39999389648</ele>
        <time>2024-01-28T08:52:19.000Z</time>
      </trkpt>
      <trkpt lat="48.12771" lon="6.39082">
        <ele>450.20001220703</ele>
        <time>2024-01-28T08:52:25.000Z</time>
      </trkpt>
      <trkpt lat="48.12771" lon="6.39079">
        <ele>450.20001220703</ele>
        <time>2024-01-28T08:52:27.000Z</time>
      </trkpt>
      <trkpt lat="48.12773" lon="6.39062">
        <ele>450.20001220703</ele>
        <time>2024-01-28T08:52:35.000Z</time>
      </trkpt>
      <trkpt lat="48.12773" lon="6.39059">
        <ele>450.20001220703</ele>
        <time>2024-01-28T08:52:37.000Z</time>
      </trkpt>
      <trkpt lat="48.12773" lon="6.39051">
        <ele>450</ele>
        <time>2024-01-28T08:52:42.000Z</time>
      </trkpt>
      <trkpt lat="48.12773" lon="6.39049">
        <ele>450</ele>
        <time>2024-01-28T08:52:43.000Z</time>
      </trkpt>
      <trkpt lat="48.12771" lon="6.39034">
        <ele>449.79998779297</ele>
        <time>2024-01-28T08:52:50.000Z</time>
      </trkpt>
      <trkpt lat="48.12771" lon="6.39019">
        <ele>449.39999389648</ele>
        <time>2024-01-28T08:52:58.000Z</time>
      </trkpt>
      <trkpt lat="48.12772" lon="6.39017">
        <ele>449.20001220703</ele>
        <time>2024-01-28T08:52:59.000Z</time>
      </trkpt>
      <trkpt lat="48.12772" lon="6.39015">
        <ele>449.20001220703</ele>
        <time>2024-01-28T08:53:00.000Z</time>
      </trkpt>
      <trkpt lat="48.12772" lon="6.39007">
        <ele>449</ele>
        <time>2024-01-28T08:53:04.000Z</time>
      </trkpt>
      <trkpt lat="48.12773" lon="6.39005">
        <ele>449</ele>
        <time>2024-01-28T08:53:05.000Z</time>
      </trkpt>
      <trkpt lat="48.12773" lon="6.39003">
        <ele>449</ele>
        <time>2024-01-28T08:53:06.000Z</time>
      </trkpt>
      <trkpt lat="48.12773" lon="6.39">
        <ele>448.79998779297</ele>
        <time>2024-01-28T08:53:08.000Z</time>
      </trkpt>
      <trkpt lat="48.12775" lon="6.38991">
        <ele>448.39999389648</ele>
        <time>2024-01-28T08:53:12.000Z</time>
      </trkpt>
      <trkpt lat="48.12776" lon="6.38985">
        <ele>448.20001220703</ele>
        <time>2024-01-28T08:53:14.000Z</time>
      </trkpt>
      <trkpt lat="48.12776" lon="6.38983">
        <ele>448.20001220703</ele>
        <time>2024-01-28T08:53:15.000Z</time>
      </trkpt>
      <trkpt lat="48.12774" lon="6.3897">
        <ele>447.60000610352</ele>
        <time>2024-01-28T08:53:22.000Z</time>
      </trkpt>
      <trkpt lat="48.12775" lon="6.3896">
        <ele>447</ele>
        <time>2024-01-28T08:53:26.000Z</time>
      </trkpt>
      <trkpt lat="48.12775" lon="6.38952">
        <ele>446.39999389648</ele>
        <time>2024-01-28T08:53:30.000Z</time>
      </trkpt>
      <trkpt lat="48.12775" lon="6.38946">
        <ele>446</ele>
        <time>2024-01-28T08:53:33.000Z</time>
      </trkpt>
      <trkpt lat="48.12778" lon="6.38937">
        <ele>444.79998779297</ele>
        <time>2024-01-28T08:53:38.000Z</time>
      </trkpt>
      <trkpt lat="48.12781" lon="6.38933">
        <ele>444.60000610352</ele>
        <time>2024-01-28T08:53:40.000Z</time>
      </trkpt>
      <trkpt lat="48.12788" lon="6.3893">
        <ele>444.60000610352</ele>
        <time>2024-01-28T08:53:44.000Z</time>
      </trkpt>
      <trkpt lat="48.12794" lon="6.3893">
        <ele>444.79998779297</ele>
        <time>2024-01-28T08:53:47.000Z</time>
      </trkpt>
      <trkpt lat="48.12799" lon="6.38929">
        <ele>445</ele>
        <time>2024-01-28T08:53:52.000Z</time>
      </trkpt>
      <trkpt lat="48.12806" lon="6.38926">
        <ele>445.20001220703</ele>
        <time>2024-01-28T08:53:58.000Z</time>
      </trkpt>
      <trkpt lat="48.12808" lon="6.38925">
        <ele>445.20001220703</ele>
        <time>2024-01-28T08:53:59.000Z</time>
      </trkpt>
      <trkpt lat="48.12815" lon="6.38925">
        <ele>445.39999389648</ele>
        <time>2024-01-28T08:54:07.000Z</time>
      </trkpt>
      <trkpt lat="48.12819" lon="6.38926">
        <ele>445.60000610352</ele>
        <time>2024-01-28T08:54:11.000Z</time>
      </trkpt>
      <trkpt lat="48.12825" lon="6.38927">
        <ele>445.60000610352</ele>
        <time>2024-01-28T08:54:15.000Z</time>
      </trkpt>
      <trkpt lat="48.12835" lon="6.38928">
        <ele>445.79998779297</ele>
        <time>2024-01-28T08:54:22.000Z</time>
      </trkpt>
      <trkpt lat="48.12837" lon="6.38927">
        <ele>445.79998779297</ele>
        <time>2024-01-28T08:54:23.000Z</time>
      </trkpt>
      <trkpt lat="48.12841" lon="6.38927">
        <ele>445.79998779297</ele>
        <time>2024-01-28T08:54:25.000Z</time>
      </trkpt>
      <trkpt lat="48.12843" lon="6.38927">
        <ele>446</ele>
        <time>2024-01-28T08:54:27.000Z</time>
      </trkpt>
      <trkpt lat="48.12849" lon="6.38926">
        <ele>446.20001220703</ele>
        <time>2024-01-28T08:54:31.000Z</time>
      </trkpt>
      <trkpt lat="48.12851" lon="6.38926">
        <ele>446.20001220703</ele>
        <time>2024-01-28T08:54:34.000Z</time>
      </trkpt>
      <trkpt lat="48.12857" lon="6.38928">
        <ele>446.60000610352</ele>
        <time>2024-01-28T08:54:39.000Z</time>
      </trkpt>
      <trkpt lat="48.1286" lon="6.38928">
        <ele>446.79998779297</ele>
        <time>2024-01-28T08:54:40.000Z</time>
      </trkpt>
      <trkpt lat="48.12872" lon="6.38935">
        <ele>447.20001220703</ele>
        <time>2024-01-28T08:54:48.000Z</time>
      </trkpt>
      <trkpt lat="48.12876" lon="6.38936">
        <ele>447.39999389648</ele>
        <time>2024-01-28T08:54:51.000Z</time>
      </trkpt>
      <trkpt lat="48.12883" lon="6.38935">
        <ele>447.60000610352</ele>
        <time>2024-01-28T08:54:56.000Z</time>
      </trkpt>
      <trkpt lat="48.12894" lon="6.38936">
        <ele>447.60000610352</ele>
        <time>2024-01-28T08:55:02.000Z</time>
      </trkpt>
      <trkpt lat="48.12904" lon="6.38936">
        <ele>447.79998779297</ele>
        <time>2024-01-28T08:55:07.000Z</time>
      </trkpt>
      <trkpt lat="48.12908" lon="6.38938">
        <ele>448.39999389648</ele>
        <time>2024-01-28T08:55:11.000Z</time>
      </trkpt>
      <trkpt lat="48.12917" lon="6.38938">
        <ele>448.79998779297</ele>
        <time>2024-01-28T08:55:20.000Z</time>
      </trkpt>
      <trkpt lat="48.12926" lon="6.3894">
        <ele>449.20001220703</ele>
        <time>2024-01-28T08:55:27.000Z</time>
      </trkpt>
      <trkpt lat="48.12932" lon="6.3894">
        <ele>449</ele>
        <time>2024-01-28T08:55:35.000Z</time>
      </trkpt>
      <trkpt lat="48.12942" lon="6.38943">
        <ele>449.39999389648</ele>
        <time>2024-01-28T08:55:42.000Z</time>
      </trkpt>
      <trkpt lat="48.12948" lon="6.38943">
        <ele>449.60000610352</ele>
        <time>2024-01-28T08:55:47.000Z</time>
      </trkpt>
      <trkpt lat="48.12953" lon="6.38943">
        <ele>449.79998779297</ele>
        <time>2024-01-28T08:55:53.000Z</time>
      </trkpt>
      <trkpt lat="48.12957" lon="6.38944">
        <ele>449.79998779297</ele>
        <time>2024-01-28T08:55:56.000Z</time>
      </trkpt>
      <trkpt lat="48.12959" lon="6.38945">
        <ele>449.79998779297</ele>
        <time>2024-01-28T08:55:57.000Z</time>
      </trkpt>
      <trkpt lat="48.12961" lon="6.38947">
        <ele>450</ele>
        <time>2024-01-28T08:55:59.000Z</time>
      </trkpt>
      <trkpt lat="48.12969" lon="6.38953">
        <ele>450</ele>
        <time>2024-01-28T08:56:07.000Z</time>
      </trkpt>
      <trkpt lat="48.12982" lon="6.38959">
        <ele>450.39999389648</ele>
        <time>2024-01-28T08:56:16.000Z</time>
      </trkpt>
      <trkpt lat="48.12993" lon="6.38964">
        <ele>450.79998779297</ele>
        <time>2024-01-28T08:56:24.000Z</time>
      </trkpt>
      <trkpt lat="48.12994" lon="6.38965">
        <ele>451</ele>
        <time>2024-01-28T08:56:25.000Z</time>
      </trkpt>
      <trkpt lat="48.13001" lon="6.38968">
        <ele>451.20001220703</ele>
        <time>2024-01-28T08:56:30.000Z</time>
      </trkpt>
      <trkpt lat="48.13006" lon="6.38971">
        <ele>451.39999389648</ele>
        <time>2024-01-28T08:56:35.000Z</time>
      </trkpt>
      <trkpt lat="48.13008" lon="6.38973">
        <ele>451.39999389648</ele>
        <time>2024-01-28T08:56:37.000Z</time>
      </trkpt>
      <trkpt lat="48.13008" lon="6.38975">
        <ele>451.60000610352</ele>
        <time>2024-01-28T08:56:38.000Z</time>
      </trkpt>
      <trkpt lat="48.1301" lon="6.38977">
        <ele>451.79998779297</ele>
        <time>2024-01-28T08:56:40.000Z</time>
      </trkpt>
      <trkpt lat="48.13012" lon="6.38979">
        <ele>451.79998779297</ele>
        <time>2024-01-28T08:56:42.000Z</time>
      </trkpt>
      <trkpt lat="48.13015" lon="6.38981">
        <ele>452</ele>
        <time>2024-01-28T08:56:44.000Z</time>
      </trkpt>
      <trkpt lat="48.13018" lon="6.38984">
        <ele>452.20001220703</ele>
        <time>2024-01-28T08:56:48.000Z</time>
      </trkpt>
      <trkpt lat="48.13024" lon="6.38988">
        <ele>452.79998779297</ele>
        <time>2024-01-28T08:56:54.000Z</time>
      </trkpt>
      <trkpt lat="48.13025" lon="6.38989">
        <ele>452.79998779297</ele>
        <time>2024-01-28T08:56:55.000Z</time>
      </trkpt>
      <trkpt lat="48.13027" lon="6.38991">
        <ele>453</ele>
        <time>2024-01-28T08:56:59.000Z</time>
      </trkpt>
      <trkpt lat="48.13029" lon="6.38991">
        <ele>453.20001220703</ele>
        <time>2024-01-28T08:57:00.000Z</time>
      </trkpt>
      <trkpt lat="48.13032" lon="6.38991">
        <ele>453.39999389648</ele>
        <time>2024-01-28T08:57:05.000Z</time>
      </trkpt>
      <trkpt lat="48.13037" lon="6.38993">
        <ele>453.60000610352</ele>
        <time>2024-01-28T08:57:11.000Z</time>
      </trkpt>
      <trkpt lat="48.13048" lon="6.39">
        <ele>454.20001220703</ele>
        <time>2024-01-28T08:57:19.000Z</time>
      </trkpt>
      <trkpt lat="48.13049" lon="6.39001">
        <ele>454.20001220703</ele>
        <time>2024-01-28T08:57:20.000Z</time>
      </trkpt>
      <trkpt lat="48.13061" lon="6.39008">
        <ele>454.60000610352</ele>
        <time>2024-01-28T08:57:29.000Z</time>
      </trkpt>
      <trkpt lat="48.13069" lon="6.39012">
        <ele>455</ele>
        <time>2024-01-28T08:57:35.000Z</time>
      </trkpt>
      <trkpt lat="48.13071" lon="6.39015">
        <ele>455.20001220703</ele>
        <time>2024-01-28T08:57:38.000Z</time>
      </trkpt>
      <trkpt lat="48.13072" lon="6.39018">
        <ele>455.39999389648</ele>
        <time>2024-01-28T08:57:41.000Z</time>
      </trkpt>
      <trkpt lat="48.13075" lon="6.39021">
        <ele>455.79998779297</ele>
        <time>2024-01-28T08:57:44.000Z</time>
      </trkpt>
      <trkpt lat="48.13077" lon="6.39024">
        <ele>456</ele>
        <time>2024-01-28T08:57:47.000Z</time>
      </trkpt>
      <trkpt lat="48.1308" lon="6.39026">
        <ele>456.39999389648</ele>
        <time>2024-01-28T08:57:50.000Z</time>
      </trkpt>
      <trkpt lat="48.13083" lon="6.39029">
        <ele>456.60000610352</ele>
        <time>2024-01-28T08:57:53.000Z</time>
      </trkpt>
      <trkpt lat="48.13085" lon="6.3903">
        <ele>456.79998779297</ele>
        <time>2024-01-28T08:57:54.000Z</time>
      </trkpt>
      <trkpt lat="48.1309" lon="6.39032">
        <ele>457.20001220703</ele>
        <time>2024-01-28T08:57:59.000Z</time>
      </trkpt>
      <trkpt lat="48.13091" lon="6.39033">
        <ele>457.39999389648</ele>
        <time>2024-01-28T08:58:00.000Z</time>
      </trkpt>
      <trkpt lat="48.13092" lon="6.39033">
        <ele>457.60000610352</ele>
        <time>2024-01-28T08:58:01.000Z</time>
      </trkpt>
      <trkpt lat="48.13098" lon="6.39038">
        <ele>458.20001220703</ele>
        <time>2024-01-28T08:58:05.000Z</time>
      </trkpt>
      <trkpt lat="48.13101" lon="6.39044">
        <ele>458.39999389648</ele>
        <time>2024-01-28T08:58:08.000Z</time>
      </trkpt>
      <trkpt lat="48.13104" lon="6.39046">
        <ele>458.79998779297</ele>
        <time>2024-01-28T08:58:10.000Z</time>
      </trkpt>
      <trkpt lat="48.13105" lon="6.39049">
        <ele>459</ele>
        <time>2024-01-28T08:58:12.000Z</time>
      </trkpt>
      <trkpt lat="48.13107" lon="6.39053">
        <ele>459.60000610352</ele>
        <time>2024-01-28T08:58:15.000Z</time>
      </trkpt>
      <trkpt lat="48.13111" lon="6.39055">
        <ele>460.20001220703</ele>
        <time>2024-01-28T08:58:19.000Z</time>
      </trkpt>
      <trkpt lat="48.13112" lon="6.39056">
        <ele>460.39999389648</ele>
        <time>2024-01-28T08:58:20.000Z</time>
      </trkpt>
      <trkpt lat="48.13113" lon="6.39057">
        <ele>460.60000610352</ele>
        <time>2024-01-28T08:58:22.000Z</time>
      </trkpt>
      <trkpt lat="48.13114" lon="6.39061">
        <ele>461</ele>
        <time>2024-01-28T08:58:24.000Z</time>
      </trkpt>
      <trkpt lat="48.13115" lon="6.39063">
        <ele>461.39999389648</ele>
        <time>2024-01-28T08:58:26.000Z</time>
      </trkpt>
      <trkpt lat="48.13118" lon="6.39063">
        <ele>461.79998779297</ele>
        <time>2024-01-28T08:58:28.000Z</time>
      </trkpt>
      <trkpt lat="48.1312" lon="6.39064">
        <ele>462.20001220703</ele>
        <time>2024-01-28T08:58:30.000Z</time>
      </trkpt>
      <trkpt lat="48.13124" lon="6.39067">
        <ele>463</ele>
        <time>2024-01-28T08:58:35.000Z</time>
      </trkpt>
      <trkpt lat="48.13126" lon="6.39069">
        <ele>463.20001220703</ele>
        <time>2024-01-28T08:58:37.000Z</time>
      </trkpt>
      <trkpt lat="48.13131" lon="6.3907">
        <ele>464</ele>
        <time>2024-01-28T08:58:41.000Z</time>
      </trkpt>
      <trkpt lat="48.13136" lon="6.39074">
        <ele>464.79998779297</ele>
        <time>2024-01-28T08:58:46.000Z</time>
      </trkpt>
      <trkpt lat="48.13141" lon="6.39075">
        <ele>465</ele>
        <time>2024-01-28T08:58:48.000Z</time>
      </trkpt>
      <trkpt lat="48.13142" lon="6.39076">
        <ele>465.20001220703</ele>
        <time>2024-01-28T08:58:49.000Z</time>
      </trkpt>
      <trkpt lat="48.13149" lon="6.39083">
        <ele>466.20001220703</ele>
        <time>2024-01-28T08:58:55.000Z</time>
      </trkpt>
      <trkpt lat="48.13151" lon="6.39084">
        <ele>466.20001220703</ele>
        <time>2024-01-28T08:58:56.000Z</time>
      </trkpt>
      <trkpt lat="48.13152" lon="6.39086">
        <ele>466.60000610352</ele>
        <time>2024-01-28T08:58:58.000Z</time>
      </trkpt>
      <trkpt lat="48.13153" lon="6.39091">
        <ele>467</ele>
        <time>2024-01-28T08:59:01.000Z</time>
      </trkpt>
      <trkpt lat="48.13154" lon="6.39093">
        <ele>467.20001220703</ele>
        <time>2024-01-28T08:59:03.000Z</time>
      </trkpt>
      <trkpt lat="48.13159" lon="6.39103">
        <ele>468.39999389648</ele>
        <time>2024-01-28T08:59:10.000Z</time>
      </trkpt>
      <trkpt lat="48.13164" lon="6.39111">
        <ele>469</ele>
        <time>2024-01-28T08:59:16.000Z</time>
      </trkpt>
      <trkpt lat="48.13164" lon="6.39113">
        <ele>469.20001220703</ele>
        <time>2024-01-28T08:59:17.000Z</time>
      </trkpt>
      <trkpt lat="48.13165" lon="6.39116">
        <ele>469.60000610352</ele>
        <time>2024-01-28T08:59:20.000Z</time>
      </trkpt>
      <trkpt lat="48.13165" lon="6.3912">
        <ele>469.79998779297</ele>
        <time>2024-01-28T08:59:22.000Z</time>
      </trkpt>
      <trkpt lat="48.13168" lon="6.39123">
        <ele>470.20001220703</ele>
        <time>2024-01-28T08:59:24.000Z</time>
      </trkpt>
      <trkpt lat="48.13172" lon="6.39128">
        <ele>470.79998779297</ele>
        <time>2024-01-28T08:59:28.000Z</time>
      </trkpt>
      <trkpt lat="48.13171" lon="6.39131">
        <ele>470.79998779297</ele>
        <time>2024-01-28T08:59:29.000Z</time>
      </trkpt>
      <trkpt lat="48.13174" lon="6.39139">
        <ele>471.60000610352</ele>
        <time>2024-01-28T08:59:36.000Z</time>
      </trkpt>
      <trkpt lat="48.13175" lon="6.39141">
        <ele>471.79998779297</ele>
        <time>2024-01-28T08:59:38.000Z</time>
      </trkpt>
      <trkpt lat="48.13177" lon="6.39148">
        <ele>472.39999389648</ele>
        <time>2024-01-28T08:59:43.000Z</time>
      </trkpt>
      <trkpt lat="48.1318" lon="6.39152">
        <ele>473</ele>
        <time>2024-01-28T08:59:47.000Z</time>
      </trkpt>
      <trkpt lat="48.13179" lon="6.39156">
        <ele>473.39999389648</ele>
        <time>2024-01-28T08:59:50.000Z</time>
      </trkpt>
      <trkpt lat="48.13183" lon="6.39162">
        <ele>474</ele>
        <time>2024-01-28T08:59:55.000Z</time>
      </trkpt>
      <trkpt lat="48.13183" lon="6.39164">
        <ele>474.20001220703</ele>
        <time>2024-01-28T08:59:57.000Z</time>
      </trkpt>
      <trkpt lat="48.13188" lon="6.39172">
        <ele>475.20001220703</ele>
        <time>2024-01-28T09:00:04.000Z</time>
      </trkpt>
      <trkpt lat="48.13188" lon="6.39174">
        <ele>475.39999389648</ele>
        <time>2024-01-28T09:00:05.000Z</time>
      </trkpt>
      <trkpt lat="48.13189" lon="6.39183">
        <ele>476</ele>
        <time>2024-01-28T09:00:09.000Z</time>
      </trkpt>
      <trkpt lat="48.13189" lon="6.39185">
        <ele>476.20001220703</ele>
        <time>2024-01-28T09:00:10.000Z</time>
      </trkpt>
      <trkpt lat="48.13189" lon="6.39187">
        <ele>476.20001220703</ele>
        <time>2024-01-28T09:00:11.000Z</time>
      </trkpt>
      <trkpt lat="48.13191" lon="6.39189">
        <ele>476.60000610352</ele>
        <time>2024-01-28T09:00:13.000Z</time>
      </trkpt>
      <trkpt lat="48.13191" lon="6.39191">
        <ele>476.60000610352</ele>
        <time>2024-01-28T09:00:14.000Z</time>
      </trkpt>
      <trkpt lat="48.13193" lon="6.39198">
        <ele>477.20001220703</ele>
        <time>2024-01-28T09:00:19.000Z</time>
      </trkpt>
      <trkpt lat="48.13194" lon="6.392">
        <ele>477.39999389648</ele>
        <time>2024-01-28T09:00:20.000Z</time>
      </trkpt>
      <trkpt lat="48.13195" lon="6.39205">
        <ele>477.60000610352</ele>
        <time>2024-01-28T09:00:22.000Z</time>
      </trkpt>
      <trkpt lat="48.13196" lon="6.39207">
        <ele>478</ele>
        <time>2024-01-28T09:00:24.000Z</time>
      </trkpt>
      <trkpt lat="48.13201" lon="6.39214">
        <ele>478.39999389648</ele>
        <time>2024-01-28T09:00:28.000Z</time>
      </trkpt>
      <trkpt lat="48.13203" lon="6.39217">
        <ele>478.79998779297</ele>
        <time>2024-01-28T09:00:31.000Z</time>
      </trkpt>
      <trkpt lat="48.13208" lon="6.39222">
        <ele>479.60000610352</ele>
        <time>2024-01-28T09:00:36.000Z</time>
      </trkpt>
      <trkpt lat="48.13211" lon="6.3923">
        <ele>480.20001220703</ele>
        <time>2024-01-28T09:00:41.000Z</time>
      </trkpt>
      <trkpt lat="48.13212" lon="6.39232">
        <ele>480.39999389648</ele>
        <time>2024-01-28T09:00:43.000Z</time>
      </trkpt>
      <trkpt lat="48.13211" lon="6.39234">
        <ele>480.60000610352</ele>
        <time>2024-01-28T09:00:44.000Z</time>
      </trkpt>
      <trkpt lat="48.13211" lon="6.39234">
        <ele>480.60000610352</ele>
        <time>2024-01-28T09:00:45.000Z</time>
      </trkpt>
      <trkpt lat="48.13215" lon="6.39244">
        <ele>481.20001220703</ele>
        <time>2024-01-28T09:00:50.000Z</time>
      </trkpt>
      <trkpt lat="48.13221" lon="6.39252">
        <ele>481.79998779297</ele>
        <time>2024-01-28T09:00:56.000Z</time>
      </trkpt>
      <trkpt lat="48.13222" lon="6.39253">
        <ele>481.79998779297</ele>
        <time>2024-01-28T09:00:57.000Z</time>
      </trkpt>
      <trkpt lat="48.13229" lon="6.39264">
        <ele>482.20001220703</ele>
        <time>2024-01-28T09:01:06.000Z</time>
      </trkpt>
      <trkpt lat="48.13232" lon="6.39269">
        <ele>482.60000610352</ele>
        <time>2024-01-28T09:01:12.000Z</time>
      </trkpt>
      <trkpt lat="48.13232" lon="6.39268">
        <ele>482.60000610352</ele>
        <time>2024-01-28T09:01:14.000Z</time>
      </trkpt>
      <trkpt lat="48.13234" lon="6.39265">
        <ele>482.79998779297</ele>
        <time>2024-01-28T09:01:16.000Z</time>
      </trkpt>
      <trkpt lat="48.13236" lon="6.39262">
        <ele>482.79998779297</ele>
        <time>2024-01-28T09:01:19.000Z</time>
      </trkpt>
      <trkpt lat="48.13238" lon="6.39259">
        <ele>482.79998779297</ele>
        <time>2024-01-28T09:01:21.000Z</time>
      </trkpt>
      <trkpt lat="48.13243" lon="6.39256">
        <ele>482.79998779297</ele>
        <time>2024-01-28T09:01:25.000Z</time>
      </trkpt>
      <trkpt lat="48.13246" lon="6.39249">
        <ele>483.20001220703</ele>
        <time>2024-01-28T09:01:31.000Z</time>
      </trkpt>
      <trkpt lat="48.13252" lon="6.39241">
        <ele>483.39999389648</ele>
        <time>2024-01-28T09:01:39.000Z</time>
      </trkpt>
      <trkpt lat="48.13254" lon="6.39239">
        <ele>483.39999389648</ele>
        <time>2024-01-28T09:01:40.000Z</time>
      </trkpt>
      <trkpt lat="48.13254" lon="6.39238">
        <ele>483.39999389648</ele>
        <time>2024-01-28T09:01:41.000Z</time>
      </trkpt>
      <trkpt lat="48.13255" lon="6.39237">
        <ele>483.39999389648</ele>
        <time>2024-01-28T09:01:42.000Z</time>
      </trkpt>
      <trkpt lat="48.1326" lon="6.39232">
        <ele>483.79998779297</ele>
        <time>2024-01-28T09:01:47.000Z</time>
      </trkpt>
      <trkpt lat="48.13265" lon="6.39228">
        <ele>483.79998779297</ele>
        <time>2024-01-28T09:01:52.000Z</time>
      </trkpt>
      <trkpt lat="48.13269" lon="6.39225">
        <ele>483.79998779297</ele>
        <time>2024-01-28T09:01:56.000Z</time>
      </trkpt>
      <trkpt lat="48.13272" lon="6.39221">
        <ele>483.79998779297</ele>
        <time>2024-01-28T09:02:00.000Z</time>
      </trkpt>
      <trkpt lat="48.13275" lon="6.39217">
        <ele>483.79998779297</ele>
        <time>2024-01-28T09:02:04.000Z</time>
      </trkpt>
      <trkpt lat="48.13277" lon="6.39216">
        <ele>483.79998779297</ele>
        <time>2024-01-28T09:02:06.000Z</time>
      </trkpt>
      <trkpt lat="48.13281" lon="6.39212">
        <ele>483.79998779297</ele>
        <time>2024-01-28T09:02:10.000Z</time>
      </trkpt>
      <trkpt lat="48.13282" lon="6.39211">
        <ele>483.79998779297</ele>
        <time>2024-01-28T09:02:11.000Z</time>
      </trkpt>
      <trkpt lat="48.13294" lon="6.39207">
        <ele>483.79998779297</ele>
        <time>2024-01-28T09:02:21.000Z</time>
      </trkpt>
      <trkpt lat="48.13302" lon="6.39217">
        <ele>484.20001220703</ele>
        <time>2024-01-28T09:02:28.000Z</time>
      </trkpt>
      <trkpt lat="48.1331" lon="6.3923">
        <ele>484.20001220703</ele>
        <time>2024-01-28T09:02:35.000Z</time>
      </trkpt>
      <trkpt lat="48.13312" lon="6.39237">
        <ele>484.39999389648</ele>
        <time>2024-01-28T09:02:39.000Z</time>
      </trkpt>
      <trkpt lat="48.13321" lon="6.39249">
        <ele>484.60000610352</ele>
        <time>2024-01-28T09:02:47.000Z</time>
      </trkpt>
      <trkpt lat="48.13327" lon="6.39262">
        <ele>484.39999389648</ele>
        <time>2024-01-28T09:02:55.000Z</time>
      </trkpt>
      <trkpt lat="48.13331" lon="6.39271">
        <ele>484.20001220703</ele>
        <time>2024-01-28T09:03:01.000Z</time>
      </trkpt>
      <trkpt lat="48.13335" lon="6.39276">
        <ele>484.20001220703</ele>
        <time>2024-01-28T09:03:04.000Z</time>
      </trkpt>
      <trkpt lat="48.13338" lon="6.39281">
        <ele>484.20001220703</ele>
        <time>2024-01-28T09:03:08.000Z</time>
      </trkpt>
      <trkpt lat="48.13342" lon="6.39286">
        <ele>484</ele>
        <time>2024-01-28T09:03:12.000Z</time>
      </trkpt>
      <trkpt lat="48.1335" lon="6.393">
        <ele>483.39999389648</ele>
        <time>2024-01-28T09:03:22.000Z</time>
      </trkpt>
      <trkpt lat="48.13351" lon="6.39301">
        <ele>483.39999389648</ele>
        <time>2024-01-28T09:03:23.000Z</time>
      </trkpt>
      <trkpt lat="48.13359" lon="6.39309">
        <ele>483</ele>
        <time>2024-01-28T09:03:30.000Z</time>
      </trkpt>
      <trkpt lat="48.13369" lon="6.39312">
        <ele>482.79998779297</ele>
        <time>2024-01-28T09:03:37.000Z</time>
      </trkpt>
      <trkpt lat="48.13372" lon="6.39313">
        <ele>482.60000610352</ele>
        <time>2024-01-28T09:03:39.000Z</time>
      </trkpt>
      <trkpt lat="48.13383" lon="6.39315">
        <ele>482.20001220703</ele>
        <time>2024-01-28T09:03:49.000Z</time>
      </trkpt>
      <trkpt lat="48.13386" lon="6.39316">
        <ele>482.20001220703</ele>
        <time>2024-01-28T09:03:51.000Z</time>
      </trkpt>
      <trkpt lat="48.13389" lon="6.39318">
        <ele>482.20001220703</ele>
        <time>2024-01-28T09:03:53.000Z</time>
      </trkpt>
      <trkpt lat="48.13395" lon="6.39321">
        <ele>482</ele>
        <time>2024-01-28T09:03:59.000Z</time>
      </trkpt>
      <trkpt lat="48.13398" lon="6.39323">
        <ele>481.79998779297</ele>
        <time>2024-01-28T09:04:02.000Z</time>
      </trkpt>
      <trkpt lat="48.13402" lon="6.39324">
        <ele>481.79998779297</ele>
        <time>2024-01-28T09:04:06.000Z</time>
      </trkpt>
      <trkpt lat="48.13406" lon="6.39325">
        <ele>481.79998779297</ele>
        <time>2024-01-28T09:04:10.000Z</time>
      </trkpt>
      <trkpt lat="48.13409" lon="6.39326">
        <ele>481.60000610352</ele>
        <time>2024-01-28T09:04:12.000Z</time>
      </trkpt>
      <trkpt lat="48.13418" lon="6.39333">
        <ele>481.60000610352</ele>
        <time>2024-01-28T09:04:21.000Z</time>
      </trkpt>
      <trkpt lat="48.13413" lon="6.3934">
        <ele>481.60000610352</ele>
        <time>2024-01-28T09:04:26.000Z</time>
      </trkpt>
      <trkpt lat="48.13408" lon="6.39343">
        <ele>481.20001220703</ele>
        <time>2024-01-28T09:04:29.000Z</time>
      </trkpt>
      <trkpt lat="48.13401" lon="6.39347">
        <ele>481</ele>
        <time>2024-01-28T09:04:34.000Z</time>
      </trkpt>
      <trkpt lat="48.13391" lon="6.39352">
        <ele>480.79998779297</ele>
        <time>2024-01-28T09:04:42.000Z</time>
      </trkpt>
      <trkpt lat="48.13389" lon="6.39354">
        <ele>480.60000610352</ele>
        <time>2024-01-28T09:04:44.000Z</time>
      </trkpt>
      <trkpt lat="48.13386" lon="6.39356">
        <ele>480.60000610352</ele>
        <time>2024-01-28T09:04:47.000Z</time>
      </trkpt>
      <trkpt lat="48.13379" lon="6.39367">
        <ele>480.60000610352</ele>
        <time>2024-01-28T09:04:55.000Z</time>
      </trkpt>
      <trkpt lat="48.13377" lon="6.39366">
        <ele>480.60000610352</ele>
        <time>2024-01-28T09:04:56.000Z</time>
      </trkpt>
      <trkpt lat="48.13375" lon="6.39367">
        <ele>480.39999389648</ele>
        <time>2024-01-28T09:04:57.000Z</time>
      </trkpt>
      <trkpt lat="48.13371" lon="6.39369">
        <ele>480.60000610352</ele>
        <time>2024-01-28T09:05:00.000Z</time>
      </trkpt>
      <trkpt lat="48.1336" lon="6.39376">
        <ele>480.79998779297</ele>
        <time>2024-01-28T09:05:08.000Z</time>
      </trkpt>
      <trkpt lat="48.13355" lon="6.39377">
        <ele>481</ele>
        <time>2024-01-28T09:05:12.000Z</time>
      </trkpt>
      <trkpt lat="48.13349" lon="6.39382">
        <ele>481</ele>
        <time>2024-01-28T09:05:16.000Z</time>
      </trkpt>
      <trkpt lat="48.13337" lon="6.39386">
        <ele>480.79998779297</ele>
        <time>2024-01-28T09:05:26.000Z</time>
      </trkpt>
      <trkpt lat="48.13329" lon="6.39386">
        <ele>480.60000610352</ele>
        <time>2024-01-28T09:05:31.000Z</time>
      </trkpt>
      <trkpt lat="48.13326" lon="6.39386">
        <ele>480.60000610352</ele>
        <time>2024-01-28T09:05:33.000Z</time>
      </trkpt>
      <trkpt lat="48.13325" lon="6.39386">
        <ele>480.79998779297</ele>
        <time>2024-01-28T09:05:34.000Z</time>
      </trkpt>
      <trkpt lat="48.13313" lon="6.3939">
        <ele>480.79998779297</ele>
        <time>2024-01-28T09:05:42.000Z</time>
      </trkpt>
      <trkpt lat="48.13311" lon="6.39389">
        <ele>480.79998779297</ele>
        <time>2024-01-28T09:05:44.000Z</time>
      </trkpt>
      <trkpt lat="48.13305" lon="6.39389">
        <ele>481</ele>
        <time>2024-01-28T09:05:49.000Z</time>
      </trkpt>
      <trkpt lat="48.13296" lon="6.39391">
        <ele>481</ele>
        <time>2024-01-28T09:05:56.000Z</time>
      </trkpt>
      <trkpt lat="48.13291" lon="6.3939">
        <ele>481</ele>
        <time>2024-01-28T09:06:01.000Z</time>
      </trkpt>
      <trkpt lat="48.13288" lon="6.39391">
        <ele>481.20001220703</ele>
        <time>2024-01-28T09:06:04.000Z</time>
      </trkpt>
      <trkpt lat="48.1328" lon="6.39391">
        <ele>481.39999389648</ele>
        <time>2024-01-28T09:06:11.000Z</time>
      </trkpt>
      <trkpt lat="48.13278" lon="6.3939">
        <ele>481.39999389648</ele>
        <time>2024-01-28T09:06:13.000Z</time>
      </trkpt>
      <trkpt lat="48.13268" lon="6.39391">
        <ele>481.39999389648</ele>
        <time>2024-01-28T09:06:21.000Z</time>
      </trkpt>
      <trkpt lat="48.13259" lon="6.39393">
        <ele>481.60000610352</ele>
        <time>2024-01-28T09:06:28.000Z</time>
      </trkpt>
      <trkpt lat="48.13251" lon="6.39394">
        <ele>481.60000610352</ele>
        <time>2024-01-28T09:06:34.000Z</time>
      </trkpt>
      <trkpt lat="48.13248" lon="6.39397">
        <ele>481.60000610352</ele>
        <time>2024-01-28T09:06:38.000Z</time>
      </trkpt>
      <trkpt lat="48.13246" lon="6.394">
        <ele>481.60000610352</ele>
        <time>2024-01-28T09:06:41.000Z</time>
      </trkpt>
      <trkpt lat="48.13243" lon="6.39405">
        <ele>481.79998779297</ele>
        <time>2024-01-28T09:06:45.000Z</time>
      </trkpt>
      <trkpt lat="48.13239" lon="6.39407">
        <ele>481.79998779297</ele>
        <time>2024-01-28T09:06:50.000Z</time>
      </trkpt>
      <trkpt lat="48.13235" lon="6.39412">
        <ele>481.79998779297</ele>
        <time>2024-01-28T09:06:54.000Z</time>
      </trkpt>
      <trkpt lat="48.13234" lon="6.39414">
        <ele>482</ele>
        <time>2024-01-28T09:06:55.000Z</time>
      </trkpt>
      <trkpt lat="48.13225" lon="6.39421">
        <ele>482</ele>
        <time>2024-01-28T09:07:01.000Z</time>
      </trkpt>
      <trkpt lat="48.13218" lon="6.39431">
        <ele>482</ele>
        <time>2024-01-28T09:07:08.000Z</time>
      </trkpt>
      <trkpt lat="48.13212" lon="6.39447">
        <ele>481.60000610352</ele>
        <time>2024-01-28T09:07:17.000Z</time>
      </trkpt>
      <trkpt lat="48.13205" lon="6.39466">
        <ele>481</ele>
        <time>2024-01-28T09:07:28.000Z</time>
      </trkpt>
      <trkpt lat="48.132" lon="6.39476">
        <ele>480.79998779297</ele>
        <time>2024-01-28T09:07:35.000Z</time>
      </trkpt>
      <trkpt lat="48.13197" lon="6.3948">
        <ele>480.79998779297</ele>
        <time>2024-01-28T09:07:39.000Z</time>
      </trkpt>
      <trkpt lat="48.13196" lon="6.39483">
        <ele>481</ele>
        <time>2024-01-28T09:07:42.000Z</time>
      </trkpt>
      <trkpt lat="48.13193" lon="6.39494">
        <ele>480.79998779297</ele>
        <time>2024-01-28T09:07:51.000Z</time>
      </trkpt>
      <trkpt lat="48.13193" lon="6.39496">
        <ele>480.79998779297</ele>
        <time>2024-01-28T09:07:53.000Z</time>
      </trkpt>
      <trkpt lat="48.13195" lon="6.395">
        <ele>480.60000610352</ele>
        <time>2024-01-28T09:07:56.000Z</time>
      </trkpt>
      <trkpt lat="48.13195" lon="6.39503">
        <ele>480.60000610352</ele>
        <time>2024-01-28T09:07:57.000Z</time>
      </trkpt>
      <trkpt lat="48.13193" lon="6.39506">
        <ele>480.60000610352</ele>
        <time>2024-01-28T09:07:59.000Z</time>
      </trkpt>
      <trkpt lat="48.13192" lon="6.39507">
        <ele>480.60000610352</ele>
        <time>2024-01-28T09:08:00.000Z</time>
      </trkpt>
      <trkpt lat="48.13189" lon="6.39515">
        <ele>480.39999389648</ele>
        <time>2024-01-28T09:08:06.000Z</time>
      </trkpt>
      <trkpt lat="48.13188" lon="6.39519">
        <ele>480.60000610352</ele>
        <time>2024-01-28T09:08:08.000Z</time>
      </trkpt>
      <trkpt lat="48.13185" lon="6.39527">
        <ele>480.60000610352</ele>
        <time>2024-01-28T09:08:13.000Z</time>
      </trkpt>
      <trkpt lat="48.13179" lon="6.39547">
        <ele>480.39999389648</ele>
        <time>2024-01-28T09:08:23.000Z</time>
      </trkpt>
      <trkpt lat="48.13179" lon="6.39548">
        <ele>480.39999389648</ele>
        <time>2024-01-28T09:08:24.000Z</time>
      </trkpt>
      <trkpt lat="48.13179" lon="6.39558">
        <ele>480.39999389648</ele>
        <time>2024-01-28T09:08:29.000Z</time>
      </trkpt>
      <trkpt lat="48.13177" lon="6.39564">
        <ele>480.20001220703</ele>
        <time>2024-01-28T09:08:32.000Z</time>
      </trkpt>
      <trkpt lat="48.13176" lon="6.39579">
        <ele>480.20001220703</ele>
        <time>2024-01-28T09:08:40.000Z</time>
      </trkpt>
      <trkpt lat="48.13176" lon="6.39582">
        <ele>480.20001220703</ele>
        <time>2024-01-28T09:08:42.000Z</time>
      </trkpt>
      <trkpt lat="48.13176" lon="6.3959">
        <ele>480.39999389648</ele>
        <time>2024-01-28T09:08:46.000Z</time>
      </trkpt>
      <trkpt lat="48.13172" lon="6.39603">
        <ele>480.39999389648</ele>
        <time>2024-01-28T09:08:53.000Z</time>
      </trkpt>
      <trkpt lat="48.13167" lon="6.39617">
        <ele>480.60000610352</ele>
        <time>2024-01-28T09:09:01.000Z</time>
      </trkpt>
      <trkpt lat="48.13167" lon="6.3962">
        <ele>480.60000610352</ele>
        <time>2024-01-28T09:09:03.000Z</time>
      </trkpt>
      <trkpt lat="48.13166" lon="6.39629">
        <ele>480.60000610352</ele>
        <time>2024-01-28T09:09:08.000Z</time>
      </trkpt>
      <trkpt lat="48.13166" lon="6.39634">
        <ele>480.60000610352</ele>
        <time>2024-01-28T09:09:11.000Z</time>
      </trkpt>
      <trkpt lat="48.13166" lon="6.3964">
        <ele>480.60000610352</ele>
        <time>2024-01-28T09:09:14.000Z</time>
      </trkpt>
      <trkpt lat="48.13167" lon="6.39653">
        <ele>480.60000610352</ele>
        <time>2024-01-28T09:09:21.000Z</time>
      </trkpt>
      <trkpt lat="48.13168" lon="6.39658">
        <ele>480.60000610352</ele>
        <time>2024-01-28T09:09:23.000Z</time>
      </trkpt>
      <trkpt lat="48.13168" lon="6.39662">
        <ele>480.60000610352</ele>
        <time>2024-01-28T09:09:25.000Z</time>
      </trkpt>
      <trkpt lat="48.13168" lon="6.39666">
        <ele>480.60000610352</ele>
        <time>2024-01-28T09:09:27.000Z</time>
      </trkpt>
      <trkpt lat="48.13167" lon="6.39672">
        <ele>480.79998779297</ele>
        <time>2024-01-28T09:09:30.000Z</time>
      </trkpt>
      <trkpt lat="48.13164" lon="6.39681">
        <ele>480.79998779297</ele>
        <time>2024-01-28T09:09:35.000Z</time>
      </trkpt>
      <trkpt lat="48.13163" lon="6.39683">
        <ele>480.79998779297</ele>
        <time>2024-01-28T09:09:36.000Z</time>
      </trkpt>
      <trkpt lat="48.13163" lon="6.39687">
        <ele>480.60000610352</ele>
        <time>2024-01-28T09:09:38.000Z</time>
      </trkpt>
      <trkpt lat="48.13162" lon="6.39702">
        <ele>479.79998779297</ele>
        <time>2024-01-28T09:09:46.000Z</time>
      </trkpt>
      <trkpt lat="48.13161" lon="6.39707">
        <ele>479.60000610352</ele>
        <time>2024-01-28T09:09:49.000Z</time>
      </trkpt>
      <trkpt lat="48.13161" lon="6.39717">
        <ele>479.20001220703</ele>
        <time>2024-01-28T09:09:53.000Z</time>
      </trkpt>
      <trkpt lat="48.13161" lon="6.39721">
        <ele>479</ele>
        <time>2024-01-28T09:09:55.000Z</time>
      </trkpt>
      <trkpt lat="48.13161" lon="6.39728">
        <ele>478.60000610352</ele>
        <time>2024-01-28T09:09:59.000Z</time>
      </trkpt>
      <trkpt lat="48.13161" lon="6.3973">
        <ele>478.39999389648</ele>
        <time>2024-01-28T09:10:00.000Z</time>
      </trkpt>
      <trkpt lat="48.13162" lon="6.39745">
        <ele>477.39999389648</ele>
        <time>2024-01-28T09:10:09.000Z</time>
      </trkpt>
      <trkpt lat="48.1316" lon="6.39759">
        <ele>476.39999389648</ele>
        <time>2024-01-28T09:10:17.000Z</time>
      </trkpt>
      <trkpt lat="48.1316" lon="6.39761">
        <ele>476.39999389648</ele>
        <time>2024-01-28T09:10:19.000Z</time>
      </trkpt>
      <trkpt lat="48.13159" lon="6.39768">
        <ele>476</ele>
        <time>2024-01-28T09:10:23.000Z</time>
      </trkpt>
      <trkpt lat="48.13157" lon="6.3978">
        <ele>475.39999389648</ele>
        <time>2024-01-28T09:10:29.000Z</time>
      </trkpt>
      <trkpt lat="48.13157" lon="6.39783">
        <ele>475.39999389648</ele>
        <time>2024-01-28T09:10:30.000Z</time>
      </trkpt>
      <trkpt lat="48.13157" lon="6.39784">
        <ele>475.39999389648</ele>
        <time>2024-01-28T09:10:31.000Z</time>
      </trkpt>
      <trkpt lat="48.13158" lon="6.39788">
        <ele>475.20001220703</ele>
        <time>2024-01-28T09:10:33.000Z</time>
      </trkpt>
      <trkpt lat="48.13158" lon="6.39792">
        <ele>475</ele>
        <time>2024-01-28T09:10:35.000Z</time>
      </trkpt>
      <trkpt lat="48.13158" lon="6.39794">
        <ele>475</ele>
        <time>2024-01-28T09:10:36.000Z</time>
      </trkpt>
      <trkpt lat="48.13158" lon="6.39801">
        <ele>474.60000610352</ele>
        <time>2024-01-28T09:10:39.000Z</time>
      </trkpt>
      <trkpt lat="48.13157" lon="6.39803">
        <ele>474.60000610352</ele>
        <time>2024-01-28T09:10:40.000Z</time>
      </trkpt>
      <trkpt lat="48.13156" lon="6.39808">
        <ele>474.39999389648</ele>
        <time>2024-01-28T09:10:42.000Z</time>
      </trkpt>
      <trkpt lat="48.13156" lon="6.39811">
        <ele>474.39999389648</ele>
        <time>2024-01-28T09:10:43.000Z</time>
      </trkpt>
      <trkpt lat="48.13155" lon="6.3983">
        <ele>474</ele>
        <time>2024-01-28T09:10:51.000Z</time>
      </trkpt>
      <trkpt lat="48.13154" lon="6.39837">
        <ele>474</ele>
        <time>2024-01-28T09:10:54.000Z</time>
      </trkpt>
      <trkpt lat="48.13154" lon="6.39842">
        <ele>474</ele>
        <time>2024-01-28T09:10:57.000Z</time>
      </trkpt>
      <trkpt lat="48.13154" lon="6.39855">
        <ele>473.79998779297</ele>
        <time>2024-01-28T09:11:05.000Z</time>
      </trkpt>
      <trkpt lat="48.13154" lon="6.39867">
        <ele>473.79998779297</ele>
        <time>2024-01-28T09:11:12.000Z</time>
      </trkpt>
      <trkpt lat="48.13154" lon="6.39874">
        <ele>473.79998779297</ele>
        <time>2024-01-28T09:11:16.000Z</time>
      </trkpt>
      <trkpt lat="48.13157" lon="6.39883">
        <ele>473.79998779297</ele>
        <time>2024-01-28T09:11:21.000Z</time>
      </trkpt>
      <trkpt lat="48.13161" lon="6.39894">
        <ele>473.60000610352</ele>
        <time>2024-01-28T09:11:26.000Z</time>
      </trkpt>
      <trkpt lat="48.13162" lon="6.39895">
        <ele>473.60000610352</ele>
        <time>2024-01-28T09:11:27.000Z</time>
      </trkpt>
      <trkpt lat="48.13165" lon="6.39908">
        <ele>473.79998779297</ele>
        <time>2024-01-28T09:11:33.000Z</time>
      </trkpt>
      <trkpt lat="48.13165" lon="6.39914">
        <ele>473.79998779297</ele>
        <time>2024-01-28T09:11:36.000Z</time>
      </trkpt>
      <trkpt lat="48.13168" lon="6.39922">
        <ele>474</ele>
        <time>2024-01-28T09:11:40.000Z</time>
      </trkpt>
      <trkpt lat="48.13168" lon="6.39926">
        <ele>474</ele>
        <time>2024-01-28T09:11:42.000Z</time>
      </trkpt>
      <trkpt lat="48.13171" lon="6.39942">
        <ele>474.20001220703</ele>
        <time>2024-01-28T09:11:51.000Z</time>
      </trkpt>
      <trkpt lat="48.13171" lon="6.39954">
        <ele>474.39999389648</ele>
        <time>2024-01-28T09:11:59.000Z</time>
      </trkpt>
      <trkpt lat="48.13173" lon="6.39968">
        <ele>474.60000610352</ele>
        <time>2024-01-28T09:12:05.000Z</time>
      </trkpt>
      <trkpt lat="48.13174" lon="6.39981">
        <ele>474.60000610352</ele>
        <time>2024-01-28T09:12:11.000Z</time>
      </trkpt>
      <trkpt lat="48.13174" lon="6.39985">
        <ele>474.79998779297</ele>
        <time>2024-01-28T09:12:13.000Z</time>
      </trkpt>
      <trkpt lat="48.13175" lon="6.39992">
        <ele>474.79998779297</ele>
        <time>2024-01-28T09:12:17.000Z</time>
      </trkpt>
      <trkpt lat="48.13176" lon="6.4">
        <ele>474.79998779297</ele>
        <time>2024-01-28T09:12:21.000Z</time>
      </trkpt>
      <trkpt lat="48.13177" lon="6.40005">
        <ele>474.79998779297</ele>
        <time>2024-01-28T09:12:24.000Z</time>
      </trkpt>
      <trkpt lat="48.13179" lon="6.40011">
        <ele>474.79998779297</ele>
        <time>2024-01-28T09:12:27.000Z</time>
      </trkpt>
      <trkpt lat="48.1318" lon="6.40012">
        <ele>474.60000610352</ele>
        <time>2024-01-28T09:12:28.000Z</time>
      </trkpt>
      <trkpt lat="48.13181" lon="6.40023">
        <ele>474.60000610352</ele>
        <time>2024-01-28T09:12:34.000Z</time>
      </trkpt>
      <trkpt lat="48.1318" lon="6.40027">
        <ele>474.39999389648</ele>
        <time>2024-01-28T09:12:36.000Z</time>
      </trkpt>
      <trkpt lat="48.13182" lon="6.40038">
        <ele>474.39999389648</ele>
        <time>2024-01-28T09:12:41.000Z</time>
      </trkpt>
      <trkpt lat="48.1319" lon="6.40054">
        <ele>473.60000610352</ele>
        <time>2024-01-28T09:12:51.000Z</time>
      </trkpt>
      <trkpt lat="48.13191" lon="6.40055">
        <ele>473.60000610352</ele>
        <time>2024-01-28T09:12:52.000Z</time>
      </trkpt>
      <trkpt lat="48.13194" lon="6.40062">
        <ele>473.39999389648</ele>
        <time>2024-01-28T09:12:57.000Z</time>
      </trkpt>
      <trkpt lat="48.13195" lon="6.40064">
        <ele>473.39999389648</ele>
        <time>2024-01-28T09:12:58.000Z</time>
      </trkpt>
      <trkpt lat="48.13197" lon="6.40067">
        <ele>473.20001220703</ele>
        <time>2024-01-28T09:13:01.000Z</time>
      </trkpt>
      <trkpt lat="48.13198" lon="6.40069">
        <ele>473.20001220703</ele>
        <time>2024-01-28T09:13:03.000Z</time>
      </trkpt>
      <trkpt lat="48.13199" lon="6.40071">
        <ele>473.20001220703</ele>
        <time>2024-01-28T09:13:04.000Z</time>
      </trkpt>
      <trkpt lat="48.13202" lon="6.40073">
        <ele>473.20001220703</ele>
        <time>2024-01-28T09:13:06.000Z</time>
      </trkpt>
      <trkpt lat="48.13213" lon="6.40084">
        <ele>472.79998779297</ele>
        <time>2024-01-28T09:13:15.000Z</time>
      </trkpt>
      <trkpt lat="48.13216" lon="6.40087">
        <ele>472.60000610352</ele>
        <time>2024-01-28T09:13:17.000Z</time>
      </trkpt>
      <trkpt lat="48.1322" lon="6.40094">
        <ele>472.39999389648</ele>
        <time>2024-01-28T09:13:21.000Z</time>
      </trkpt>
      <trkpt lat="48.13218" lon="6.401">
        <ele>472.39999389648</ele>
        <time>2024-01-28T09:13:23.000Z</time>
      </trkpt>
      <trkpt lat="48.13212" lon="6.40113">
        <ele>471.60000610352</ele>
        <time>2024-01-28T09:13:30.000Z</time>
      </trkpt>
      <trkpt lat="48.1321" lon="6.40116">
        <ele>471.20001220703</ele>
        <time>2024-01-28T09:13:32.000Z</time>
      </trkpt>
      <trkpt lat="48.13205" lon="6.40126">
        <ele>470.39999389648</ele>
        <time>2024-01-28T09:13:37.000Z</time>
      </trkpt>
      <trkpt lat="48.13204" lon="6.40128">
        <ele>470</ele>
        <time>2024-01-28T09:13:38.000Z</time>
      </trkpt>
      <trkpt lat="48.13203" lon="6.40131">
        <ele>469.60000610352</ele>
        <time>2024-01-28T09:13:40.000Z</time>
      </trkpt>
      <trkpt lat="48.13201" lon="6.40133">
        <ele>469.39999389648</ele>
        <time>2024-01-28T09:13:41.000Z</time>
      </trkpt>
      <trkpt lat="48.13198" lon="6.40135">
        <ele>469</ele>
        <time>2024-01-28T09:13:43.000Z</time>
      </trkpt>
      <trkpt lat="48.13195" lon="6.40144">
        <ele>468</ele>
        <time>2024-01-28T09:13:48.000Z</time>
      </trkpt>
      <trkpt lat="48.13195" lon="6.40146">
        <ele>467.79998779297</ele>
        <time>2024-01-28T09:13:49.000Z</time>
      </trkpt>
      <trkpt lat="48.13192" lon="6.4015">
        <ele>467.20001220703</ele>
        <time>2024-01-28T09:13:52.000Z</time>
      </trkpt>
      <trkpt lat="48.13191" lon="6.40151">
        <ele>467</ele>
        <time>2024-01-28T09:13:53.000Z</time>
      </trkpt>
      <trkpt lat="48.1319" lon="6.40151">
        <ele>466.79998779297</ele>
        <time>2024-01-28T09:13:54.000Z</time>
      </trkpt>
      <trkpt lat="48.13189" lon="6.40153">
        <ele>466.39999389648</ele>
        <time>2024-01-28T09:13:57.000Z</time>
      </trkpt>
      <trkpt lat="48.13188" lon="6.4016">
        <ele>465.79998779297</ele>
        <time>2024-01-28T09:14:00.000Z</time>
      </trkpt>
      <trkpt lat="48.13187" lon="6.40163">
        <ele>465.20001220703</ele>
        <time>2024-01-28T09:14:02.000Z</time>
      </trkpt>
      <trkpt lat="48.13186" lon="6.40167">
        <ele>464.79998779297</ele>
        <time>2024-01-28T09:14:05.000Z</time>
      </trkpt>
      <trkpt lat="48.13185" lon="6.40168">
        <ele>464.39999389648</ele>
        <time>2024-01-28T09:14:06.000Z</time>
      </trkpt>
      <trkpt lat="48.13185" lon="6.40172">
        <ele>464</ele>
        <time>2024-01-28T09:14:08.000Z</time>
      </trkpt>
      <trkpt lat="48.13184" lon="6.40173">
        <ele>463.60000610352</ele>
        <time>2024-01-28T09:14:09.000Z</time>
      </trkpt>
      <trkpt lat="48.13183" lon="6.40179">
        <ele>462.79998779297</ele>
        <time>2024-01-28T09:14:13.000Z</time>
      </trkpt>
      <trkpt lat="48.13183" lon="6.4018">
        <ele>462.60000610352</ele>
        <time>2024-01-28T09:14:14.000Z</time>
      </trkpt>
      <trkpt lat="48.13182" lon="6.40185">
        <ele>461.79998779297</ele>
        <time>2024-01-28T09:14:17.000Z</time>
      </trkpt>
      <trkpt lat="48.13182" lon="6.40186">
        <ele>461.60000610352</ele>
        <time>2024-01-28T09:14:18.000Z</time>
      </trkpt>
      <trkpt lat="48.13182" lon="6.40188">
        <ele>461.20001220703</ele>
        <time>2024-01-28T09:14:19.000Z</time>
      </trkpt>
      <trkpt lat="48.13182" lon="6.40191">
        <ele>460.60000610352</ele>
        <time>2024-01-28T09:14:21.000Z</time>
      </trkpt>
      <trkpt lat="48.13182" lon="6.40194">
        <ele>460</ele>
        <time>2024-01-28T09:14:23.000Z</time>
      </trkpt>
      <trkpt lat="48.1318" lon="6.40199">
        <ele>459.60000610352</ele>
        <time>2024-01-28T09:14:25.000Z</time>
      </trkpt>
      <trkpt lat="48.1318" lon="6.40205">
        <ele>459</ele>
        <time>2024-01-28T09:14:28.000Z</time>
      </trkpt>
      <trkpt lat="48.13178" lon="6.40209">
        <ele>458</ele>
        <time>2024-01-28T09:14:32.000Z</time>
      </trkpt>
      <trkpt lat="48.13178" lon="6.40211">
        <ele>457.79998779297</ele>
        <time>2024-01-28T09:14:33.000Z</time>
      </trkpt>
      <trkpt lat="48.13176" lon="6.40216">
        <ele>456.60000610352</ele>
        <time>2024-01-28T09:14:38.000Z</time>
      </trkpt>
      <trkpt lat="48.13175" lon="6.40216">
        <ele>456.39999389648</ele>
        <time>2024-01-28T09:14:39.000Z</time>
      </trkpt>
      <trkpt lat="48.13172" lon="6.40211">
        <ele>456</ele>
        <time>2024-01-28T09:14:53.000Z</time>
      </trkpt>
      <trkpt lat="48.13167" lon="6.40201">
        <ele>456</ele>
        <time>2024-01-28T09:15:00.000Z</time>
      </trkpt>
      <trkpt lat="48.13158" lon="6.40184">
        <ele>455.79998779297</ele>
        <time>2024-01-28T09:15:10.000Z</time>
      </trkpt>
      <trkpt lat="48.13153" lon="6.40172">
        <ele>456.20001220703</ele>
        <time>2024-01-28T09:15:16.000Z</time>
      </trkpt>
      <trkpt lat="48.13151" lon="6.40167">
        <ele>456.79998779297</ele>
        <time>2024-01-28T09:15:19.000Z</time>
      </trkpt>
      <trkpt lat="48.1315" lon="6.40162">
        <ele>457.20001220703</ele>
        <time>2024-01-28T09:15:22.000Z</time>
      </trkpt>
      <trkpt lat="48.13149" lon="6.40157">
        <ele>457.60000610352</ele>
        <time>2024-01-28T09:15:25.000Z</time>
      </trkpt>
      <trkpt lat="48.13147" lon="6.40153">
        <ele>458</ele>
        <time>2024-01-28T09:15:28.000Z</time>
      </trkpt>
      <trkpt lat="48.13145" lon="6.40151">
        <ele>458.20001220703</ele>
        <time>2024-01-28T09:15:30.000Z</time>
      </trkpt>
      <trkpt lat="48.13141" lon="6.40148">
        <ele>458.20001220703</ele>
        <time>2024-01-28T09:15:33.000Z</time>
      </trkpt>
      <trkpt lat="48.13139" lon="6.40146">
        <ele>458</ele>
        <time>2024-01-28T09:15:35.000Z</time>
      </trkpt>
      <trkpt lat="48.13136" lon="6.40143">
        <ele>458</ele>
        <time>2024-01-28T09:15:37.000Z</time>
      </trkpt>
      <trkpt lat="48.13128" lon="6.40142">
        <ele>457</ele>
        <time>2024-01-28T09:15:42.000Z</time>
      </trkpt>
      <trkpt lat="48.13127" lon="6.40141">
        <ele>457</ele>
        <time>2024-01-28T09:15:43.000Z</time>
      </trkpt>
      <trkpt lat="48.13125" lon="6.40141">
        <ele>456.60000610352</ele>
        <time>2024-01-28T09:15:45.000Z</time>
      </trkpt>
      <trkpt lat="48.13118" lon="6.40137">
        <ele>455.39999389648</ele>
        <time>2024-01-28T09:15:50.000Z</time>
      </trkpt>
      <trkpt lat="48.13115" lon="6.40136">
        <ele>455.20001220703</ele>
        <time>2024-01-28T09:15:52.000Z</time>
      </trkpt>
      <trkpt lat="48.13114" lon="6.40136">
        <ele>455.20001220703</ele>
        <time>2024-01-28T09:15:53.000Z</time>
      </trkpt>
      <trkpt lat="48.13113" lon="6.40136">
        <ele>455</ele>
        <time>2024-01-28T09:15:54.000Z</time>
      </trkpt>
      <trkpt lat="48.13109" lon="6.40133">
        <ele>455</ele>
        <time>2024-01-28T09:15:58.000Z</time>
      </trkpt>
      <trkpt lat="48.13103" lon="6.4013">
        <ele>454.60000610352</ele>
        <time>2024-01-28T09:16:02.000Z</time>
      </trkpt>
      <trkpt lat="48.131" lon="6.40128">
        <ele>454.20001220703</ele>
        <time>2024-01-28T09:16:05.000Z</time>
      </trkpt>
      <trkpt lat="48.13099" lon="6.40128">
        <ele>454.20001220703</ele>
        <time>2024-01-28T09:16:06.000Z</time>
      </trkpt>
      <trkpt lat="48.13093" lon="6.40128">
        <ele>454</ele>
        <time>2024-01-28T09:16:10.000Z</time>
      </trkpt>
      <trkpt lat="48.1309" lon="6.40127">
        <ele>454</ele>
        <time>2024-01-28T09:16:12.000Z</time>
      </trkpt>
      <trkpt lat="48.13082" lon="6.40127">
        <ele>454</ele>
        <time>2024-01-28T09:16:19.000Z</time>
      </trkpt>
      <trkpt lat="48.13075" lon="6.40126">
        <ele>454.20001220703</ele>
        <time>2024-01-28T09:16:25.000Z</time>
      </trkpt>
      <trkpt lat="48.13074" lon="6.40127">
        <ele>454.20001220703</ele>
        <time>2024-01-28T09:16:26.000Z</time>
      </trkpt>
      <trkpt lat="48.13067" lon="6.40127">
        <ele>454.20001220703</ele>
        <time>2024-01-28T09:16:32.000Z</time>
      </trkpt>
      <trkpt lat="48.13066" lon="6.40126">
        <ele>454.39999389648</ele>
        <time>2024-01-28T09:16:34.000Z</time>
      </trkpt>
      <trkpt lat="48.13064" lon="6.40124">
        <ele>454.79998779297</ele>
        <time>2024-01-28T09:16:40.000Z</time>
      </trkpt>
      <trkpt lat="48.13063" lon="6.4012">
        <ele>455</ele>
        <time>2024-01-28T09:16:44.000Z</time>
      </trkpt>
      <trkpt lat="48.13062" lon="6.40119">
        <ele>455.20001220703</ele>
        <time>2024-01-28T09:16:45.000Z</time>
      </trkpt>
      <trkpt lat="48.13062" lon="6.40117">
        <ele>455.39999389648</ele>
        <time>2024-01-28T09:16:46.000Z</time>
      </trkpt>
      <trkpt lat="48.13061" lon="6.4011">
        <ele>456.60000610352</ele>
        <time>2024-01-28T09:16:51.000Z</time>
      </trkpt>
      <trkpt lat="48.1306" lon="6.40107">
        <ele>457.20001220703</ele>
        <time>2024-01-28T09:16:53.000Z</time>
      </trkpt>
      <trkpt lat="48.13058" lon="6.40104">
        <ele>457.79998779297</ele>
        <time>2024-01-28T09:16:55.000Z</time>
      </trkpt>
      <trkpt lat="48.13058" lon="6.40101">
        <ele>458.60000610352</ele>
        <time>2024-01-28T09:16:58.000Z</time>
      </trkpt>
      <trkpt lat="48.13057" lon="6.40099">
        <ele>458.79998779297</ele>
        <time>2024-01-28T09:16:59.000Z</time>
      </trkpt>
      <trkpt lat="48.13057" lon="6.40095">
        <ele>459.60000610352</ele>
        <time>2024-01-28T09:17:02.000Z</time>
      </trkpt>
      <trkpt lat="48.13056" lon="6.40094">
        <ele>460</ele>
        <time>2024-01-28T09:17:03.000Z</time>
      </trkpt>
      <trkpt lat="48.13056" lon="6.40089">
        <ele>460.79998779297</ele>
        <time>2024-01-28T09:17:06.000Z</time>
      </trkpt>
      <trkpt lat="48.13056" lon="6.40087">
        <ele>461</ele>
        <time>2024-01-28T09:17:07.000Z</time>
      </trkpt>
      <trkpt lat="48.13056" lon="6.40086">
        <ele>461.20001220703</ele>
        <time>2024-01-28T09:17:08.000Z</time>
      </trkpt>
      <trkpt lat="48.13055" lon="6.40083">
        <ele>462</ele>
        <time>2024-01-28T09:17:11.000Z</time>
      </trkpt>
      <trkpt lat="48.13055" lon="6.40082">
        <ele>462.20001220703</ele>
        <time>2024-01-28T09:17:12.000Z</time>
      </trkpt>
      <trkpt lat="48.13053" lon="6.40074">
        <ele>463.20001220703</ele>
        <time>2024-01-28T09:17:16.000Z</time>
      </trkpt>
      <trkpt lat="48.13053" lon="6.40073">
        <ele>463.20001220703</ele>
        <time>2024-01-28T09:17:17.000Z</time>
      </trkpt>
      <trkpt lat="48.13053" lon="6.40068">
        <ele>464</ele>
        <time>2024-01-28T09:17:20.000Z</time>
      </trkpt>
      <trkpt lat="48.13052" lon="6.40064">
        <ele>464.39999389648</ele>
        <time>2024-01-28T09:17:22.000Z</time>
      </trkpt>
      <trkpt lat="48.13052" lon="6.40062">
        <ele>464.39999389648</ele>
        <time>2024-01-28T09:17:23.000Z</time>
      </trkpt>
      <trkpt lat="48.13051" lon="6.40053">
        <ele>465</ele>
        <time>2024-01-28T09:17:27.000Z</time>
      </trkpt>
      <trkpt lat="48.13051" lon="6.40049">
        <ele>465</ele>
        <time>2024-01-28T09:17:28.000Z</time>
      </trkpt>
      <trkpt lat="48.1305" lon="6.40045">
        <ele>465.39999389648</ele>
        <time>2024-01-28T09:17:30.000Z</time>
      </trkpt>
      <trkpt lat="48.13048" lon="6.40037">
        <ele>465.79998779297</ele>
        <time>2024-01-28T09:17:35.000Z</time>
      </trkpt>
      <trkpt lat="48.13048" lon="6.40034">
        <ele>466.20001220703</ele>
        <time>2024-01-28T09:17:37.000Z</time>
      </trkpt>
      <trkpt lat="48.13049" lon="6.40032">
        <ele>466.39999389648</ele>
        <time>2024-01-28T09:17:39.000Z</time>
      </trkpt>
      <trkpt lat="48.1305" lon="6.40029">
        <ele>466.79998779297</ele>
        <time>2024-01-28T09:17:41.000Z</time>
      </trkpt>
      <trkpt lat="48.13051" lon="6.40022">
        <ele>467.20001220703</ele>
        <time>2024-01-28T09:17:45.000Z</time>
      </trkpt>
      <trkpt lat="48.13051" lon="6.40019">
        <ele>467.39999389648</ele>
        <time>2024-01-28T09:17:46.000Z</time>
      </trkpt>
      <trkpt lat="48.13052" lon="6.40017">
        <ele>467.60000610352</ele>
        <time>2024-01-28T09:17:47.000Z</time>
      </trkpt>
      <trkpt lat="48.13052" lon="6.40013">
        <ele>467.79998779297</ele>
        <time>2024-01-28T09:17:49.000Z</time>
      </trkpt>
      <trkpt lat="48.13052" lon="6.40005">
        <ele>468.60000610352</ele>
        <time>2024-01-28T09:17:54.000Z</time>
      </trkpt>
      <trkpt lat="48.13052" lon="6.40002">
        <ele>468.79998779297</ele>
        <time>2024-01-28T09:17:57.000Z</time>
      </trkpt>
      <trkpt lat="48.13052" lon="6.4">
        <ele>469</ele>
        <time>2024-01-28T09:17:59.000Z</time>
      </trkpt>
      <trkpt lat="48.1305" lon="6.39998">
        <ele>469.20001220703</ele>
        <time>2024-01-28T09:18:01.000Z</time>
      </trkpt>
      <trkpt lat="48.13049" lon="6.39997">
        <ele>469.20001220703</ele>
        <time>2024-01-28T09:18:03.000Z</time>
      </trkpt>
      <trkpt lat="48.1305" lon="6.39995">
        <ele>469</ele>
        <time>2024-01-28T09:18:05.000Z</time>
      </trkpt>
      <trkpt lat="48.13047" lon="6.39994">
        <ele>469</ele>
        <time>2024-01-28T09:18:11.000Z</time>
      </trkpt>
      <trkpt lat="48.13042" lon="6.39993">
        <ele>468.79998779297</ele>
        <time>2024-01-28T09:18:16.000Z</time>
      </trkpt>
      <trkpt lat="48.13041" lon="6.39993">
        <ele>468.79998779297</ele>
        <time>2024-01-28T09:18:17.000Z</time>
      </trkpt>
      <trkpt lat="48.13037" lon="6.39992">
        <ele>468.60000610352</ele>
        <time>2024-01-28T09:18:20.000Z</time>
      </trkpt>
      <trkpt lat="48.13034" lon="6.39992">
        <ele>468.60000610352</ele>
        <time>2024-01-28T09:18:23.000Z</time>
      </trkpt>
      <trkpt lat="48.1303" lon="6.39992">
        <ele>468.39999389648</ele>
        <time>2024-01-28T09:18:26.000Z</time>
      </trkpt>
      <trkpt lat="48.13025" lon="6.39993">
        <ele>468.39999389648</ele>
        <time>2024-01-28T09:18:30.000Z</time>
      </trkpt>
      <trkpt lat="48.13023" lon="6.39993">
        <ele>468.39999389648</ele>
        <time>2024-01-28T09:18:32.000Z</time>
      </trkpt>
      <trkpt lat="48.13021" lon="6.39993">
        <ele>468.39999389648</ele>
        <time>2024-01-28T09:18:34.000Z</time>
      </trkpt>
      <trkpt lat="48.1302" lon="6.39994">
        <ele>468.39999389648</ele>
        <time>2024-01-28T09:18:35.000Z</time>
      </trkpt>
      <trkpt lat="48.13017" lon="6.39996">
        <ele>468.39999389648</ele>
        <time>2024-01-28T09:18:38.000Z</time>
      </trkpt>
      <trkpt lat="48.13016" lon="6.39998">
        <ele>468.20001220703</ele>
        <time>2024-01-28T09:18:40.000Z</time>
      </trkpt>
      <trkpt lat="48.13013" lon="6.40001">
        <ele>468.20001220703</ele>
        <time>2024-01-28T09:18:43.000Z</time>
      </trkpt>
      <trkpt lat="48.1301" lon="6.40004">
        <ele>468</ele>
        <time>2024-01-28T09:18:46.000Z</time>
      </trkpt>
      <trkpt lat="48.13008" lon="6.40005">
        <ele>468</ele>
        <time>2024-01-28T09:18:47.000Z</time>
      </trkpt>
      <trkpt lat="48.13005" lon="6.40009">
        <ele>468</ele>
        <time>2024-01-28T09:18:51.000Z</time>
      </trkpt>
      <trkpt lat="48.13" lon="6.40014">
        <ele>468</ele>
        <time>2024-01-28T09:18:55.000Z</time>
      </trkpt>
      <trkpt lat="48.12987" lon="6.40035">
        <ele>467.79998779297</ele>
        <time>2024-01-28T09:19:06.000Z</time>
      </trkpt>
      <trkpt lat="48.12985" lon="6.40037">
        <ele>467.79998779297</ele>
        <time>2024-01-28T09:19:07.000Z</time>
      </trkpt>
      <trkpt lat="48.12981" lon="6.40043">
        <ele>467.79998779297</ele>
        <time>2024-01-28T09:19:12.000Z</time>
      </trkpt>
      <trkpt lat="48.12976" lon="6.40051">
        <ele>467.79998779297</ele>
        <time>2024-01-28T09:19:18.000Z</time>
      </trkpt>
      <trkpt lat="48.12975" lon="6.40053">
        <ele>467.79998779297</ele>
        <time>2024-01-28T09:19:20.000Z</time>
      </trkpt>
      <trkpt lat="48.12969" lon="6.4006">
        <ele>468</ele>
        <time>2024-01-28T09:19:25.000Z</time>
      </trkpt>
      <trkpt lat="48.12964" lon="6.40067">
        <ele>468.39999389648</ele>
        <time>2024-01-28T09:19:31.000Z</time>
      </trkpt>
      <trkpt lat="48.12962" lon="6.40069">
        <ele>468.39999389648</ele>
        <time>2024-01-28T09:19:32.000Z</time>
      </trkpt>
      <trkpt lat="48.12959" lon="6.40073">
        <ele>468.39999389648</ele>
        <time>2024-01-28T09:19:35.000Z</time>
      </trkpt>
      <trkpt lat="48.12957" lon="6.40076">
        <ele>468.39999389648</ele>
        <time>2024-01-28T09:19:37.000Z</time>
      </trkpt>
      <trkpt lat="48.12953" lon="6.40079">
        <ele>468.60000610352</ele>
        <time>2024-01-28T09:19:42.000Z</time>
      </trkpt>
      <trkpt lat="48.12947" lon="6.40085">
        <ele>468.79998779297</ele>
        <time>2024-01-28T09:19:50.000Z</time>
      </trkpt>
      <trkpt lat="48.12941" lon="6.40097">
        <ele>468.79998779297</ele>
        <time>2024-01-28T09:19:58.000Z</time>
      </trkpt>
      <trkpt lat="48.12937" lon="6.40105">
        <ele>469.20001220703</ele>
        <time>2024-01-28T09:20:03.000Z</time>
      </trkpt>
      <trkpt lat="48.12935" lon="6.4011">
        <ele>469.39999389648</ele>
        <time>2024-01-28T09:20:07.000Z</time>
      </trkpt>
      <trkpt lat="48.12934" lon="6.40113">
        <ele>469.39999389648</ele>
        <time>2024-01-28T09:20:09.000Z</time>
      </trkpt>
      <trkpt lat="48.12933" lon="6.40119">
        <ele>469.39999389648</ele>
        <time>2024-01-28T09:20:13.000Z</time>
      </trkpt>
      <trkpt lat="48.12931" lon="6.40125">
        <ele>469.39999389648</ele>
        <time>2024-01-28T09:20:17.000Z</time>
      </trkpt>
      <trkpt lat="48.12931" lon="6.40129">
        <ele>469.39999389648</ele>
        <time>2024-01-28T09:20:19.000Z</time>
      </trkpt>
      <trkpt lat="48.1293" lon="6.40133">
        <ele>469.60000610352</ele>
        <time>2024-01-28T09:20:22.000Z</time>
      </trkpt>
      <trkpt lat="48.12927" lon="6.40145">
        <ele>469.60000610352</ele>
        <time>2024-01-28T09:20:28.000Z</time>
      </trkpt>
      <trkpt lat="48.12927" lon="6.40148">
        <ele>469.60000610352</ele>
        <time>2024-01-28T09:20:29.000Z</time>
      </trkpt>
      <trkpt lat="48.12927" lon="6.40151">
        <ele>469.60000610352</ele>
        <time>2024-01-28T09:20:30.000Z</time>
      </trkpt>
      <trkpt lat="48.12925" lon="6.40161">
        <ele>469.60000610352</ele>
        <time>2024-01-28T09:20:36.000Z</time>
      </trkpt>
      <trkpt lat="48.12924" lon="6.40163">
        <ele>469.60000610352</ele>
        <time>2024-01-28T09:20:37.000Z</time>
      </trkpt>
      <trkpt lat="48.12924" lon="6.40165">
        <ele>469.60000610352</ele>
        <time>2024-01-28T09:20:38.000Z</time>
      </trkpt>
      <trkpt lat="48.1292" lon="6.40172">
        <ele>469.60000610352</ele>
        <time>2024-01-28T09:20:42.000Z</time>
      </trkpt>
      <trkpt lat="48.1292" lon="6.40173">
        <ele>469.60000610352</ele>
        <time>2024-01-28T09:20:43.000Z</time>
      </trkpt>
      <trkpt lat="48.12914" lon="6.40184">
        <ele>469.39999389648</ele>
        <time>2024-01-28T09:20:51.000Z</time>
      </trkpt>
      <trkpt lat="48.12913" lon="6.40187">
        <ele>469.39999389648</ele>
        <time>2024-01-28T09:20:54.000Z</time>
      </trkpt>
      <trkpt lat="48.12911" lon="6.40194">
        <ele>469.39999389648</ele>
        <time>2024-01-28T09:20:58.000Z</time>
      </trkpt>
      <trkpt lat="48.12906" lon="6.40207">
        <ele>469.20001220703</ele>
        <time>2024-01-28T09:21:05.000Z</time>
      </trkpt>
      <trkpt lat="48.12905" lon="6.40212">
        <ele>469</ele>
        <time>2024-01-28T09:21:08.000Z</time>
      </trkpt>
      <trkpt lat="48.12904" lon="6.40211">
        <ele>469</ele>
        <time>2024-01-28T09:21:09.000Z</time>
      </trkpt>
      <trkpt lat="48.12904" lon="6.40212">
        <ele>469</ele>
        <time>2024-01-28T09:21:11.000Z</time>
      </trkpt>
      <trkpt lat="48.12905" lon="6.40216">
        <ele>468.79998779297</ele>
        <time>2024-01-28T09:21:18.000Z</time>
      </trkpt>
      <trkpt lat="48.12905" lon="6.40216">
        <ele>468.79998779297</ele>
        <time>2024-01-28T09:21:21.000Z</time>
      </trkpt>
      <trkpt lat="48.12909" lon="6.40224">
        <ele>468.60000610352</ele>
        <time>2024-01-28T09:21:28.000Z</time>
      </trkpt>
      <trkpt lat="48.12914" lon="6.40237">
        <ele>468.39999389648</ele>
        <time>2024-01-28T09:21:35.000Z</time>
      </trkpt>
      <trkpt lat="48.12915" lon="6.40238">
        <ele>468.20001220703</ele>
        <time>2024-01-28T09:21:36.000Z</time>
      </trkpt>
      <trkpt lat="48.12916" lon="6.40244">
        <ele>468</ele>
        <time>2024-01-28T09:21:39.000Z</time>
      </trkpt>
      <trkpt lat="48.12917" lon="6.40248">
        <ele>468</ele>
        <time>2024-01-28T09:21:41.000Z</time>
      </trkpt>
      <trkpt lat="48.12922" lon="6.40258">
        <ele>467.39999389648</ele>
        <time>2024-01-28T09:21:46.000Z</time>
      </trkpt>
      <trkpt lat="48.12922" lon="6.40264">
        <ele>466.79998779297</ele>
        <time>2024-01-28T09:21:49.000Z</time>
      </trkpt>
      <trkpt lat="48.12922" lon="6.40266">
        <ele>466.60000610352</ele>
        <time>2024-01-28T09:21:50.000Z</time>
      </trkpt>
      <trkpt lat="48.12923" lon="6.40268">
        <ele>466.39999389648</ele>
        <time>2024-01-28T09:21:51.000Z</time>
      </trkpt>
      <trkpt lat="48.12924" lon="6.40277">
        <ele>466</ele>
        <time>2024-01-28T09:21:56.000Z</time>
      </trkpt>
      <trkpt lat="48.12924" lon="6.40286">
        <ele>465.79998779297</ele>
        <time>2024-01-28T09:22:00.000Z</time>
      </trkpt>
      <trkpt lat="48.12925" lon="6.40288">
        <ele>465.79998779297</ele>
        <time>2024-01-28T09:22:01.000Z</time>
      </trkpt>
      <trkpt lat="48.12926" lon="6.40296">
        <ele>465.60000610352</ele>
        <time>2024-01-28T09:22:05.000Z</time>
      </trkpt>
      <trkpt lat="48.12927" lon="6.40301">
        <ele>465.39999389648</ele>
        <time>2024-01-28T09:22:08.000Z</time>
      </trkpt>
      <trkpt lat="48.12931" lon="6.40318">
        <ele>464.60000610352</ele>
        <time>2024-01-28T09:22:17.000Z</time>
      </trkpt>
      <trkpt lat="48.12932" lon="6.40323">
        <ele>464.20001220703</ele>
        <time>2024-01-28T09:22:20.000Z</time>
      </trkpt>
      <trkpt lat="48.12933" lon="6.40324">
        <ele>464.20001220703</ele>
        <time>2024-01-28T09:22:21.000Z</time>
      </trkpt>
      <trkpt lat="48.12934" lon="6.40334">
        <ele>463.79998779297</ele>
        <time>2024-01-28T09:22:25.000Z</time>
      </trkpt>
      <trkpt lat="48.12936" lon="6.40341">
        <ele>463</ele>
        <time>2024-01-28T09:22:29.000Z</time>
      </trkpt>
      <trkpt lat="48.12935" lon="6.40351">
        <ele>462.39999389648</ele>
        <time>2024-01-28T09:22:34.000Z</time>
      </trkpt>
      <trkpt lat="48.12936" lon="6.40354">
        <ele>462</ele>
        <time>2024-01-28T09:22:36.000Z</time>
      </trkpt>
      <trkpt lat="48.12939" lon="6.4036">
        <ele>461</ele>
        <time>2024-01-28T09:22:40.000Z</time>
      </trkpt>
      <trkpt lat="48.1294" lon="6.40363">
        <ele>460.60000610352</ele>
        <time>2024-01-28T09:22:42.000Z</time>
      </trkpt>
      <trkpt lat="48.12944" lon="6.40373">
        <ele>460</ele>
        <time>2024-01-28T09:22:47.000Z</time>
      </trkpt>
      <trkpt lat="48.12946" lon="6.40381">
        <ele>459.20001220703</ele>
        <time>2024-01-28T09:22:51.000Z</time>
      </trkpt>
      <trkpt lat="48.12947" lon="6.40385">
        <ele>458.79998779297</ele>
        <time>2024-01-28T09:22:53.000Z</time>
      </trkpt>
      <trkpt lat="48.12949" lon="6.40397">
        <ele>457.79998779297</ele>
        <time>2024-01-28T09:22:59.000Z</time>
      </trkpt>
      <trkpt lat="48.12953" lon="6.40403">
        <ele>456.60000610352</ele>
        <time>2024-01-28T09:23:05.000Z</time>
      </trkpt>
      <trkpt lat="48.12955" lon="6.40408">
        <ele>456</ele>
        <time>2024-01-28T09:23:08.000Z</time>
      </trkpt>
      <trkpt lat="48.12956" lon="6.40412">
        <ele>455.79998779297</ele>
        <time>2024-01-28T09:23:12.000Z</time>
      </trkpt>
      <trkpt lat="48.12956" lon="6.40413">
        <ele>455.60000610352</ele>
        <time>2024-01-28T09:23:13.000Z</time>
      </trkpt>
      <trkpt lat="48.12959" lon="6.40413">
        <ele>455.20001220703</ele>
        <time>2024-01-28T09:23:16.000Z</time>
      </trkpt>
      <trkpt lat="48.12962" lon="6.40413">
        <ele>454.39999389648</ele>
        <time>2024-01-28T09:23:20.000Z</time>
      </trkpt>
      <trkpt lat="48.12964" lon="6.40414">
        <ele>454.20001220703</ele>
        <time>2024-01-28T09:23:21.000Z</time>
      </trkpt>
      <trkpt lat="48.12968" lon="6.40416">
        <ele>453.39999389648</ele>
        <time>2024-01-28T09:23:25.000Z</time>
      </trkpt>
      <trkpt lat="48.12971" lon="6.4042">
        <ele>453</ele>
        <time>2024-01-28T09:23:29.000Z</time>
      </trkpt>
      <trkpt lat="48.12973" lon="6.40423">
        <ele>452.79998779297</ele>
        <time>2024-01-28T09:23:31.000Z</time>
      </trkpt>
      <trkpt lat="48.12976" lon="6.40432">
        <ele>452.79998779297</ele>
        <time>2024-01-28T09:23:36.000Z</time>
      </trkpt>
      <trkpt lat="48.12977" lon="6.40437">
        <ele>453.20001220703</ele>
        <time>2024-01-28T09:23:39.000Z</time>
      </trkpt>
      <trkpt lat="48.12983" lon="6.40451">
        <ele>453.39999389648</ele>
        <time>2024-01-28T09:23:46.000Z</time>
      </trkpt>
      <trkpt lat="48.12983" lon="6.40452">
        <ele>453.20001220703</ele>
        <time>2024-01-28T09:23:47.000Z</time>
      </trkpt>
      <trkpt lat="48.12983" lon="6.40452">
        <ele>453.20001220703</ele>
        <time>2024-01-28T09:23:51.000Z</time>
      </trkpt>
      <trkpt lat="48.12982" lon="6.40452">
        <ele>453.20001220703</ele>
        <time>2024-01-28T09:23:55.000Z</time>
      </trkpt>
      <trkpt lat="48.12982" lon="6.40452">
        <ele>453.20001220703</ele>
        <time>2024-01-28T09:23:57.000Z</time>
      </trkpt>
      <trkpt lat="48.12987" lon="6.40464">
        <ele>453</ele>
        <time>2024-01-28T09:24:04.000Z</time>
      </trkpt>
      <trkpt lat="48.12996" lon="6.40481">
        <ele>453.20001220703</ele>
        <time>2024-01-28T09:24:13.000Z</time>
      </trkpt>
      <trkpt lat="48.13002" lon="6.40486">
        <ele>453.39999389648</ele>
        <time>2024-01-28T09:24:19.000Z</time>
      </trkpt>
      <trkpt lat="48.13008" lon="6.40493">
        <ele>453.39999389648</ele>
        <time>2024-01-28T09:24:24.000Z</time>
      </trkpt>
      <trkpt lat="48.13012" lon="6.40496">
        <ele>453.60000610352</ele>
        <time>2024-01-28T09:24:27.000Z</time>
      </trkpt>
      <trkpt lat="48.13014" lon="6.40497">
        <ele>453.60000610352</ele>
        <time>2024-01-28T09:24:28.000Z</time>
      </trkpt>
      <trkpt lat="48.13019" lon="6.40501">
        <ele>453.79998779297</ele>
        <time>2024-01-28T09:24:32.000Z</time>
      </trkpt>
      <trkpt lat="48.13022" lon="6.40506">
        <ele>454</ele>
        <time>2024-01-28T09:24:35.000Z</time>
      </trkpt>
      <trkpt lat="48.1303" lon="6.40515">
        <ele>453.79998779297</ele>
        <time>2024-01-28T09:24:43.000Z</time>
      </trkpt>
      <trkpt lat="48.13039" lon="6.40521">
        <ele>453.60000610352</ele>
        <time>2024-01-28T09:24:52.000Z</time>
      </trkpt>
      <trkpt lat="48.13047" lon="6.40531">
        <ele>453.60000610352</ele>
        <time>2024-01-28T09:24:59.000Z</time>
      </trkpt>
      <trkpt lat="48.13049" lon="6.40535">
        <ele>453.79998779297</ele>
        <time>2024-01-28T09:25:01.000Z</time>
      </trkpt>
      <trkpt lat="48.13052" lon="6.40541">
        <ele>453.79998779297</ele>
        <time>2024-01-28T09:25:05.000Z</time>
      </trkpt>
      <trkpt lat="48.13056" lon="6.40558">
        <ele>454.20001220703</ele>
        <time>2024-01-28T09:25:13.000Z</time>
      </trkpt>
      <trkpt lat="48.13056" lon="6.4056">
        <ele>454.20001220703</ele>
        <time>2024-01-28T09:25:14.000Z</time>
      </trkpt>
      <trkpt lat="48.13055" lon="6.40567">
        <ele>454.39999389648</ele>
        <time>2024-01-28T09:25:18.000Z</time>
      </trkpt>
      <trkpt lat="48.13055" lon="6.40578">
        <ele>454.79998779297</ele>
        <time>2024-01-28T09:25:23.000Z</time>
      </trkpt>
      <trkpt lat="48.13055" lon="6.40596">
        <ele>455.39999389648</ele>
        <time>2024-01-28T09:25:32.000Z</time>
      </trkpt>
      <trkpt lat="48.13055" lon="6.406">
        <ele>455.39999389648</ele>
        <time>2024-01-28T09:25:34.000Z</time>
      </trkpt>
      <trkpt lat="48.13055" lon="6.40605">
        <ele>455.60000610352</ele>
        <time>2024-01-28T09:25:36.000Z</time>
      </trkpt>
      <trkpt lat="48.13055" lon="6.40626">
        <ele>455.39999389648</ele>
        <time>2024-01-28T09:25:45.000Z</time>
      </trkpt>
      <trkpt lat="48.13053" lon="6.40639">
        <ele>455.20001220703</ele>
        <time>2024-01-28T09:25:52.000Z</time>
      </trkpt>
      <trkpt lat="48.13047" lon="6.40656">
        <ele>454.60000610352</ele>
        <time>2024-01-28T09:26:00.000Z</time>
      </trkpt>
      <trkpt lat="48.13046" lon="6.40658">
        <ele>454.39999389648</ele>
        <time>2024-01-28T09:26:01.000Z</time>
      </trkpt>
      <trkpt lat="48.13045" lon="6.40662">
        <ele>454.39999389648</ele>
        <time>2024-01-28T09:26:03.000Z</time>
      </trkpt>
      <trkpt lat="48.13037" lon="6.40681">
        <ele>453.60000610352</ele>
        <time>2024-01-28T09:26:14.000Z</time>
      </trkpt>
      <trkpt lat="48.13036" lon="6.40683">
        <ele>453.39999389648</ele>
        <time>2024-01-28T09:26:15.000Z</time>
      </trkpt>
      <trkpt lat="48.13027" lon="6.407">
        <ele>452.60000610352</ele>
        <time>2024-01-28T09:26:24.000Z</time>
      </trkpt>
      <trkpt lat="48.13025" lon="6.40704">
        <ele>452.39999389648</ele>
        <time>2024-01-28T09:26:26.000Z</time>
      </trkpt>
      <trkpt lat="48.13023" lon="6.40708">
        <ele>452</ele>
        <time>2024-01-28T09:26:29.000Z</time>
      </trkpt>
      <trkpt lat="48.13021" lon="6.40712">
        <ele>451.79998779297</ele>
        <time>2024-01-28T09:26:32.000Z</time>
      </trkpt>
      <trkpt lat="48.13017" lon="6.4072">
        <ele>451.39999389648</ele>
        <time>2024-01-28T09:26:37.000Z</time>
      </trkpt>
      <trkpt lat="48.13014" lon="6.40729">
        <ele>451</ele>
        <time>2024-01-28T09:26:42.000Z</time>
      </trkpt>
      <trkpt lat="48.13009" lon="6.40739">
        <ele>450.79998779297</ele>
        <time>2024-01-28T09:26:47.000Z</time>
      </trkpt>
      <trkpt lat="48.13006" lon="6.40746">
        <ele>450.60000610352</ele>
        <time>2024-01-28T09:26:51.000Z</time>
      </trkpt>
      <trkpt lat="48.13005" lon="6.40748">
        <ele>450.39999389648</ele>
        <time>2024-01-28T09:26:52.000Z</time>
      </trkpt>
      <trkpt lat="48.13002" lon="6.40754">
        <ele>450.20001220703</ele>
        <time>2024-01-28T09:26:55.000Z</time>
      </trkpt>
      <trkpt lat="48.12996" lon="6.40765">
        <ele>449.60000610352</ele>
        <time>2024-01-28T09:27:02.000Z</time>
      </trkpt>
      <trkpt lat="48.12995" lon="6.40768">
        <ele>449.20001220703</ele>
        <time>2024-01-28T09:27:04.000Z</time>
      </trkpt>
      <trkpt lat="48.12993" lon="6.4078">
        <ele>448.39999389648</ele>
        <time>2024-01-28T09:27:09.000Z</time>
      </trkpt>
      <trkpt lat="48.12991" lon="6.40783">
        <ele>448</ele>
        <time>2024-01-28T09:27:11.000Z</time>
      </trkpt>
      <trkpt lat="48.1299" lon="6.40785">
        <ele>447.79998779297</ele>
        <time>2024-01-28T09:27:12.000Z</time>
      </trkpt>
      <trkpt lat="48.12987" lon="6.40791">
        <ele>447.60000610352</ele>
        <time>2024-01-28T09:27:16.000Z</time>
      </trkpt>
      <trkpt lat="48.12983" lon="6.40803">
        <ele>447.60000610352</ele>
        <time>2024-01-28T09:27:22.000Z</time>
      </trkpt>
      <trkpt lat="48.1298" lon="6.40823">
        <ele>447</ele>
        <time>2024-01-28T09:27:31.000Z</time>
      </trkpt>
      <trkpt lat="48.1298" lon="6.40827">
        <ele>446.79998779297</ele>
        <time>2024-01-28T09:27:33.000Z</time>
      </trkpt>
      <trkpt lat="48.12984" lon="6.40844">
        <ele>446.60000610352</ele>
        <time>2024-01-28T09:27:43.000Z</time>
      </trkpt>
      <trkpt lat="48.1299" lon="6.40858">
        <ele>446.60000610352</ele>
        <time>2024-01-28T09:27:50.000Z</time>
      </trkpt>
      <trkpt lat="48.12994" lon="6.40863">
        <ele>446.60000610352</ele>
        <time>2024-01-28T09:27:53.000Z</time>
      </trkpt>
      <trkpt lat="48.13004" lon="6.40876">
        <ele>446.60000610352</ele>
        <time>2024-01-28T09:28:03.000Z</time>
      </trkpt>
      <trkpt lat="48.13017" lon="6.40893">
        <ele>446.60000610352</ele>
        <time>2024-01-28T09:28:15.000Z</time>
      </trkpt>
      <trkpt lat="48.13026" lon="6.40905">
        <ele>446.60000610352</ele>
        <time>2024-01-28T09:28:24.000Z</time>
      </trkpt>
      <trkpt lat="48.13027" lon="6.40906">
        <ele>446.60000610352</ele>
        <time>2024-01-28T09:28:25.000Z</time>
      </trkpt>
      <trkpt lat="48.13032" lon="6.40912">
        <ele>446.60000610352</ele>
        <time>2024-01-28T09:28:29.000Z</time>
      </trkpt>
      <trkpt lat="48.13038" lon="6.40923">
        <ele>446.60000610352</ele>
        <time>2024-01-28T09:28:37.000Z</time>
      </trkpt>
      <trkpt lat="48.13046" lon="6.40937">
        <ele>446.60000610352</ele>
        <time>2024-01-28T09:28:46.000Z</time>
      </trkpt>
      <trkpt lat="48.13051" lon="6.40949">
        <ele>446.39999389648</ele>
        <time>2024-01-28T09:28:53.000Z</time>
      </trkpt>
      <trkpt lat="48.13055" lon="6.40957">
        <ele>446.39999389648</ele>
        <time>2024-01-28T09:28:58.000Z</time>
      </trkpt>
      <trkpt lat="48.13064" lon="6.40979">
        <ele>446.60000610352</ele>
        <time>2024-01-28T09:29:10.000Z</time>
      </trkpt>
      <trkpt lat="48.13071" lon="6.40993">
        <ele>446.60000610352</ele>
        <time>2024-01-28T09:29:18.000Z</time>
      </trkpt>
      <trkpt lat="48.13073" lon="6.40996">
        <ele>446.60000610352</ele>
        <time>2024-01-28T09:29:20.000Z</time>
      </trkpt>
      <trkpt lat="48.13082" lon="6.41013">
        <ele>446.60000610352</ele>
        <time>2024-01-28T09:29:31.000Z</time>
      </trkpt>
      <trkpt lat="48.1309" lon="6.41029">
        <ele>446.60000610352</ele>
        <time>2024-01-28T09:29:41.000Z</time>
      </trkpt>
      <trkpt lat="48.13099" lon="6.41045">
        <ele>446.79998779297</ele>
        <time>2024-01-28T09:29:51.000Z</time>
      </trkpt>
      <trkpt lat="48.13112" lon="6.41065">
        <ele>446.60000610352</ele>
        <time>2024-01-28T09:30:04.000Z</time>
      </trkpt>
      <trkpt lat="48.13117" lon="6.41076">
        <ele>446.20001220703</ele>
        <time>2024-01-28T09:30:11.000Z</time>
      </trkpt>
      <trkpt lat="48.1312" lon="6.41081">
        <ele>446</ele>
        <time>2024-01-28T09:30:14.000Z</time>
      </trkpt>
      <trkpt lat="48.13122" lon="6.41085">
        <ele>445.79998779297</ele>
        <time>2024-01-28T09:30:16.000Z</time>
      </trkpt>
      <trkpt lat="48.13129" lon="6.41099">
        <ele>445.39999389648</ele>
        <time>2024-01-28T09:30:25.000Z</time>
      </trkpt>
      <trkpt lat="48.13136" lon="6.41116">
        <ele>444.79998779297</ele>
        <time>2024-01-28T09:30:34.000Z</time>
      </trkpt>
      <trkpt lat="48.13137" lon="6.41117">
        <ele>444.79998779297</ele>
        <time>2024-01-28T09:30:35.000Z</time>
      </trkpt>
      <trkpt lat="48.13137" lon="6.41119">
        <ele>444.79998779297</ele>
        <time>2024-01-28T09:30:36.000Z</time>
      </trkpt>
      <trkpt lat="48.13145" lon="6.41137">
        <ele>444.20001220703</ele>
        <time>2024-01-28T09:30:47.000Z</time>
      </trkpt>
      <trkpt lat="48.13152" lon="6.41153">
        <ele>443.79998779297</ele>
        <time>2024-01-28T09:30:57.000Z</time>
      </trkpt>
      <trkpt lat="48.13153" lon="6.41155">
        <ele>443.79998779297</ele>
        <time>2024-01-28T09:30:58.000Z</time>
      </trkpt>
      <trkpt lat="48.1316" lon="6.41175">
        <ele>442.79998779297</ele>
        <time>2024-01-28T09:31:09.000Z</time>
      </trkpt>
      <trkpt lat="48.1316" lon="6.41177">
        <ele>442.79998779297</ele>
        <time>2024-01-28T09:31:10.000Z</time>
      </trkpt>
      <trkpt lat="48.13161" lon="6.4118">
        <ele>442.60000610352</ele>
        <time>2024-01-28T09:31:12.000Z</time>
      </trkpt>
      <trkpt lat="48.13162" lon="6.41182">
        <ele>442.39999389648</ele>
        <time>2024-01-28T09:31:13.000Z</time>
      </trkpt>
      <trkpt lat="48.13162" lon="6.41184">
        <ele>442.39999389648</ele>
        <time>2024-01-28T09:31:14.000Z</time>
      </trkpt>
      <trkpt lat="48.13166" lon="6.41195">
        <ele>441.60000610352</ele>
        <time>2024-01-28T09:31:20.000Z</time>
      </trkpt>
      <trkpt lat="48.13169" lon="6.41204">
        <ele>441</ele>
        <time>2024-01-28T09:31:24.000Z</time>
      </trkpt>
      <trkpt lat="48.13171" lon="6.41209">
        <ele>440.79998779297</ele>
        <time>2024-01-28T09:31:26.000Z</time>
      </trkpt>
      <trkpt lat="48.13172" lon="6.41213">
        <ele>440.60000610352</ele>
        <time>2024-01-28T09:31:28.000Z</time>
      </trkpt>
      <trkpt lat="48.13177" lon="6.41225">
        <ele>440</ele>
        <time>2024-01-28T09:31:36.000Z</time>
      </trkpt>
      <trkpt lat="48.13178" lon="6.41227">
        <ele>439.79998779297</ele>
        <time>2024-01-28T09:31:37.000Z</time>
      </trkpt>
      <trkpt lat="48.13181" lon="6.41241">
        <ele>439.60000610352</ele>
        <time>2024-01-28T09:31:44.000Z</time>
      </trkpt>
      <trkpt lat="48.13183" lon="6.41247">
        <ele>439.39999389648</ele>
        <time>2024-01-28T09:31:48.000Z</time>
      </trkpt>
      <trkpt lat="48.13186" lon="6.41254">
        <ele>439.20001220703</ele>
        <time>2024-01-28T09:31:52.000Z</time>
      </trkpt>
      <trkpt lat="48.13192" lon="6.41266">
        <ele>439</ele>
        <time>2024-01-28T09:31:59.000Z</time>
      </trkpt>
      <trkpt lat="48.13195" lon="6.41278">
        <ele>438.60000610352</ele>
        <time>2024-01-28T09:32:06.000Z</time>
      </trkpt>
      <trkpt lat="48.13196" lon="6.41284">
        <ele>438.39999389648</ele>
        <time>2024-01-28T09:32:09.000Z</time>
      </trkpt>
      <trkpt lat="48.13203" lon="6.41302">
        <ele>437.79998779297</ele>
        <time>2024-01-28T09:32:20.000Z</time>
      </trkpt>
      <trkpt lat="48.13205" lon="6.41313">
        <ele>437.60000610352</ele>
        <time>2024-01-28T09:32:25.000Z</time>
      </trkpt>
      <trkpt lat="48.13207" lon="6.41322">
        <ele>437.60000610352</ele>
        <time>2024-01-28T09:32:30.000Z</time>
      </trkpt>
      <trkpt lat="48.13208" lon="6.41325">
        <ele>437.60000610352</ele>
        <time>2024-01-28T09:32:32.000Z</time>
      </trkpt>
      <trkpt lat="48.13212" lon="6.4134">
        <ele>437.60000610352</ele>
        <time>2024-01-28T09:32:41.000Z</time>
      </trkpt>
      <trkpt lat="48.13218" lon="6.41358">
        <ele>437.60000610352</ele>
        <time>2024-01-28T09:32:50.000Z</time>
      </trkpt>
      <trkpt lat="48.13219" lon="6.41362">
        <ele>437.60000610352</ele>
        <time>2024-01-28T09:32:52.000Z</time>
      </trkpt>
      <trkpt lat="48.13225" lon="6.41377">
        <ele>437.79998779297</ele>
        <time>2024-01-28T09:33:01.000Z</time>
      </trkpt>
      <trkpt lat="48.13225" lon="6.41379">
        <ele>437.79998779297</ele>
        <time>2024-01-28T09:33:02.000Z</time>
      </trkpt>
      <trkpt lat="48.13233" lon="6.41398">
        <ele>438.20001220703</ele>
        <time>2024-01-28T09:33:13.000Z</time>
      </trkpt>
      <trkpt lat="48.13235" lon="6.41402">
        <ele>438.20001220703</ele>
        <time>2024-01-28T09:33:15.000Z</time>
      </trkpt>
      <trkpt lat="48.13236" lon="6.41406">
        <ele>438.39999389648</ele>
        <time>2024-01-28T09:33:17.000Z</time>
      </trkpt>
      <trkpt lat="48.13237" lon="6.41409">
        <ele>438.39999389648</ele>
        <time>2024-01-28T09:33:19.000Z</time>
      </trkpt>
      <trkpt lat="48.13239" lon="6.41414">
        <ele>438.60000610352</ele>
        <time>2024-01-28T09:33:22.000Z</time>
      </trkpt>
      <trkpt lat="48.13241" lon="6.41417">
        <ele>438.60000610352</ele>
        <time>2024-01-28T09:33:24.000Z</time>
      </trkpt>
      <trkpt lat="48.13246" lon="6.4143">
        <ele>439</ele>
        <time>2024-01-28T09:33:32.000Z</time>
      </trkpt>
      <trkpt lat="48.13255" lon="6.4145">
        <ele>439.39999389648</ele>
        <time>2024-01-28T09:33:44.000Z</time>
      </trkpt>
      <trkpt lat="48.13256" lon="6.41452">
        <ele>439.39999389648</ele>
        <time>2024-01-28T09:33:45.000Z</time>
      </trkpt>
      <trkpt lat="48.13261" lon="6.4147">
        <ele>439.60000610352</ele>
        <time>2024-01-28T09:33:55.000Z</time>
      </trkpt>
      <trkpt lat="48.13264" lon="6.41475">
        <ele>439.60000610352</ele>
        <time>2024-01-28T09:33:58.000Z</time>
      </trkpt>
      <trkpt lat="48.13266" lon="6.41483">
        <ele>439.60000610352</ele>
        <time>2024-01-28T09:34:03.000Z</time>
      </trkpt>
      <trkpt lat="48.13267" lon="6.41485">
        <ele>439.60000610352</ele>
        <time>2024-01-28T09:34:04.000Z</time>
      </trkpt>
      <trkpt lat="48.13269" lon="6.4149">
        <ele>439.60000610352</ele>
        <time>2024-01-28T09:34:07.000Z</time>
      </trkpt>
      <trkpt lat="48.13272" lon="6.41499">
        <ele>439.39999389648</ele>
        <time>2024-01-28T09:34:12.000Z</time>
      </trkpt>
      <trkpt lat="48.13274" lon="6.41503">
        <ele>439.39999389648</ele>
        <time>2024-01-28T09:34:15.000Z</time>
      </trkpt>
      <trkpt lat="48.13275" lon="6.41505">
        <ele>439.20001220703</ele>
        <time>2024-01-28T09:34:16.000Z</time>
      </trkpt>
      <trkpt lat="48.13278" lon="6.41508">
        <ele>439.20001220703</ele>
        <time>2024-01-28T09:34:20.000Z</time>
      </trkpt>
      <trkpt lat="48.13283" lon="6.41517">
        <ele>438.79998779297</ele>
        <time>2024-01-28T09:34:26.000Z</time>
      </trkpt>
      <trkpt lat="48.13284" lon="6.41519">
        <ele>438.79998779297</ele>
        <time>2024-01-28T09:34:27.000Z</time>
      </trkpt>
      <trkpt lat="48.13287" lon="6.41525">
        <ele>438.60000610352</ele>
        <time>2024-01-28T09:34:31.000Z</time>
      </trkpt>
      <trkpt lat="48.13287" lon="6.41526">
        <ele>438.60000610352</ele>
        <time>2024-01-28T09:34:32.000Z</time>
      </trkpt>
      <trkpt lat="48.13288" lon="6.41528">
        <ele>438.60000610352</ele>
        <time>2024-01-28T09:34:33.000Z</time>
      </trkpt>
      <trkpt lat="48.13289" lon="6.41529">
        <ele>438.60000610352</ele>
        <time>2024-01-28T09:34:34.000Z</time>
      </trkpt>
      <trkpt lat="48.1329" lon="6.4153">
        <ele>438.60000610352</ele>
        <time>2024-01-28T09:34:35.000Z</time>
      </trkpt>
      <trkpt lat="48.1329" lon="6.41532">
        <ele>438.60000610352</ele>
        <time>2024-01-28T09:34:36.000Z</time>
      </trkpt>
      <trkpt lat="48.13291" lon="6.41533">
        <ele>438.60000610352</ele>
        <time>2024-01-28T09:34:37.000Z</time>
      </trkpt>
      <trkpt lat="48.13293" lon="6.41535">
        <ele>438.39999389648</ele>
        <time>2024-01-28T09:34:38.000Z</time>
      </trkpt>
      <trkpt lat="48.13298" lon="6.41543">
        <ele>438.20001220703</ele>
        <time>2024-01-28T09:34:43.000Z</time>
      </trkpt>
      <trkpt lat="48.13299" lon="6.41545">
        <ele>438.20001220703</ele>
        <time>2024-01-28T09:34:44.000Z</time>
      </trkpt>
      <trkpt lat="48.13307" lon="6.41558">
        <ele>437.79998779297</ele>
        <time>2024-01-28T09:34:52.000Z</time>
      </trkpt>
      <trkpt lat="48.13309" lon="6.4156">
        <ele>437.79998779297</ele>
        <time>2024-01-28T09:34:54.000Z</time>
      </trkpt>
      <trkpt lat="48.13315" lon="6.4157">
        <ele>437.60000610352</ele>
        <time>2024-01-28T09:35:00.000Z</time>
      </trkpt>
      <trkpt lat="48.1332" lon="6.41579">
        <ele>437.39999389648</ele>
        <time>2024-01-28T09:35:06.000Z</time>
      </trkpt>
      <trkpt lat="48.13333" lon="6.41597">
        <ele>437.39999389648</ele>
        <time>2024-01-28T09:35:18.000Z</time>
      </trkpt>
      <trkpt lat="48.13342" lon="6.41615">
        <ele>437.20001220703</ele>
        <time>2024-01-28T09:35:29.000Z</time>
      </trkpt>
      <trkpt lat="48.13348" lon="6.41629">
        <ele>437.20001220703</ele>
        <time>2024-01-28T09:35:38.000Z</time>
      </trkpt>
      <trkpt lat="48.13355" lon="6.41644">
        <ele>436.79998779297</ele>
        <time>2024-01-28T09:35:48.000Z</time>
      </trkpt>
      <trkpt lat="48.13358" lon="6.41649">
        <ele>436.79998779297</ele>
        <time>2024-01-28T09:35:51.000Z</time>
      </trkpt>
      <trkpt lat="48.13362" lon="6.41658">
        <ele>436.60000610352</ele>
        <time>2024-01-28T09:35:56.000Z</time>
      </trkpt>
      <trkpt lat="48.13365" lon="6.41664">
        <ele>436.60000610352</ele>
        <time>2024-01-28T09:36:00.000Z</time>
      </trkpt>
      <trkpt lat="48.13371" lon="6.4168">
        <ele>436.20001220703</ele>
        <time>2024-01-28T09:36:10.000Z</time>
      </trkpt>
      <trkpt lat="48.13374" lon="6.41691">
        <ele>436</ele>
        <time>2024-01-28T09:36:16.000Z</time>
      </trkpt>
      <trkpt lat="48.13377" lon="6.41695">
        <ele>436</ele>
        <time>2024-01-28T09:36:20.000Z</time>
      </trkpt>
      <trkpt lat="48.1338" lon="6.41702">
        <ele>435.39999389648</ele>
        <time>2024-01-28T09:36:26.000Z</time>
      </trkpt>
      <trkpt lat="48.1338" lon="6.41702">
        <ele>435.20001220703</ele>
        <time>2024-01-28T09:36:27.000Z</time>
      </trkpt>
      <trkpt lat="48.13382" lon="6.41711">
        <ele>435.39999389648</ele>
        <time>2024-01-28T09:36:35.000Z</time>
      </trkpt>
      <trkpt lat="48.13385" lon="6.41723">
        <ele>435</ele>
        <time>2024-01-28T09:36:42.000Z</time>
      </trkpt>
      <trkpt lat="48.13386" lon="6.41734">
        <ele>434.39999389648</ele>
        <time>2024-01-28T09:36:47.000Z</time>
      </trkpt>
      <trkpt lat="48.13386" lon="6.41736">
        <ele>434.39999389648</ele>
        <time>2024-01-28T09:36:48.000Z</time>
      </trkpt>
      <trkpt lat="48.13386" lon="6.41743">
        <ele>434.20001220703</ele>
        <time>2024-01-28T09:36:52.000Z</time>
      </trkpt>
      <trkpt lat="48.13384" lon="6.41752">
        <ele>433.79998779297</ele>
        <time>2024-01-28T09:36:57.000Z</time>
      </trkpt>
      <trkpt lat="48.13382" lon="6.41756">
        <ele>433.79998779297</ele>
        <time>2024-01-28T09:37:00.000Z</time>
      </trkpt>
      <trkpt lat="48.1338" lon="6.41762">
        <ele>433.39999389648</ele>
        <time>2024-01-28T09:37:08.000Z</time>
      </trkpt>
      <trkpt lat="48.1338" lon="6.41762">
        <ele>433.39999389648</ele>
        <time>2024-01-28T09:37:20.000Z</time>
      </trkpt>
      <trkpt lat="48.1338" lon="6.41762">
        <ele>433.39999389648</ele>
        <time>2024-01-28T09:37:25.000Z</time>
      </trkpt>
      <trkpt lat="48.13378" lon="6.41762">
        <ele>433.39999389648</ele>
        <time>2024-01-28T09:37:27.000Z</time>
      </trkpt>
      <trkpt lat="48.13373" lon="6.41762">
        <ele>433.39999389648</ele>
        <time>2024-01-28T09:37:30.000Z</time>
      </trkpt>
      <trkpt lat="48.13357" lon="6.4176">
        <ele>433.79998779297</ele>
        <time>2024-01-28T09:37:40.000Z</time>
      </trkpt>
      <trkpt lat="48.13353" lon="6.4176">
        <ele>433.79998779297</ele>
        <time>2024-01-28T09:37:44.000Z</time>
      </trkpt>
      <trkpt lat="48.1335" lon="6.41759">
        <ele>434</ele>
        <time>2024-01-28T09:37:47.000Z</time>
      </trkpt>
      <trkpt lat="48.13346" lon="6.41759">
        <ele>434.20001220703</ele>
        <time>2024-01-28T09:37:50.000Z</time>
      </trkpt>
      <trkpt lat="48.1334" lon="6.4176">
        <ele>434.20001220703</ele>
        <time>2024-01-28T09:37:54.000Z</time>
      </trkpt>
      <trkpt lat="48.13338" lon="6.41759">
        <ele>434.20001220703</ele>
        <time>2024-01-28T09:37:56.000Z</time>
      </trkpt>
      <trkpt lat="48.13333" lon="6.41762">
        <ele>434.39999389648</ele>
        <time>2024-01-28T09:37:59.000Z</time>
      </trkpt>
      <trkpt lat="48.13332" lon="6.41762">
        <ele>434.60000610352</ele>
        <time>2024-01-28T09:38:00.000Z</time>
      </trkpt>
      <trkpt lat="48.13331" lon="6.41763">
        <ele>434.79998779297</ele>
        <time>2024-01-28T09:38:01.000Z</time>
      </trkpt>
      <trkpt lat="48.13316" lon="6.41766">
        <ele>435.20001220703</ele>
        <time>2024-01-28T09:38:11.000Z</time>
      </trkpt>
      <trkpt lat="48.13315" lon="6.41767">
        <ele>435.20001220703</ele>
        <time>2024-01-28T09:38:12.000Z</time>
      </trkpt>
      <trkpt lat="48.13314" lon="6.41767">
        <ele>435.39999389648</ele>
        <time>2024-01-28T09:38:13.000Z</time>
      </trkpt>
      <trkpt lat="48.13311" lon="6.41768">
        <ele>435.39999389648</ele>
        <time>2024-01-28T09:38:15.000Z</time>
      </trkpt>
      <trkpt lat="48.13306" lon="6.4177">
        <ele>435.60000610352</ele>
        <time>2024-01-28T09:38:19.000Z</time>
      </trkpt>
      <trkpt lat="48.13302" lon="6.41772">
        <ele>435.79998779297</ele>
        <time>2024-01-28T09:38:22.000Z</time>
      </trkpt>
      <trkpt lat="48.13295" lon="6.41775">
        <ele>436</ele>
        <time>2024-01-28T09:38:28.000Z</time>
      </trkpt>
      <trkpt lat="48.13293" lon="6.41775">
        <ele>436</ele>
        <time>2024-01-28T09:38:30.000Z</time>
      </trkpt>
      <trkpt lat="48.13285" lon="6.41779">
        <ele>436.20001220703</ele>
        <time>2024-01-28T09:38:37.000Z</time>
      </trkpt>
      <trkpt lat="48.13284" lon="6.41779">
        <ele>436.20001220703</ele>
        <time>2024-01-28T09:38:38.000Z</time>
      </trkpt>
      <trkpt lat="48.13281" lon="6.41779">
        <ele>436.20001220703</ele>
        <time>2024-01-28T09:38:40.000Z</time>
      </trkpt>
      <trkpt lat="48.13279" lon="6.4178">
        <ele>436.39999389648</ele>
        <time>2024-01-28T09:38:42.000Z</time>
      </trkpt>
      <trkpt lat="48.13274" lon="6.41783">
        <ele>436.60000610352</ele>
        <time>2024-01-28T09:38:46.000Z</time>
      </trkpt>
      <trkpt lat="48.13273" lon="6.41783">
        <ele>436.60000610352</ele>
        <time>2024-01-28T09:38:47.000Z</time>
      </trkpt>
      <trkpt lat="48.13261" lon="6.41789">
        <ele>437</ele>
        <time>2024-01-28T09:38:56.000Z</time>
      </trkpt>
      <trkpt lat="48.13256" lon="6.41792">
        <ele>437.20001220703</ele>
        <time>2024-01-28T09:39:01.000Z</time>
      </trkpt>
      <trkpt lat="48.13251" lon="6.41793">
        <ele>437.20001220703</ele>
        <time>2024-01-28T09:39:04.000Z</time>
      </trkpt>
      <trkpt lat="48.13237" lon="6.41798">
        <ele>437.60000610352</ele>
        <time>2024-01-28T09:39:15.000Z</time>
      </trkpt>
      <trkpt lat="48.13235" lon="6.41799">
        <ele>437.60000610352</ele>
        <time>2024-01-28T09:39:16.000Z</time>
      </trkpt>
      <trkpt lat="48.13229" lon="6.41799">
        <ele>437.60000610352</ele>
        <time>2024-01-28T09:39:20.000Z</time>
      </trkpt>
      <trkpt lat="48.13227" lon="6.41799">
        <ele>437.60000610352</ele>
        <time>2024-01-28T09:39:22.000Z</time>
      </trkpt>
      <trkpt lat="48.13218" lon="6.418">
        <ele>438</ele>
        <time>2024-01-28T09:39:28.000Z</time>
      </trkpt>
      <trkpt lat="48.13213" lon="6.41799">
        <ele>438</ele>
        <time>2024-01-28T09:39:31.000Z</time>
      </trkpt>
      <trkpt lat="48.13208" lon="6.41799">
        <ele>438.20001220703</ele>
        <time>2024-01-28T09:39:35.000Z</time>
      </trkpt>
      <trkpt lat="48.13202" lon="6.41796">
        <ele>438.39999389648</ele>
        <time>2024-01-28T09:39:40.000Z</time>
      </trkpt>
      <trkpt lat="48.13199" lon="6.41794">
        <ele>438.60000610352</ele>
        <time>2024-01-28T09:39:42.000Z</time>
      </trkpt>
      <trkpt lat="48.13193" lon="6.41792">
        <ele>438.60000610352</ele>
        <time>2024-01-28T09:39:46.000Z</time>
      </trkpt>
      <trkpt lat="48.13188" lon="6.4179">
        <ele>438.79998779297</ele>
        <time>2024-01-28T09:39:50.000Z</time>
      </trkpt>
      <trkpt lat="48.13175" lon="6.41781">
        <ele>439</ele>
        <time>2024-01-28T09:40:00.000Z</time>
      </trkpt>
      <trkpt lat="48.13173" lon="6.41779">
        <ele>439</ele>
        <time>2024-01-28T09:40:02.000Z</time>
      </trkpt>
      <trkpt lat="48.13172" lon="6.41778">
        <ele>439</ele>
        <time>2024-01-28T09:40:03.000Z</time>
      </trkpt>
      <trkpt lat="48.13161" lon="6.41772">
        <ele>439.39999389648</ele>
        <time>2024-01-28T09:40:12.000Z</time>
      </trkpt>
      <trkpt lat="48.1316" lon="6.41771">
        <ele>439.39999389648</ele>
        <time>2024-01-28T09:40:13.000Z</time>
      </trkpt>
      <trkpt lat="48.13157" lon="6.4177">
        <ele>439.60000610352</ele>
        <time>2024-01-28T09:40:16.000Z</time>
      </trkpt>
      <trkpt lat="48.13156" lon="6.41769">
        <ele>439.60000610352</ele>
        <time>2024-01-28T09:40:17.000Z</time>
      </trkpt>
      <trkpt lat="48.13151" lon="6.41767">
        <ele>439.79998779297</ele>
        <time>2024-01-28T09:40:20.000Z</time>
      </trkpt>
      <trkpt lat="48.13144" lon="6.41764">
        <ele>440</ele>
        <time>2024-01-28T09:40:26.000Z</time>
      </trkpt>
      <trkpt lat="48.13143" lon="6.41763">
        <ele>440</ele>
        <time>2024-01-28T09:40:27.000Z</time>
      </trkpt>
      <trkpt lat="48.13139" lon="6.41763">
        <ele>440</ele>
        <time>2024-01-28T09:40:30.000Z</time>
      </trkpt>
      <trkpt lat="48.13136" lon="6.41762">
        <ele>440</ele>
        <time>2024-01-28T09:40:32.000Z</time>
      </trkpt>
      <trkpt lat="48.13118" lon="6.41758">
        <ele>439.60000610352</ele>
        <time>2024-01-28T09:40:46.000Z</time>
      </trkpt>
      <trkpt lat="48.13101" lon="6.41754">
        <ele>439.39999389648</ele>
        <time>2024-01-28T09:40:58.000Z</time>
      </trkpt>
      <trkpt lat="48.13088" lon="6.41752">
        <ele>439.39999389648</ele>
        <time>2024-01-28T09:41:07.000Z</time>
      </trkpt>
      <trkpt lat="48.13086" lon="6.41752">
        <ele>439.39999389648</ele>
        <time>2024-01-28T09:41:08.000Z</time>
      </trkpt>
      <trkpt lat="48.13073" lon="6.41755">
        <ele>439.20001220703</ele>
        <time>2024-01-28T09:41:18.000Z</time>
      </trkpt>
      <trkpt lat="48.1307" lon="6.41756">
        <ele>439.20001220703</ele>
        <time>2024-01-28T09:41:20.000Z</time>
      </trkpt>
      <trkpt lat="48.13062" lon="6.41753">
        <ele>438.60000610352</ele>
        <time>2024-01-28T09:41:28.000Z</time>
      </trkpt>
      <trkpt lat="48.13062" lon="6.41752">
        <ele>438.60000610352</ele>
        <time>2024-01-28T09:41:29.000Z</time>
      </trkpt>
      <trkpt lat="48.13062" lon="6.41752">
        <ele>438.60000610352</ele>
        <time>2024-01-28T09:41:31.000Z</time>
      </trkpt>
      <trkpt lat="48.13061" lon="6.41752">
        <ele>438.60000610352</ele>
        <time>2024-01-28T09:41:33.000Z</time>
      </trkpt>
      <trkpt lat="48.13056" lon="6.41749">
        <ele>438.60000610352</ele>
        <time>2024-01-28T09:41:38.000Z</time>
      </trkpt>
      <trkpt lat="48.13046" lon="6.41743">
        <ele>438.39999389648</ele>
        <time>2024-01-28T09:41:46.000Z</time>
      </trkpt>
      <trkpt lat="48.13041" lon="6.41739">
        <ele>438.39999389648</ele>
        <time>2024-01-28T09:41:50.000Z</time>
      </trkpt>
      <trkpt lat="48.13033" lon="6.41735">
        <ele>438</ele>
        <time>2024-01-28T09:41:55.000Z</time>
      </trkpt>
      <trkpt lat="48.13026" lon="6.41732">
        <ele>438</ele>
        <time>2024-01-28T09:42:00.000Z</time>
      </trkpt>
      <trkpt lat="48.13025" lon="6.41731">
        <ele>438</ele>
        <time>2024-01-28T09:42:01.000Z</time>
      </trkpt>
      <trkpt lat="48.13022" lon="6.4173">
        <ele>438</ele>
        <time>2024-01-28T09:42:03.000Z</time>
      </trkpt>
      <trkpt lat="48.13015" lon="6.41726">
        <ele>437.79998779297</ele>
        <time>2024-01-28T09:42:09.000Z</time>
      </trkpt>
      <trkpt lat="48.13009" lon="6.41723">
        <ele>437.79998779297</ele>
        <time>2024-01-28T09:42:13.000Z</time>
      </trkpt>
      <trkpt lat="48.13007" lon="6.4172">
        <ele>437.79998779297</ele>
        <time>2024-01-28T09:42:15.000Z</time>
      </trkpt>
      <trkpt lat="48.13001" lon="6.41715">
        <ele>437.60000610352</ele>
        <time>2024-01-28T09:42:21.000Z</time>
      </trkpt>
      <trkpt lat="48.12997" lon="6.41713">
        <ele>437.60000610352</ele>
        <time>2024-01-28T09:42:24.000Z</time>
      </trkpt>
      <trkpt lat="48.12993" lon="6.4171">
        <ele>437.60000610352</ele>
        <time>2024-01-28T09:42:29.000Z</time>
      </trkpt>
      <trkpt lat="48.12986" lon="6.41705">
        <ele>437.39999389648</ele>
        <time>2024-01-28T09:42:34.000Z</time>
      </trkpt>
      <trkpt lat="48.12975" lon="6.417">
        <ele>437.39999389648</ele>
        <time>2024-01-28T09:42:43.000Z</time>
      </trkpt>
      <trkpt lat="48.12974" lon="6.41699">
        <ele>437.39999389648</ele>
        <time>2024-01-28T09:42:44.000Z</time>
      </trkpt>
      <trkpt lat="48.12959" lon="6.41689">
        <ele>437.39999389648</ele>
        <time>2024-01-28T09:42:55.000Z</time>
      </trkpt>
      <trkpt lat="48.12953" lon="6.41684">
        <ele>437.20001220703</ele>
        <time>2024-01-28T09:43:02.000Z</time>
      </trkpt>
      <trkpt lat="48.12952" lon="6.41684">
        <ele>437.20001220703</ele>
        <time>2024-01-28T09:43:03.000Z</time>
      </trkpt>
      <trkpt lat="48.12946" lon="6.4168">
        <ele>437.20001220703</ele>
        <time>2024-01-28T09:43:09.000Z</time>
      </trkpt>
      <trkpt lat="48.12945" lon="6.41679">
        <ele>437.20001220703</ele>
        <time>2024-01-28T09:43:10.000Z</time>
      </trkpt>
      <trkpt lat="48.12939" lon="6.41674">
        <ele>437.20001220703</ele>
        <time>2024-01-28T09:43:15.000Z</time>
      </trkpt>
      <trkpt lat="48.12934" lon="6.41672">
        <ele>437.20001220703</ele>
        <time>2024-01-28T09:43:20.000Z</time>
      </trkpt>
      <trkpt lat="48.12924" lon="6.41668">
        <ele>437.20001220703</ele>
        <time>2024-01-28T09:43:27.000Z</time>
      </trkpt>
      <trkpt lat="48.12921" lon="6.41667">
        <ele>437.20001220703</ele>
        <time>2024-01-28T09:43:29.000Z</time>
      </trkpt>
      <trkpt lat="48.12919" lon="6.41665">
        <ele>437.20001220703</ele>
        <time>2024-01-28T09:43:31.000Z</time>
      </trkpt>
      <trkpt lat="48.12907" lon="6.4166">
        <ele>437.39999389648</ele>
        <time>2024-01-28T09:43:41.000Z</time>
      </trkpt>
      <trkpt lat="48.129" lon="6.41659">
        <ele>437.39999389648</ele>
        <time>2024-01-28T09:43:47.000Z</time>
      </trkpt>
      <trkpt lat="48.12899" lon="6.41658">
        <ele>437.39999389648</ele>
        <time>2024-01-28T09:43:48.000Z</time>
      </trkpt>
      <trkpt lat="48.12896" lon="6.41657">
        <ele>437.39999389648</ele>
        <time>2024-01-28T09:43:50.000Z</time>
      </trkpt>
      <trkpt lat="48.12893" lon="6.41657">
        <ele>437.39999389648</ele>
        <time>2024-01-28T09:43:52.000Z</time>
      </trkpt>
      <trkpt lat="48.12888" lon="6.41656">
        <ele>437.39999389648</ele>
        <time>2024-01-28T09:43:57.000Z</time>
      </trkpt>
      <trkpt lat="48.12885" lon="6.41655">
        <ele>437.39999389648</ele>
        <time>2024-01-28T09:43:59.000Z</time>
      </trkpt>
      <trkpt lat="48.12881" lon="6.41654">
        <ele>437.39999389648</ele>
        <time>2024-01-28T09:44:02.000Z</time>
      </trkpt>
      <trkpt lat="48.12872" lon="6.41652">
        <ele>437.60000610352</ele>
        <time>2024-01-28T09:44:09.000Z</time>
      </trkpt>
      <trkpt lat="48.1287" lon="6.41651">
        <ele>437.60000610352</ele>
        <time>2024-01-28T09:44:11.000Z</time>
      </trkpt>
      <trkpt lat="48.12858" lon="6.41645">
        <ele>437.79998779297</ele>
        <time>2024-01-28T09:44:21.000Z</time>
      </trkpt>
      <trkpt lat="48.12849" lon="6.4164">
        <ele>438</ele>
        <time>2024-01-28T09:44:29.000Z</time>
      </trkpt>
      <trkpt lat="48.12841" lon="6.41636">
        <ele>438.39999389648</ele>
        <time>2024-01-28T09:44:36.000Z</time>
      </trkpt>
      <trkpt lat="48.12838" lon="6.41636">
        <ele>438.60000610352</ele>
        <time>2024-01-28T09:44:38.000Z</time>
      </trkpt>
      <trkpt lat="48.12828" lon="6.41634">
        <ele>439</ele>
        <time>2024-01-28T09:44:46.000Z</time>
      </trkpt>
      <trkpt lat="48.12816" lon="6.41634">
        <ele>439.60000610352</ele>
        <time>2024-01-28T09:44:56.000Z</time>
      </trkpt>
      <trkpt lat="48.12815" lon="6.41633">
        <ele>439.79998779297</ele>
        <time>2024-01-28T09:44:57.000Z</time>
      </trkpt>
      <trkpt lat="48.12811" lon="6.41633">
        <ele>439.79998779297</ele>
        <time>2024-01-28T09:44:59.000Z</time>
      </trkpt>
      <trkpt lat="48.12804" lon="6.41632">
        <ele>440.20001220703</ele>
        <time>2024-01-28T09:45:05.000Z</time>
      </trkpt>
      <trkpt lat="48.12801" lon="6.41631">
        <ele>440.39999389648</ele>
        <time>2024-01-28T09:45:08.000Z</time>
      </trkpt>
      <trkpt lat="48.12799" lon="6.41631">
        <ele>440.39999389648</ele>
        <time>2024-01-28T09:45:09.000Z</time>
      </trkpt>
      <trkpt lat="48.12797" lon="6.4163">
        <ele>440.60000610352</ele>
        <time>2024-01-28T09:45:11.000Z</time>
      </trkpt>
      <trkpt lat="48.12792" lon="6.4163">
        <ele>441</ele>
        <time>2024-01-28T09:45:15.000Z</time>
      </trkpt>
      <trkpt lat="48.12786" lon="6.41629">
        <ele>441.39999389648</ele>
        <time>2024-01-28T09:45:20.000Z</time>
      </trkpt>
      <trkpt lat="48.12784" lon="6.41628">
        <ele>441.60000610352</ele>
        <time>2024-01-28T09:45:22.000Z</time>
      </trkpt>
      <trkpt lat="48.12783" lon="6.41628">
        <ele>441.79998779297</ele>
        <time>2024-01-28T09:45:23.000Z</time>
      </trkpt>
      <trkpt lat="48.12775" lon="6.41625">
        <ele>442.79998779297</ele>
        <time>2024-01-28T09:45:30.000Z</time>
      </trkpt>
      <trkpt lat="48.12771" lon="6.41624">
        <ele>443</ele>
        <time>2024-01-28T09:45:33.000Z</time>
      </trkpt>
      <trkpt lat="48.12767" lon="6.41624">
        <ele>443.39999389648</ele>
        <time>2024-01-28T09:45:36.000Z</time>
      </trkpt>
      <trkpt lat="48.12763" lon="6.41623">
        <ele>443.79998779297</ele>
        <time>2024-01-28T09:45:40.000Z</time>
      </trkpt>
      <trkpt lat="48.12759" lon="6.41621">
        <ele>444</ele>
        <time>2024-01-28T09:45:44.000Z</time>
      </trkpt>
      <trkpt lat="48.12757" lon="6.4162">
        <ele>444.20001220703</ele>
        <time>2024-01-28T09:45:45.000Z</time>
      </trkpt>
      <trkpt lat="48.12756" lon="6.4162">
        <ele>444.60000610352</ele>
        <time>2024-01-28T09:45:46.000Z</time>
      </trkpt>
      <trkpt lat="48.12754" lon="6.41619">
        <ele>444.79998779297</ele>
        <time>2024-01-28T09:45:47.000Z</time>
      </trkpt>
      <trkpt lat="48.12746" lon="6.41617">
        <ele>445.39999389648</ele>
        <time>2024-01-28T09:45:54.000Z</time>
      </trkpt>
      <trkpt lat="48.12744" lon="6.41616">
        <ele>445.60000610352</ele>
        <time>2024-01-28T09:45:56.000Z</time>
      </trkpt>
      <trkpt lat="48.12741" lon="6.41615">
        <ele>445.79998779297</ele>
        <time>2024-01-28T09:45:58.000Z</time>
      </trkpt>
      <trkpt lat="48.12732" lon="6.41612">
        <ele>446.79998779297</ele>
        <time>2024-01-28T09:46:08.000Z</time>
      </trkpt>
      <trkpt lat="48.12731" lon="6.41611">
        <ele>447</ele>
        <time>2024-01-28T09:46:09.000Z</time>
      </trkpt>
      <trkpt lat="48.1272" lon="6.41607">
        <ele>447.79998779297</ele>
        <time>2024-01-28T09:46:19.000Z</time>
      </trkpt>
      <trkpt lat="48.12719" lon="6.41606">
        <ele>448</ele>
        <time>2024-01-28T09:46:20.000Z</time>
      </trkpt>
      <trkpt lat="48.12716" lon="6.41604">
        <ele>448.20001220703</ele>
        <time>2024-01-28T09:46:23.000Z</time>
      </trkpt>
      <trkpt lat="48.12715" lon="6.41603">
        <ele>448.20001220703</ele>
        <time>2024-01-28T09:46:24.000Z</time>
      </trkpt>
      <trkpt lat="48.1271" lon="6.41598">
        <ele>448.79998779297</ele>
        <time>2024-01-28T09:46:29.000Z</time>
      </trkpt>
      <trkpt lat="48.12707" lon="6.41594">
        <ele>449</ele>
        <time>2024-01-28T09:46:33.000Z</time>
      </trkpt>
      <trkpt lat="48.12706" lon="6.41593">
        <ele>449.20001220703</ele>
        <time>2024-01-28T09:46:34.000Z</time>
      </trkpt>
      <trkpt lat="48.127" lon="6.41584">
        <ele>450</ele>
        <time>2024-01-28T09:46:42.000Z</time>
      </trkpt>
      <trkpt lat="48.12699" lon="6.4158">
        <ele>450.60000610352</ele>
        <time>2024-01-28T09:46:45.000Z</time>
      </trkpt>
      <trkpt lat="48.12696" lon="6.41574">
        <ele>451</ele>
        <time>2024-01-28T09:46:50.000Z</time>
      </trkpt>
      <trkpt lat="48.12692" lon="6.41565">
        <ele>451.60000610352</ele>
        <time>2024-01-28T09:46:56.000Z</time>
      </trkpt>
      <trkpt lat="48.12689" lon="6.4156">
        <ele>451.79998779297</ele>
        <time>2024-01-28T09:47:01.000Z</time>
      </trkpt>
      <trkpt lat="48.12687" lon="6.41556">
        <ele>452</ele>
        <time>2024-01-28T09:47:04.000Z</time>
      </trkpt>
      <trkpt lat="48.12685" lon="6.41549">
        <ele>452.20001220703</ele>
        <time>2024-01-28T09:47:09.000Z</time>
      </trkpt>
      <trkpt lat="48.1268" lon="6.41536">
        <ele>452.39999389648</ele>
        <time>2024-01-28T09:47:17.000Z</time>
      </trkpt>
      <trkpt lat="48.12676" lon="6.41529">
        <ele>452.60000610352</ele>
        <time>2024-01-28T09:47:22.000Z</time>
      </trkpt>
      <trkpt lat="48.12666" lon="6.41519">
        <ele>453</ele>
        <time>2024-01-28T09:47:32.000Z</time>
      </trkpt>
      <trkpt lat="48.12657" lon="6.4151">
        <ele>454</ele>
        <time>2024-01-28T09:47:41.000Z</time>
      </trkpt>
      <trkpt lat="48.12656" lon="6.41509">
        <ele>454.20001220703</ele>
        <time>2024-01-28T09:47:42.000Z</time>
      </trkpt>
      <trkpt lat="48.12649" lon="6.41504">
        <ele>454.60000610352</ele>
        <time>2024-01-28T09:47:49.000Z</time>
      </trkpt>
      <trkpt lat="48.12646" lon="6.41502">
        <ele>454.60000610352</ele>
        <time>2024-01-28T09:47:51.000Z</time>
      </trkpt>
      <trkpt lat="48.12642" lon="6.41499">
        <ele>455</ele>
        <time>2024-01-28T09:47:55.000Z</time>
      </trkpt>
      <trkpt lat="48.1264" lon="6.41498">
        <ele>455.20001220703</ele>
        <time>2024-01-28T09:47:57.000Z</time>
      </trkpt>
      <trkpt lat="48.12637" lon="6.41497">
        <ele>455.20001220703</ele>
        <time>2024-01-28T09:47:59.000Z</time>
      </trkpt>
      <trkpt lat="48.12636" lon="6.41496">
        <ele>455.39999389648</ele>
        <time>2024-01-28T09:48:00.000Z</time>
      </trkpt>
      <trkpt lat="48.12635" lon="6.41496">
        <ele>455.60000610352</ele>
        <time>2024-01-28T09:48:01.000Z</time>
      </trkpt>
      <trkpt lat="48.12628" lon="6.41491">
        <ele>455.79998779297</ele>
        <time>2024-01-28T09:48:08.000Z</time>
      </trkpt>
      <trkpt lat="48.1262" lon="6.41485">
        <ele>455.79998779297</ele>
        <time>2024-01-28T09:48:15.000Z</time>
      </trkpt>
      <trkpt lat="48.12614" lon="6.4148">
        <ele>456</ele>
        <time>2024-01-28T09:48:20.000Z</time>
      </trkpt>
      <trkpt lat="48.1261" lon="6.41475">
        <ele>456.20001220703</ele>
        <time>2024-01-28T09:48:25.000Z</time>
      </trkpt>
      <trkpt lat="48.12606" lon="6.41471">
        <ele>456.20001220703</ele>
        <time>2024-01-28T09:48:28.000Z</time>
      </trkpt>
      <trkpt lat="48.12605" lon="6.4147">
        <ele>456.39999389648</ele>
        <time>2024-01-28T09:48:29.000Z</time>
      </trkpt>
      <trkpt lat="48.12604" lon="6.41468">
        <ele>456.39999389648</ele>
        <time>2024-01-28T09:48:31.000Z</time>
      </trkpt>
      <trkpt lat="48.1259" lon="6.41458">
        <ele>456.79998779297</ele>
        <time>2024-01-28T09:48:43.000Z</time>
      </trkpt>
      <trkpt lat="48.12584" lon="6.41452">
        <ele>456.60000610352</ele>
        <time>2024-01-28T09:48:49.000Z</time>
      </trkpt>
      <trkpt lat="48.12583" lon="6.41451">
        <ele>456.60000610352</ele>
        <time>2024-01-28T09:48:50.000Z</time>
      </trkpt>
      <trkpt lat="48.12582" lon="6.4145">
        <ele>456.60000610352</ele>
        <time>2024-01-28T09:48:51.000Z</time>
      </trkpt>
      <trkpt lat="48.12571" lon="6.4144">
        <ele>456</ele>
        <time>2024-01-28T09:49:02.000Z</time>
      </trkpt>
      <trkpt lat="48.12568" lon="6.41439">
        <ele>456</ele>
        <time>2024-01-28T09:49:05.000Z</time>
      </trkpt>
      <trkpt lat="48.1256" lon="6.41433">
        <ele>455.79998779297</ele>
        <time>2024-01-28T09:49:12.000Z</time>
      </trkpt>
      <trkpt lat="48.12555" lon="6.41429">
        <ele>455.60000610352</ele>
        <time>2024-01-28T09:49:16.000Z</time>
      </trkpt>
      <trkpt lat="48.12552" lon="6.41427">
        <ele>455.39999389648</ele>
        <time>2024-01-28T09:49:19.000Z</time>
      </trkpt>
      <trkpt lat="48.12547" lon="6.41423">
        <ele>455.39999389648</ele>
        <time>2024-01-28T09:49:23.000Z</time>
      </trkpt>
      <trkpt lat="48.12543" lon="6.41419">
        <ele>455.20001220703</ele>
        <time>2024-01-28T09:49:27.000Z</time>
      </trkpt>
      <trkpt lat="48.1253" lon="6.41407">
        <ele>454.60000610352</ele>
        <time>2024-01-28T09:49:38.000Z</time>
      </trkpt>
      <trkpt lat="48.12519" lon="6.41397">
        <ele>454.20001220703</ele>
        <time>2024-01-28T09:49:48.000Z</time>
      </trkpt>
      <trkpt lat="48.12517" lon="6.41396">
        <ele>454.20001220703</ele>
        <time>2024-01-28T09:49:50.000Z</time>
      </trkpt>
      <trkpt lat="48.12504" lon="6.41384">
        <ele>453.79998779297</ele>
        <time>2024-01-28T09:50:02.000Z</time>
      </trkpt>
      <trkpt lat="48.12498" lon="6.41376">
        <ele>453.60000610352</ele>
        <time>2024-01-28T09:50:09.000Z</time>
      </trkpt>
      <trkpt lat="48.12494" lon="6.41372">
        <ele>453.60000610352</ele>
        <time>2024-01-28T09:50:13.000Z</time>
      </trkpt>
      <trkpt lat="48.12487" lon="6.4137">
        <ele>453.20001220703</ele>
        <time>2024-01-28T09:50:20.000Z</time>
      </trkpt>
      <trkpt lat="48.12483" lon="6.41369">
        <ele>452.79998779297</ele>
        <time>2024-01-28T09:50:23.000Z</time>
      </trkpt>
      <trkpt lat="48.12473" lon="6.41367">
        <ele>452.20001220703</ele>
        <time>2024-01-28T09:50:33.000Z</time>
      </trkpt>
      <trkpt lat="48.12472" lon="6.41367">
        <ele>452</ele>
        <time>2024-01-28T09:50:34.000Z</time>
      </trkpt>
      <trkpt lat="48.12469" lon="6.41366">
        <ele>452</ele>
        <time>2024-01-28T09:50:36.000Z</time>
      </trkpt>
      <trkpt lat="48.12468" lon="6.41366">
        <ele>451.79998779297</ele>
        <time>2024-01-28T09:50:37.000Z</time>
      </trkpt>
      <trkpt lat="48.12462" lon="6.41363">
        <ele>451.20001220703</ele>
        <time>2024-01-28T09:50:42.000Z</time>
      </trkpt>
      <trkpt lat="48.12461" lon="6.41362">
        <ele>451</ele>
        <time>2024-01-28T09:50:43.000Z</time>
      </trkpt>
      <trkpt lat="48.12459" lon="6.41361">
        <ele>450.79998779297</ele>
        <time>2024-01-28T09:50:45.000Z</time>
      </trkpt>
      <trkpt lat="48.12458" lon="6.41359">
        <ele>450.60000610352</ele>
        <time>2024-01-28T09:50:46.000Z</time>
      </trkpt>
      <trkpt lat="48.12454" lon="6.41356">
        <ele>450.20001220703</ele>
        <time>2024-01-28T09:50:50.000Z</time>
      </trkpt>
      <trkpt lat="48.12452" lon="6.41355">
        <ele>450</ele>
        <time>2024-01-28T09:50:52.000Z</time>
      </trkpt>
      <trkpt lat="48.12441" lon="6.4135">
        <ele>449.20001220703</ele>
        <time>2024-01-28T09:51:02.000Z</time>
      </trkpt>
      <trkpt lat="48.12439" lon="6.41349">
        <ele>449</ele>
        <time>2024-01-28T09:51:04.000Z</time>
      </trkpt>
      <trkpt lat="48.1243" lon="6.41343">
        <ele>448.20001220703</ele>
        <time>2024-01-28T09:51:12.000Z</time>
      </trkpt>
      <trkpt lat="48.12427" lon="6.41341">
        <ele>448</ele>
        <time>2024-01-28T09:51:14.000Z</time>
      </trkpt>
      <trkpt lat="48.12426" lon="6.4134">
        <ele>447.79998779297</ele>
        <time>2024-01-28T09:51:15.000Z</time>
      </trkpt>
      <trkpt lat="48.12417" lon="6.41331">
        <ele>447.60000610352</ele>
        <time>2024-01-28T09:51:21.000Z</time>
      </trkpt>
      <trkpt lat="48.1241" lon="6.41324">
        <ele>447</ele>
        <time>2024-01-28T09:51:27.000Z</time>
      </trkpt>
      <trkpt lat="48.12409" lon="6.41324">
        <ele>447</ele>
        <time>2024-01-28T09:51:28.000Z</time>
      </trkpt>
      <trkpt lat="48.12407" lon="6.41322">
        <ele>446.79998779297</ele>
        <time>2024-01-28T09:51:30.000Z</time>
      </trkpt>
      <trkpt lat="48.124" lon="6.41312">
        <ele>446.20001220703</ele>
        <time>2024-01-28T09:51:39.000Z</time>
      </trkpt>
      <trkpt lat="48.12391" lon="6.41307">
        <ele>446</ele>
        <time>2024-01-28T09:51:46.000Z</time>
      </trkpt>
      <trkpt lat="48.1239" lon="6.41306">
        <ele>445.79998779297</ele>
        <time>2024-01-28T09:51:47.000Z</time>
      </trkpt>
      <trkpt lat="48.12385" lon="6.41301">
        <ele>445.60000610352</ele>
        <time>2024-01-28T09:51:53.000Z</time>
      </trkpt>
      <trkpt lat="48.1238" lon="6.41297">
        <ele>445.39999389648</ele>
        <time>2024-01-28T09:51:58.000Z</time>
      </trkpt>
      <trkpt lat="48.12375" lon="6.41292">
        <ele>445.20001220703</ele>
        <time>2024-01-28T09:52:02.000Z</time>
      </trkpt>
      <trkpt lat="48.12374" lon="6.41292">
        <ele>445.20001220703</ele>
        <time>2024-01-28T09:52:03.000Z</time>
      </trkpt>
      <trkpt lat="48.12373" lon="6.41291">
        <ele>445</ele>
        <time>2024-01-28T09:52:04.000Z</time>
      </trkpt>
      <trkpt lat="48.12371" lon="6.4129">
        <ele>445</ele>
        <time>2024-01-28T09:52:06.000Z</time>
      </trkpt>
      <trkpt lat="48.12369" lon="6.41289">
        <ele>445</ele>
        <time>2024-01-28T09:52:08.000Z</time>
      </trkpt>
      <trkpt lat="48.12364" lon="6.41287">
        <ele>444.79998779297</ele>
        <time>2024-01-28T09:52:12.000Z</time>
      </trkpt>
      <trkpt lat="48.12354" lon="6.41284">
        <ele>444.39999389648</ele>
        <time>2024-01-28T09:52:21.000Z</time>
      </trkpt>
      <trkpt lat="48.12343" lon="6.4128">
        <ele>444.20001220703</ele>
        <time>2024-01-28T09:52:30.000Z</time>
      </trkpt>
      <trkpt lat="48.12331" lon="6.4128">
        <ele>444</ele>
        <time>2024-01-28T09:52:39.000Z</time>
      </trkpt>
      <trkpt lat="48.12323" lon="6.4128">
        <ele>443.79998779297</ele>
        <time>2024-01-28T09:52:45.000Z</time>
      </trkpt>
      <trkpt lat="48.12322" lon="6.41279">
        <ele>443.79998779297</ele>
        <time>2024-01-28T09:52:46.000Z</time>
      </trkpt>
      <trkpt lat="48.12317" lon="6.4128">
        <ele>443.79998779297</ele>
        <time>2024-01-28T09:52:49.000Z</time>
      </trkpt>
      <trkpt lat="48.12316" lon="6.41281">
        <ele>443.79998779297</ele>
        <time>2024-01-28T09:52:50.000Z</time>
      </trkpt>
      <trkpt lat="48.12311" lon="6.41282">
        <ele>443.79998779297</ele>
        <time>2024-01-28T09:52:55.000Z</time>
      </trkpt>
      <trkpt lat="48.12307" lon="6.41283">
        <ele>443.39999389648</ele>
        <time>2024-01-28T09:52:58.000Z</time>
      </trkpt>
      <trkpt lat="48.12303" lon="6.4128">
        <ele>443.20001220703</ele>
        <time>2024-01-28T09:53:02.000Z</time>
      </trkpt>
      <trkpt lat="48.12296" lon="6.41277">
        <ele>443</ele>
        <time>2024-01-28T09:53:07.000Z</time>
      </trkpt>
      <trkpt lat="48.12294" lon="6.41275">
        <ele>442.79998779297</ele>
        <time>2024-01-28T09:53:10.000Z</time>
      </trkpt>
      <trkpt lat="48.1229" lon="6.41274">
        <ele>442.79998779297</ele>
        <time>2024-01-28T09:53:13.000Z</time>
      </trkpt>
      <trkpt lat="48.12289" lon="6.41274">
        <ele>442.79998779297</ele>
        <time>2024-01-28T09:53:14.000Z</time>
      </trkpt>
      <trkpt lat="48.12273" lon="6.41262">
        <ele>442.39999389648</ele>
        <time>2024-01-28T09:53:28.000Z</time>
      </trkpt>
      <trkpt lat="48.12268" lon="6.4126">
        <ele>442.20001220703</ele>
        <time>2024-01-28T09:53:35.000Z</time>
      </trkpt>
      <trkpt lat="48.12267" lon="6.41259">
        <ele>442.20001220703</ele>
        <time>2024-01-28T09:53:39.000Z</time>
      </trkpt>
      <trkpt lat="48.12265" lon="6.41256">
        <ele>442.20001220703</ele>
        <time>2024-01-28T09:53:43.000Z</time>
      </trkpt>
      <trkpt lat="48.12265" lon="6.41256">
        <ele>442.20001220703</ele>
        <time>2024-01-28T09:53:44.000Z</time>
      </trkpt>
      <trkpt lat="48.12265" lon="6.41257">
        <ele>442.20001220703</ele>
        <time>2024-01-28T09:53:50.000Z</time>
      </trkpt>
      <trkpt lat="48.12264" lon="6.41257">
        <ele>442.20001220703</ele>
        <time>2024-01-28T09:53:51.000Z</time>
      </trkpt>
      <trkpt lat="48.12256" lon="6.41258">
        <ele>442</ele>
        <time>2024-01-28T09:53:59.000Z</time>
      </trkpt>
      <trkpt lat="48.12245" lon="6.41264">
        <ele>442</ele>
        <time>2024-01-28T09:54:09.000Z</time>
      </trkpt>
      <trkpt lat="48.12234" lon="6.41271">
        <ele>442</ele>
        <time>2024-01-28T09:54:16.000Z</time>
      </trkpt>
      <trkpt lat="48.12221" lon="6.4128">
        <ele>442</ele>
        <time>2024-01-28T09:54:26.000Z</time>
      </trkpt>
      <trkpt lat="48.1222" lon="6.41281">
        <ele>442</ele>
        <time>2024-01-28T09:54:27.000Z</time>
      </trkpt>
      <trkpt lat="48.12208" lon="6.4129">
        <ele>442.39999389648</ele>
        <time>2024-01-28T09:54:36.000Z</time>
      </trkpt>
      <trkpt lat="48.12204" lon="6.41294">
        <ele>442.60000610352</ele>
        <time>2024-01-28T09:54:40.000Z</time>
      </trkpt>
      <trkpt lat="48.12196" lon="6.41298">
        <ele>443.20001220703</ele>
        <time>2024-01-28T09:54:47.000Z</time>
      </trkpt>
      <trkpt lat="48.12193" lon="6.41298">
        <ele>443.20001220703</ele>
        <time>2024-01-28T09:54:49.000Z</time>
      </trkpt>
      <trkpt lat="48.12191" lon="6.41298">
        <ele>443.39999389648</ele>
        <time>2024-01-28T09:54:50.000Z</time>
      </trkpt>
      <trkpt lat="48.1219" lon="6.41299">
        <ele>443.39999389648</ele>
        <time>2024-01-28T09:54:51.000Z</time>
      </trkpt>
      <trkpt lat="48.12188" lon="6.41299">
        <ele>443.39999389648</ele>
        <time>2024-01-28T09:54:53.000Z</time>
      </trkpt>
      <trkpt lat="48.12181" lon="6.41304">
        <ele>443.79998779297</ele>
        <time>2024-01-28T09:54:59.000Z</time>
      </trkpt>
      <trkpt lat="48.12177" lon="6.41307">
        <ele>444.20001220703</ele>
        <time>2024-01-28T09:55:03.000Z</time>
      </trkpt>
      <trkpt lat="48.12173" lon="6.41311">
        <ele>444.39999389648</ele>
        <time>2024-01-28T09:55:07.000Z</time>
      </trkpt>
      <trkpt lat="48.12172" lon="6.41312">
        <ele>444.60000610352</ele>
        <time>2024-01-28T09:55:08.000Z</time>
      </trkpt>
      <trkpt lat="48.12165" lon="6.41316">
        <ele>445</ele>
        <time>2024-01-28T09:55:14.000Z</time>
      </trkpt>
      <trkpt lat="48.1216" lon="6.4132">
        <ele>445.39999389648</ele>
        <time>2024-01-28T09:55:19.000Z</time>
      </trkpt>
      <trkpt lat="48.1215" lon="6.41326">
        <ele>446</ele>
        <time>2024-01-28T09:55:29.000Z</time>
      </trkpt>
      <trkpt lat="48.12149" lon="6.41326">
        <ele>446</ele>
        <time>2024-01-28T09:55:30.000Z</time>
      </trkpt>
      <trkpt lat="48.12148" lon="6.41326">
        <ele>446</ele>
        <time>2024-01-28T09:55:31.000Z</time>
      </trkpt>
      <trkpt lat="48.12138" lon="6.41326">
        <ele>446.20001220703</ele>
        <time>2024-01-28T09:55:40.000Z</time>
      </trkpt>
      <trkpt lat="48.12138" lon="6.41327">
        <ele>446.39999389648</ele>
        <time>2024-01-28T09:55:41.000Z</time>
      </trkpt>
      <trkpt lat="48.12132" lon="6.41334">
        <ele>447</ele>
        <time>2024-01-28T09:55:48.000Z</time>
      </trkpt>
      <trkpt lat="48.12131" lon="6.41335">
        <ele>447.20001220703</ele>
        <time>2024-01-28T09:55:49.000Z</time>
      </trkpt>
      <trkpt lat="48.12126" lon="6.41339">
        <ele>447.60000610352</ele>
        <time>2024-01-28T09:55:53.000Z</time>
      </trkpt>
      <trkpt lat="48.12126" lon="6.41339">
        <ele>447.60000610352</ele>
        <time>2024-01-28T09:55:54.000Z</time>
      </trkpt>
      <trkpt lat="48.12123" lon="6.41341">
        <ele>448</ele>
        <time>2024-01-28T09:55:56.000Z</time>
      </trkpt>
      <trkpt lat="48.12121" lon="6.41341">
        <ele>448.20001220703</ele>
        <time>2024-01-28T09:55:58.000Z</time>
      </trkpt>
      <trkpt lat="48.1211" lon="6.41346">
        <ele>449.39999389648</ele>
        <time>2024-01-28T09:56:07.000Z</time>
      </trkpt>
      <trkpt lat="48.12103" lon="6.41347">
        <ele>450</ele>
        <time>2024-01-28T09:56:13.000Z</time>
      </trkpt>
      <trkpt lat="48.12099" lon="6.41348">
        <ele>450.39999389648</ele>
        <time>2024-01-28T09:56:16.000Z</time>
      </trkpt>
      <trkpt lat="48.12094" lon="6.41349">
        <ele>450.79998779297</ele>
        <time>2024-01-28T09:56:21.000Z</time>
      </trkpt>
      <trkpt lat="48.12092" lon="6.4135">
        <ele>451</ele>
        <time>2024-01-28T09:56:23.000Z</time>
      </trkpt>
      <trkpt lat="48.12088" lon="6.4135">
        <ele>451.39999389648</ele>
        <time>2024-01-28T09:56:26.000Z</time>
      </trkpt>
      <trkpt lat="48.12083" lon="6.41351">
        <ele>452.20001220703</ele>
        <time>2024-01-28T09:56:31.000Z</time>
      </trkpt>
      <trkpt lat="48.12079" lon="6.41351">
        <ele>452.60000610352</ele>
        <time>2024-01-28T09:56:35.000Z</time>
      </trkpt>
      <trkpt lat="48.12077" lon="6.4135">
        <ele>452.79998779297</ele>
        <time>2024-01-28T09:56:37.000Z</time>
      </trkpt>
      <trkpt lat="48.12076" lon="6.41351">
        <ele>453</ele>
        <time>2024-01-28T09:56:38.000Z</time>
      </trkpt>
      <trkpt lat="48.12067" lon="6.41351">
        <ele>453.60000610352</ele>
        <time>2024-01-28T09:56:44.000Z</time>
      </trkpt>
      <trkpt lat="48.12065" lon="6.41348">
        <ele>454</ele>
        <time>2024-01-28T09:56:46.000Z</time>
      </trkpt>
      <trkpt lat="48.12064" lon="6.41348">
        <ele>454.20001220703</ele>
        <time>2024-01-28T09:56:47.000Z</time>
      </trkpt>
      <trkpt lat="48.12063" lon="6.41347">
        <ele>454.20001220703</ele>
        <time>2024-01-28T09:56:49.000Z</time>
      </trkpt>
      <trkpt lat="48.12058" lon="6.41345">
        <ele>454.20001220703</ele>
        <time>2024-01-28T09:56:53.000Z</time>
      </trkpt>
      <trkpt lat="48.12048" lon="6.41343">
        <ele>454.20001220703</ele>
        <time>2024-01-28T09:57:02.000Z</time>
      </trkpt>
      <trkpt lat="48.12046" lon="6.41342">
        <ele>454.20001220703</ele>
        <time>2024-01-28T09:57:03.000Z</time>
      </trkpt>
      <trkpt lat="48.12043" lon="6.41342">
        <ele>454</ele>
        <time>2024-01-28T09:57:06.000Z</time>
      </trkpt>
      <trkpt lat="48.12041" lon="6.41342">
        <ele>453.79998779297</ele>
        <time>2024-01-28T09:57:08.000Z</time>
      </trkpt>
      <trkpt lat="48.12033" lon="6.41342">
        <ele>453.60000610352</ele>
        <time>2024-01-28T09:57:14.000Z</time>
      </trkpt>
      <trkpt lat="48.12023" lon="6.41345">
        <ele>453.20001220703</ele>
        <time>2024-01-28T09:57:22.000Z</time>
      </trkpt>
      <trkpt lat="48.12016" lon="6.41352">
        <ele>452.60000610352</ele>
        <time>2024-01-28T09:57:29.000Z</time>
      </trkpt>
      <trkpt lat="48.12016" lon="6.41353">
        <ele>452.60000610352</ele>
        <time>2024-01-28T09:57:30.000Z</time>
      </trkpt>
      <trkpt lat="48.12015" lon="6.41354">
        <ele>452.39999389648</ele>
        <time>2024-01-28T09:57:32.000Z</time>
      </trkpt>
      <trkpt lat="48.12012" lon="6.41357">
        <ele>452.20001220703</ele>
        <time>2024-01-28T09:57:37.000Z</time>
      </trkpt>
      <trkpt lat="48.12009" lon="6.41356">
        <ele>451.60000610352</ele>
        <time>2024-01-28T09:57:42.000Z</time>
      </trkpt>
      <trkpt lat="48.12007" lon="6.41357">
        <ele>451.39999389648</ele>
        <time>2024-01-28T09:57:44.000Z</time>
      </trkpt>
      <trkpt lat="48.12005" lon="6.41357">
        <ele>451.39999389648</ele>
        <time>2024-01-28T09:57:45.000Z</time>
      </trkpt>
      <trkpt lat="48.11996" lon="6.41357">
        <ele>450.79998779297</ele>
        <time>2024-01-28T09:57:51.000Z</time>
      </trkpt>
      <trkpt lat="48.11995" lon="6.41357">
        <ele>450.79998779297</ele>
        <time>2024-01-28T09:57:52.000Z</time>
      </trkpt>
      <trkpt lat="48.11994" lon="6.41356">
        <ele>450.60000610352</ele>
        <time>2024-01-28T09:57:53.000Z</time>
      </trkpt>
      <trkpt lat="48.11986" lon="6.41355">
        <ele>450</ele>
        <time>2024-01-28T09:57:59.000Z</time>
      </trkpt>
      <trkpt lat="48.11983" lon="6.41354">
        <ele>449.60000610352</ele>
        <time>2024-01-28T09:58:01.000Z</time>
      </trkpt>
      <trkpt lat="48.11978" lon="6.41351">
        <ele>449.20001220703</ele>
        <time>2024-01-28T09:58:04.000Z</time>
      </trkpt>
      <trkpt lat="48.11977" lon="6.41351">
        <ele>449</ele>
        <time>2024-01-28T09:58:06.000Z</time>
      </trkpt>
      <trkpt lat="48.11973" lon="6.41349">
        <ele>448.60000610352</ele>
        <time>2024-01-28T09:58:09.000Z</time>
      </trkpt>
      <trkpt lat="48.11971" lon="6.41347">
        <ele>448.39999389648</ele>
        <time>2024-01-28T09:58:11.000Z</time>
      </trkpt>
      <trkpt lat="48.11969" lon="6.41347">
        <ele>448.20001220703</ele>
        <time>2024-01-28T09:58:12.000Z</time>
      </trkpt>
      <trkpt lat="48.11964" lon="6.41344">
        <ele>447.79998779297</ele>
        <time>2024-01-28T09:58:16.000Z</time>
      </trkpt>
      <trkpt lat="48.11961" lon="6.41343">
        <ele>447.60000610352</ele>
        <time>2024-01-28T09:58:18.000Z</time>
      </trkpt>
      <trkpt lat="48.11956" lon="6.4134">
        <ele>447</ele>
        <time>2024-01-28T09:58:22.000Z</time>
      </trkpt>
      <trkpt lat="48.11955" lon="6.41339">
        <ele>447</ele>
        <time>2024-01-28T09:58:23.000Z</time>
      </trkpt>
      <trkpt lat="48.1195" lon="6.41336">
        <ele>446.60000610352</ele>
        <time>2024-01-28T09:58:27.000Z</time>
      </trkpt>
      <trkpt lat="48.11939" lon="6.4133">
        <ele>445.60000610352</ele>
        <time>2024-01-28T09:58:36.000Z</time>
      </trkpt>
      <trkpt lat="48.11938" lon="6.41329">
        <ele>445.39999389648</ele>
        <time>2024-01-28T09:58:37.000Z</time>
      </trkpt>
      <trkpt lat="48.11936" lon="6.41328">
        <ele>445.20001220703</ele>
        <time>2024-01-28T09:58:39.000Z</time>
      </trkpt>
      <trkpt lat="48.11929" lon="6.41323">
        <ele>444.39999389648</ele>
        <time>2024-01-28T09:58:45.000Z</time>
      </trkpt>
      <trkpt lat="48.11924" lon="6.4132">
        <ele>444</ele>
        <time>2024-01-28T09:58:49.000Z</time>
      </trkpt>
      <trkpt lat="48.11919" lon="6.41317">
        <ele>443.60000610352</ele>
        <time>2024-01-28T09:58:53.000Z</time>
      </trkpt>
      <trkpt lat="48.11915" lon="6.41316">
        <ele>443.39999389648</ele>
        <time>2024-01-28T09:58:56.000Z</time>
      </trkpt>
      <trkpt lat="48.11907" lon="6.41312">
        <ele>442.79998779297</ele>
        <time>2024-01-28T09:59:03.000Z</time>
      </trkpt>
      <trkpt lat="48.11905" lon="6.41312">
        <ele>442.60000610352</ele>
        <time>2024-01-28T09:59:04.000Z</time>
      </trkpt>
      <trkpt lat="48.11901" lon="6.4131">
        <ele>442.39999389648</ele>
        <time>2024-01-28T09:59:07.000Z</time>
      </trkpt>
      <trkpt lat="48.119" lon="6.4131">
        <ele>442.39999389648</ele>
        <time>2024-01-28T09:59:08.000Z</time>
      </trkpt>
      <trkpt lat="48.11899" lon="6.41309">
        <ele>442.20001220703</ele>
        <time>2024-01-28T09:59:09.000Z</time>
      </trkpt>
      <trkpt lat="48.11886" lon="6.41303">
        <ele>441.60000610352</ele>
        <time>2024-01-28T09:59:19.000Z</time>
      </trkpt>
      <trkpt lat="48.11881" lon="6.413">
        <ele>441.20001220703</ele>
        <time>2024-01-28T09:59:23.000Z</time>
      </trkpt>
      <trkpt lat="48.11871" lon="6.41295">
        <ele>440.39999389648</ele>
        <time>2024-01-28T09:59:30.000Z</time>
      </trkpt>
      <trkpt lat="48.11868" lon="6.41294">
        <ele>440.20001220703</ele>
        <time>2024-01-28T09:59:32.000Z</time>
      </trkpt>
      <trkpt lat="48.1186" lon="6.41292">
        <ele>440</ele>
        <time>2024-01-28T09:59:37.000Z</time>
      </trkpt>
      <trkpt lat="48.11855" lon="6.41291">
        <ele>439.60000610352</ele>
        <time>2024-01-28T09:59:41.000Z</time>
      </trkpt>
      <trkpt lat="48.11844" lon="6.41288">
        <ele>439.60000610352</ele>
        <time>2024-01-28T09:59:49.000Z</time>
      </trkpt>
      <trkpt lat="48.11843" lon="6.41287">
        <ele>439.39999389648</ele>
        <time>2024-01-28T09:59:50.000Z</time>
      </trkpt>
      <trkpt lat="48.11832" lon="6.41284">
        <ele>439.20001220703</ele>
        <time>2024-01-28T09:59:58.000Z</time>
      </trkpt>
      <trkpt lat="48.11823" lon="6.41281">
        <ele>439.20001220703</ele>
        <time>2024-01-28T10:00:05.000Z</time>
      </trkpt>
      <trkpt lat="48.11808" lon="6.41279">
        <ele>439.20001220703</ele>
        <time>2024-01-28T10:00:16.000Z</time>
      </trkpt>
      <trkpt lat="48.11803" lon="6.41279">
        <ele>439.20001220703</ele>
        <time>2024-01-28T10:00:20.000Z</time>
      </trkpt>
      <trkpt lat="48.11799" lon="6.41279">
        <ele>439.20001220703</ele>
        <time>2024-01-28T10:00:23.000Z</time>
      </trkpt>
      <trkpt lat="48.11794" lon="6.4128">
        <ele>439.60000610352</ele>
        <time>2024-01-28T10:00:27.000Z</time>
      </trkpt>
      <trkpt lat="48.11789" lon="6.4128">
        <ele>439.60000610352</ele>
        <time>2024-01-28T10:00:30.000Z</time>
      </trkpt>
      <trkpt lat="48.11777" lon="6.41283">
        <ele>439.60000610352</ele>
        <time>2024-01-28T10:00:39.000Z</time>
      </trkpt>
      <trkpt lat="48.1177" lon="6.41286">
        <ele>439.79998779297</ele>
        <time>2024-01-28T10:00:44.000Z</time>
      </trkpt>
      <trkpt lat="48.11767" lon="6.41287">
        <ele>439.79998779297</ele>
        <time>2024-01-28T10:00:47.000Z</time>
      </trkpt>
      <trkpt lat="48.11763" lon="6.41291">
        <ele>440</ele>
        <time>2024-01-28T10:00:51.000Z</time>
      </trkpt>
      <trkpt lat="48.11748" lon="6.413">
        <ele>440.39999389648</ele>
        <time>2024-01-28T10:01:03.000Z</time>
      </trkpt>
      <trkpt lat="48.11737" lon="6.41306">
        <ele>440.60000610352</ele>
        <time>2024-01-28T10:01:11.000Z</time>
      </trkpt>
      <trkpt lat="48.11735" lon="6.41307">
        <ele>440.60000610352</ele>
        <time>2024-01-28T10:01:13.000Z</time>
      </trkpt>
      <trkpt lat="48.11728" lon="6.41311">
        <ele>440.60000610352</ele>
        <time>2024-01-28T10:01:18.000Z</time>
      </trkpt>
      <trkpt lat="48.11715" lon="6.4132">
        <ele>440.60000610352</ele>
        <time>2024-01-28T10:01:29.000Z</time>
      </trkpt>
      <trkpt lat="48.11713" lon="6.41321">
        <ele>440.60000610352</ele>
        <time>2024-01-28T10:01:31.000Z</time>
      </trkpt>
      <trkpt lat="48.11704" lon="6.41325">
        <ele>441</ele>
        <time>2024-01-28T10:01:38.000Z</time>
      </trkpt>
      <trkpt lat="48.11698" lon="6.41328">
        <ele>441.20001220703</ele>
        <time>2024-01-28T10:01:43.000Z</time>
      </trkpt>
      <trkpt lat="48.11697" lon="6.41328">
        <ele>441.39999389648</ele>
        <time>2024-01-28T10:01:44.000Z</time>
      </trkpt>
      <trkpt lat="48.11686" lon="6.41332">
        <ele>441.79998779297</ele>
        <time>2024-01-28T10:01:53.000Z</time>
      </trkpt>
      <trkpt lat="48.11679" lon="6.41335">
        <ele>442.20001220703</ele>
        <time>2024-01-28T10:01:59.000Z</time>
      </trkpt>
      <trkpt lat="48.11677" lon="6.41335">
        <ele>442.39999389648</ele>
        <time>2024-01-28T10:02:01.000Z</time>
      </trkpt>
      <trkpt lat="48.1167" lon="6.41337">
        <ele>442.20001220703</ele>
        <time>2024-01-28T10:02:06.000Z</time>
      </trkpt>
      <trkpt lat="48.11665" lon="6.41339">
        <ele>442.60000610352</ele>
        <time>2024-01-28T10:02:11.000Z</time>
      </trkpt>
      <trkpt lat="48.11657" lon="6.41341">
        <ele>443</ele>
        <time>2024-01-28T10:02:17.000Z</time>
      </trkpt>
      <trkpt lat="48.11654" lon="6.41341">
        <ele>443.20001220703</ele>
        <time>2024-01-28T10:02:20.000Z</time>
      </trkpt>
      <trkpt lat="48.11651" lon="6.41342">
        <ele>443.20001220703</ele>
        <time>2024-01-28T10:02:22.000Z</time>
      </trkpt>
      <trkpt lat="48.11647" lon="6.41343">
        <ele>443.20001220703</ele>
        <time>2024-01-28T10:02:26.000Z</time>
      </trkpt>
      <trkpt lat="48.11646" lon="6.41343">
        <ele>443.39999389648</ele>
        <time>2024-01-28T10:02:27.000Z</time>
      </trkpt>
      <trkpt lat="48.11638" lon="6.41345">
        <ele>443.79998779297</ele>
        <time>2024-01-28T10:02:33.000Z</time>
      </trkpt>
      <trkpt lat="48.11626" lon="6.4135">
        <ele>444.20001220703</ele>
        <time>2024-01-28T10:02:43.000Z</time>
      </trkpt>
      <trkpt lat="48.11624" lon="6.41351">
        <ele>444.39999389648</ele>
        <time>2024-01-28T10:02:45.000Z</time>
      </trkpt>
      <trkpt lat="48.1162" lon="6.41353">
        <ele>444.60000610352</ele>
        <time>2024-01-28T10:02:48.000Z</time>
      </trkpt>
      <trkpt lat="48.11613" lon="6.41355">
        <ele>445</ele>
        <time>2024-01-28T10:02:53.000Z</time>
      </trkpt>
      <trkpt lat="48.1161" lon="6.41355">
        <ele>445.39999389648</ele>
        <time>2024-01-28T10:02:56.000Z</time>
      </trkpt>
      <trkpt lat="48.11608" lon="6.41356">
        <ele>445.79998779297</ele>
        <time>2024-01-28T10:03:00.000Z</time>
      </trkpt>
      <trkpt lat="48.11607" lon="6.41356">
        <ele>445.60000610352</ele>
        <time>2024-01-28T10:03:09.000Z</time>
      </trkpt>
      <trkpt lat="48.11607" lon="6.41356">
        <ele>445.60000610352</ele>
        <time>2024-01-28T10:03:15.000Z</time>
      </trkpt>
      <trkpt lat="48.11607" lon="6.41356">
        <ele>445.39999389648</ele>
        <time>2024-01-28T10:03:23.000Z</time>
      </trkpt>
      <trkpt lat="48.11606" lon="6.41356">
        <ele>445.20001220703</ele>
        <time>2024-01-28T10:03:28.000Z</time>
      </trkpt>
      <trkpt lat="48.11605" lon="6.41357">
        <ele>445.79998779297</ele>
        <time>2024-01-28T10:03:31.000Z</time>
      </trkpt>
      <trkpt lat="48.11605" lon="6.41357">
        <ele>445.79998779297</ele>
        <time>2024-01-28T10:03:35.000Z</time>
      </trkpt>
      <trkpt lat="48.11605" lon="6.41357">
        <ele>445.79998779297</ele>
        <time>2024-01-28T10:03:38.000Z</time>
      </trkpt>
      <trkpt lat="48.11605" lon="6.41357">
        <ele>445.79998779297</ele>
        <time>2024-01-28T10:03:41.000Z</time>
      </trkpt>
      <trkpt lat="48.11597" lon="6.41361">
        <ele>445.60000610352</ele>
        <time>2024-01-28T10:03:49.000Z</time>
      </trkpt>
      <trkpt lat="48.11586" lon="6.41365">
        <ele>446</ele>
        <time>2024-01-28T10:03:56.000Z</time>
      </trkpt>
      <trkpt lat="48.11581" lon="6.41368">
        <ele>446.20001220703</ele>
        <time>2024-01-28T10:04:00.000Z</time>
      </trkpt>
      <trkpt lat="48.11578" lon="6.4137">
        <ele>446.60000610352</ele>
        <time>2024-01-28T10:04:03.000Z</time>
      </trkpt>
      <trkpt lat="48.11576" lon="6.41371">
        <ele>446.79998779297</ele>
        <time>2024-01-28T10:04:05.000Z</time>
      </trkpt>
      <trkpt lat="48.11574" lon="6.41372">
        <ele>446.79998779297</ele>
        <time>2024-01-28T10:04:06.000Z</time>
      </trkpt>
      <trkpt lat="48.1157" lon="6.41374">
        <ele>447</ele>
        <time>2024-01-28T10:04:10.000Z</time>
      </trkpt>
      <trkpt lat="48.1156" lon="6.41378">
        <ele>447.39999389648</ele>
        <time>2024-01-28T10:04:17.000Z</time>
      </trkpt>
      <trkpt lat="48.11554" lon="6.41379">
        <ele>447.60000610352</ele>
        <time>2024-01-28T10:04:22.000Z</time>
      </trkpt>
      <trkpt lat="48.11551" lon="6.4138">
        <ele>447.79998779297</ele>
        <time>2024-01-28T10:04:25.000Z</time>
      </trkpt>
      <trkpt lat="48.11544" lon="6.4138">
        <ele>447.79998779297</ele>
        <time>2024-01-28T10:04:31.000Z</time>
      </trkpt>
      <trkpt lat="48.11539" lon="6.41384">
        <ele>447.20001220703</ele>
        <time>2024-01-28T10:04:36.000Z</time>
      </trkpt>
      <trkpt lat="48.11538" lon="6.41384">
        <ele>447.20001220703</ele>
        <time>2024-01-28T10:04:37.000Z</time>
      </trkpt>
      <trkpt lat="48.11536" lon="6.41385">
        <ele>447</ele>
        <time>2024-01-28T10:04:39.000Z</time>
      </trkpt>
      <trkpt lat="48.11524" lon="6.41385">
        <ele>446.60000610352</ele>
        <time>2024-01-28T10:04:47.000Z</time>
      </trkpt>
      <trkpt lat="48.11519" lon="6.41385">
        <ele>446.39999389648</ele>
        <time>2024-01-28T10:04:51.000Z</time>
      </trkpt>
      <trkpt lat="48.11512" lon="6.41385">
        <ele>446</ele>
        <time>2024-01-28T10:04:57.000Z</time>
      </trkpt>
      <trkpt lat="48.11502" lon="6.41384">
        <ele>445.60000610352</ele>
        <time>2024-01-28T10:05:03.000Z</time>
      </trkpt>
      <trkpt lat="48.11496" lon="6.41384">
        <ele>445.39999389648</ele>
        <time>2024-01-28T10:05:07.000Z</time>
      </trkpt>
      <trkpt lat="48.1149" lon="6.41383">
        <ele>445</ele>
        <time>2024-01-28T10:05:12.000Z</time>
      </trkpt>
      <trkpt lat="48.11488" lon="6.41384">
        <ele>445</ele>
        <time>2024-01-28T10:05:13.000Z</time>
      </trkpt>
      <trkpt lat="48.11484" lon="6.41383">
        <ele>444.60000610352</ele>
        <time>2024-01-28T10:05:17.000Z</time>
      </trkpt>
      <trkpt lat="48.11475" lon="6.41381">
        <ele>444.20001220703</ele>
        <time>2024-01-28T10:05:23.000Z</time>
      </trkpt>
      <trkpt lat="48.11465" lon="6.41379">
        <ele>443.60000610352</ele>
        <time>2024-01-28T10:05:30.000Z</time>
      </trkpt>
      <trkpt lat="48.1146" lon="6.41379">
        <ele>443.20001220703</ele>
        <time>2024-01-28T10:05:34.000Z</time>
      </trkpt>
      <trkpt lat="48.11455" lon="6.41379">
        <ele>442.79998779297</ele>
        <time>2024-01-28T10:05:38.000Z</time>
      </trkpt>
      <trkpt lat="48.11454" lon="6.41379">
        <ele>442.79998779297</ele>
        <time>2024-01-28T10:05:39.000Z</time>
      </trkpt>
      <trkpt lat="48.11449" lon="6.41377">
        <ele>442.60000610352</ele>
        <time>2024-01-28T10:05:42.000Z</time>
      </trkpt>
      <trkpt lat="48.11442" lon="6.41375">
        <ele>442.20001220703</ele>
        <time>2024-01-28T10:05:47.000Z</time>
      </trkpt>
      <trkpt lat="48.11435" lon="6.41375">
        <ele>441.60000610352</ele>
        <time>2024-01-28T10:05:53.000Z</time>
      </trkpt>
      <trkpt lat="48.11432" lon="6.41375">
        <ele>441.39999389648</ele>
        <time>2024-01-28T10:05:56.000Z</time>
      </trkpt>
      <trkpt lat="48.1143" lon="6.41374">
        <ele>441.20001220703</ele>
        <time>2024-01-28T10:05:59.000Z</time>
      </trkpt>
      <trkpt lat="48.11429" lon="6.41374">
        <ele>441</ele>
        <time>2024-01-28T10:06:01.000Z</time>
      </trkpt>
      <trkpt lat="48.11429" lon="6.41374">
        <ele>441</ele>
        <time>2024-01-28T10:06:03.000Z</time>
      </trkpt>
      <trkpt lat="48.11429" lon="6.41375">
        <ele>441</ele>
        <time>2024-01-28T10:06:05.000Z</time>
      </trkpt>
      <trkpt lat="48.11428" lon="6.41375">
        <ele>441</ele>
        <time>2024-01-28T10:06:06.000Z</time>
      </trkpt>
      <trkpt lat="48.11424" lon="6.41375">
        <ele>440.39999389648</ele>
        <time>2024-01-28T10:06:09.000Z</time>
      </trkpt>
      <trkpt lat="48.11423" lon="6.41375">
        <ele>440.39999389648</ele>
        <time>2024-01-28T10:06:10.000Z</time>
      </trkpt>
      <trkpt lat="48.11413" lon="6.41377">
        <ele>439.20001220703</ele>
        <time>2024-01-28T10:06:17.000Z</time>
      </trkpt>
      <trkpt lat="48.1141" lon="6.41378">
        <ele>438.79998779297</ele>
        <time>2024-01-28T10:06:20.000Z</time>
      </trkpt>
      <trkpt lat="48.11405" lon="6.41378">
        <ele>438</ele>
        <time>2024-01-28T10:06:24.000Z</time>
      </trkpt>
      <trkpt lat="48.11395" lon="6.41379">
        <ele>437</ele>
        <time>2024-01-28T10:06:31.000Z</time>
      </trkpt>
      <trkpt lat="48.11392" lon="6.41379">
        <ele>436.60000610352</ele>
        <time>2024-01-28T10:06:33.000Z</time>
      </trkpt>
      <trkpt lat="48.11388" lon="6.41379">
        <ele>436.20001220703</ele>
        <time>2024-01-28T10:06:36.000Z</time>
      </trkpt>
      <trkpt lat="48.11387" lon="6.41379">
        <ele>436</ele>
        <time>2024-01-28T10:06:37.000Z</time>
      </trkpt>
      <trkpt lat="48.11385" lon="6.41379">
        <ele>435.79998779297</ele>
        <time>2024-01-28T10:06:38.000Z</time>
      </trkpt>
      <trkpt lat="48.11378" lon="6.41378">
        <ele>435.20001220703</ele>
        <time>2024-01-28T10:06:42.000Z</time>
      </trkpt>
      <trkpt lat="48.11374" lon="6.41377">
        <ele>434.79998779297</ele>
        <time>2024-01-28T10:06:45.000Z</time>
      </trkpt>
      <trkpt lat="48.11363" lon="6.41376">
        <ele>433.79998779297</ele>
        <time>2024-01-28T10:06:54.000Z</time>
      </trkpt>
      <trkpt lat="48.11362" lon="6.41375">
        <ele>433.60000610352</ele>
        <time>2024-01-28T10:06:55.000Z</time>
      </trkpt>
      <trkpt lat="48.1136" lon="6.41375">
        <ele>433.39999389648</ele>
        <time>2024-01-28T10:06:56.000Z</time>
      </trkpt>
      <trkpt lat="48.11355" lon="6.41375">
        <ele>433</ele>
        <time>2024-01-28T10:07:00.000Z</time>
      </trkpt>
      <trkpt lat="48.11351" lon="6.41374">
        <ele>432.79998779297</ele>
        <time>2024-01-28T10:07:03.000Z</time>
      </trkpt>
      <trkpt lat="48.11346" lon="6.41374">
        <ele>432.39999389648</ele>
        <time>2024-01-28T10:07:06.000Z</time>
      </trkpt>
      <trkpt lat="48.11342" lon="6.41374">
        <ele>432.39999389648</ele>
        <time>2024-01-28T10:07:09.000Z</time>
      </trkpt>
      <trkpt lat="48.11332" lon="6.41375">
        <ele>431.60000610352</ele>
        <time>2024-01-28T10:07:16.000Z</time>
      </trkpt>
      <trkpt lat="48.11324" lon="6.41375">
        <ele>431</ele>
        <time>2024-01-28T10:07:23.000Z</time>
      </trkpt>
      <trkpt lat="48.11323" lon="6.41375">
        <ele>431</ele>
        <time>2024-01-28T10:07:24.000Z</time>
      </trkpt>
      <trkpt lat="48.1132" lon="6.41375">
        <ele>430.79998779297</ele>
        <time>2024-01-28T10:07:26.000Z</time>
      </trkpt>
      <trkpt lat="48.11317" lon="6.41375">
        <ele>430.60000610352</ele>
        <time>2024-01-28T10:07:28.000Z</time>
      </trkpt>
      <trkpt lat="48.11312" lon="6.41375">
        <ele>430.20001220703</ele>
        <time>2024-01-28T10:07:31.000Z</time>
      </trkpt>
      <trkpt lat="48.11301" lon="6.41375">
        <ele>429.60000610352</ele>
        <time>2024-01-28T10:07:38.000Z</time>
      </trkpt>
      <trkpt lat="48.1129" lon="6.41377">
        <ele>428.39999389648</ele>
        <time>2024-01-28T10:07:46.000Z</time>
      </trkpt>
      <trkpt lat="48.11285" lon="6.41377">
        <ele>428.20001220703</ele>
        <time>2024-01-28T10:07:50.000Z</time>
      </trkpt>
      <trkpt lat="48.1127" lon="6.41378">
        <ele>427.79998779297</ele>
        <time>2024-01-28T10:08:00.000Z</time>
      </trkpt>
      <trkpt lat="48.11265" lon="6.41379">
        <ele>427.39999389648</ele>
        <time>2024-01-28T10:08:04.000Z</time>
      </trkpt>
      <trkpt lat="48.11253" lon="6.41379">
        <ele>427</ele>
        <time>2024-01-28T10:08:12.000Z</time>
      </trkpt>
      <trkpt lat="48.11242" lon="6.41379">
        <ele>426.39999389648</ele>
        <time>2024-01-28T10:08:19.000Z</time>
      </trkpt>
      <trkpt lat="48.11234" lon="6.41381">
        <ele>426</ele>
        <time>2024-01-28T10:08:25.000Z</time>
      </trkpt>
      <trkpt lat="48.11223" lon="6.41381">
        <ele>425.60000610352</ele>
        <time>2024-01-28T10:08:33.000Z</time>
      </trkpt>
      <trkpt lat="48.1122" lon="6.41381">
        <ele>425.39999389648</ele>
        <time>2024-01-28T10:08:35.000Z</time>
      </trkpt>
      <trkpt lat="48.11219" lon="6.41381">
        <ele>425.20001220703</ele>
        <time>2024-01-28T10:08:36.000Z</time>
      </trkpt>
      <trkpt lat="48.112" lon="6.41383">
        <ele>424.60000610352</ele>
        <time>2024-01-28T10:08:50.000Z</time>
      </trkpt>
      <trkpt lat="48.11193" lon="6.41382">
        <ele>424.39999389648</ele>
        <time>2024-01-28T10:08:55.000Z</time>
      </trkpt>
      <trkpt lat="48.11188" lon="6.41381">
        <ele>424.39999389648</ele>
        <time>2024-01-28T10:08:58.000Z</time>
      </trkpt>
      <trkpt lat="48.11182" lon="6.41381">
        <ele>424.20001220703</ele>
        <time>2024-01-28T10:09:02.000Z</time>
      </trkpt>
      <trkpt lat="48.11172" lon="6.4138">
        <ele>424</ele>
        <time>2024-01-28T10:09:10.000Z</time>
      </trkpt>
      <trkpt lat="48.11166" lon="6.41379">
        <ele>423.79998779297</ele>
        <time>2024-01-28T10:09:14.000Z</time>
      </trkpt>
      <trkpt lat="48.11163" lon="6.41379">
        <ele>423.79998779297</ele>
        <time>2024-01-28T10:09:16.000Z</time>
      </trkpt>
      <trkpt lat="48.1116" lon="6.41379">
        <ele>423.60000610352</ele>
        <time>2024-01-28T10:09:18.000Z</time>
      </trkpt>
      <trkpt lat="48.11151" lon="6.41378">
        <ele>423.60000610352</ele>
        <time>2024-01-28T10:09:25.000Z</time>
      </trkpt>
      <trkpt lat="48.11141" lon="6.41375">
        <ele>423.20001220703</ele>
        <time>2024-01-28T10:09:32.000Z</time>
      </trkpt>
      <trkpt lat="48.11136" lon="6.41372">
        <ele>423.20001220703</ele>
        <time>2024-01-28T10:09:36.000Z</time>
      </trkpt>
      <trkpt lat="48.11129" lon="6.41366">
        <ele>423</ele>
        <time>2024-01-28T10:09:42.000Z</time>
      </trkpt>
      <trkpt lat="48.11124" lon="6.41362">
        <ele>423</ele>
        <time>2024-01-28T10:09:46.000Z</time>
      </trkpt>
      <trkpt lat="48.11113" lon="6.41351">
        <ele>422.79998779297</ele>
        <time>2024-01-28T10:09:55.000Z</time>
      </trkpt>
      <trkpt lat="48.111" lon="6.41337">
        <ele>422.20001220703</ele>
        <time>2024-01-28T10:10:08.000Z</time>
      </trkpt>
      <trkpt lat="48.11099" lon="6.41336">
        <ele>422.20001220703</ele>
        <time>2024-01-28T10:10:09.000Z</time>
      </trkpt>
      <trkpt lat="48.1109" lon="6.41331">
        <ele>422</ele>
        <time>2024-01-28T10:10:17.000Z</time>
      </trkpt>
      <trkpt lat="48.11082" lon="6.41324">
        <ele>421.60000610352</ele>
        <time>2024-01-28T10:10:23.000Z</time>
      </trkpt>
      <trkpt lat="48.11079" lon="6.41322">
        <ele>421.39999389648</ele>
        <time>2024-01-28T10:10:26.000Z</time>
      </trkpt>
      <trkpt lat="48.11078" lon="6.41321">
        <ele>421.39999389648</ele>
        <time>2024-01-28T10:10:27.000Z</time>
      </trkpt>
      <trkpt lat="48.11075" lon="6.4132">
        <ele>421.20001220703</ele>
        <time>2024-01-28T10:10:30.000Z</time>
      </trkpt>
      <trkpt lat="48.11073" lon="6.41319">
        <ele>421</ele>
        <time>2024-01-28T10:10:32.000Z</time>
      </trkpt>
      <trkpt lat="48.11064" lon="6.41312">
        <ele>420.60000610352</ele>
        <time>2024-01-28T10:10:39.000Z</time>
      </trkpt>
      <trkpt lat="48.11062" lon="6.4131">
        <ele>420.60000610352</ele>
        <time>2024-01-28T10:10:41.000Z</time>
      </trkpt>
      <trkpt lat="48.11052" lon="6.41305">
        <ele>420.39999389648</ele>
        <time>2024-01-28T10:10:49.000Z</time>
      </trkpt>
      <trkpt lat="48.11041" lon="6.41304">
        <ele>420.20001220703</ele>
        <time>2024-01-28T10:10:56.000Z</time>
      </trkpt>
      <trkpt lat="48.11035" lon="6.413">
        <ele>420.20001220703</ele>
        <time>2024-01-28T10:11:01.000Z</time>
      </trkpt>
      <trkpt lat="48.11025" lon="6.41294">
        <ele>420</ele>
        <time>2024-01-28T10:11:08.000Z</time>
      </trkpt>
      <trkpt lat="48.11016" lon="6.41287">
        <ele>419.60000610352</ele>
        <time>2024-01-28T10:11:16.000Z</time>
      </trkpt>
      <trkpt lat="48.11013" lon="6.41285">
        <ele>419.39999389648</ele>
        <time>2024-01-28T10:11:18.000Z</time>
      </trkpt>
      <trkpt lat="48.11004" lon="6.41278">
        <ele>419.20001220703</ele>
        <time>2024-01-28T10:11:26.000Z</time>
      </trkpt>
      <trkpt lat="48.11002" lon="6.41277">
        <ele>419</ele>
        <time>2024-01-28T10:11:27.000Z</time>
      </trkpt>
      <trkpt lat="48.1099" lon="6.41267">
        <ele>418.39999389648</ele>
        <time>2024-01-28T10:11:38.000Z</time>
      </trkpt>
      <trkpt lat="48.10986" lon="6.41262">
        <ele>418.39999389648</ele>
        <time>2024-01-28T10:11:42.000Z</time>
      </trkpt>
      <trkpt lat="48.1098" lon="6.41255">
        <ele>418</ele>
        <time>2024-01-28T10:11:47.000Z</time>
      </trkpt>
      <trkpt lat="48.10978" lon="6.41252">
        <ele>418</ele>
        <time>2024-01-28T10:11:49.000Z</time>
      </trkpt>
      <trkpt lat="48.1097" lon="6.41242">
        <ele>417.60000610352</ele>
        <time>2024-01-28T10:11:57.000Z</time>
      </trkpt>
      <trkpt lat="48.10964" lon="6.41235">
        <ele>417.39999389648</ele>
        <time>2024-01-28T10:12:02.000Z</time>
      </trkpt>
      <trkpt lat="48.10956" lon="6.41224">
        <ele>417</ele>
        <time>2024-01-28T10:12:11.000Z</time>
      </trkpt>
      <trkpt lat="48.10953" lon="6.41221">
        <ele>417</ele>
        <time>2024-01-28T10:12:14.000Z</time>
      </trkpt>
      <trkpt lat="48.10938" lon="6.41202">
        <ele>416.39999389648</ele>
        <time>2024-01-28T10:12:28.000Z</time>
      </trkpt>
      <trkpt lat="48.10938" lon="6.41201">
        <ele>416.39999389648</ele>
        <time>2024-01-28T10:12:29.000Z</time>
      </trkpt>
      <trkpt lat="48.1093" lon="6.41192">
        <ele>416</ele>
        <time>2024-01-28T10:12:36.000Z</time>
      </trkpt>
      <trkpt lat="48.10925" lon="6.41185">
        <ele>416</ele>
        <time>2024-01-28T10:12:41.000Z</time>
      </trkpt>
      <trkpt lat="48.10917" lon="6.41174">
        <ele>415.79998779297</ele>
        <time>2024-01-28T10:12:49.000Z</time>
      </trkpt>
      <trkpt lat="48.10908" lon="6.41161">
        <ele>415</ele>
        <time>2024-01-28T10:12:59.000Z</time>
      </trkpt>
      <trkpt lat="48.10907" lon="6.4116">
        <ele>415</ele>
        <time>2024-01-28T10:13:00.000Z</time>
      </trkpt>
      <trkpt lat="48.10895" lon="6.41142">
        <ele>414.20001220703</ele>
        <time>2024-01-28T10:13:13.000Z</time>
      </trkpt>
      <trkpt lat="48.10889" lon="6.41133">
        <ele>414</ele>
        <time>2024-01-28T10:13:19.000Z</time>
      </trkpt>
      <trkpt lat="48.10882" lon="6.41123">
        <ele>413.60000610352</ele>
        <time>2024-01-28T10:13:27.000Z</time>
      </trkpt>
      <trkpt lat="48.1088" lon="6.41119">
        <ele>413.39999389648</ele>
        <time>2024-01-28T10:13:29.000Z</time>
      </trkpt>
      <trkpt lat="48.10877" lon="6.41115">
        <ele>413.39999389648</ele>
        <time>2024-01-28T10:13:32.000Z</time>
      </trkpt>
      <trkpt lat="48.10876" lon="6.41113">
        <ele>413.39999389648</ele>
        <time>2024-01-28T10:13:33.000Z</time>
      </trkpt>
      <trkpt lat="48.10868" lon="6.41101">
        <ele>413</ele>
        <time>2024-01-28T10:13:42.000Z</time>
      </trkpt>
      <trkpt lat="48.10867" lon="6.411">
        <ele>412.79998779297</ele>
        <time>2024-01-28T10:13:43.000Z</time>
      </trkpt>
      <trkpt lat="48.10861" lon="6.41094">
        <ele>412.60000610352</ele>
        <time>2024-01-28T10:13:48.000Z</time>
      </trkpt>
      <trkpt lat="48.10851" lon="6.41082">
        <ele>411.79998779297</ele>
        <time>2024-01-28T10:13:58.000Z</time>
      </trkpt>
      <trkpt lat="48.1085" lon="6.4108">
        <ele>411.60000610352</ele>
        <time>2024-01-28T10:13:59.000Z</time>
      </trkpt>
      <trkpt lat="48.10837" lon="6.41063">
        <ele>410.79998779297</ele>
        <time>2024-01-28T10:14:12.000Z</time>
      </trkpt>
      <trkpt lat="48.10835" lon="6.4106">
        <ele>410.60000610352</ele>
        <time>2024-01-28T10:14:14.000Z</time>
      </trkpt>
      <trkpt lat="48.10827" lon="6.41049">
        <ele>410.20001220703</ele>
        <time>2024-01-28T10:14:23.000Z</time>
      </trkpt>
      <trkpt lat="48.10822" lon="6.41042">
        <ele>410</ele>
        <time>2024-01-28T10:14:28.000Z</time>
      </trkpt>
      <trkpt lat="48.10817" lon="6.41035">
        <ele>409.60000610352</ele>
        <time>2024-01-28T10:14:34.000Z</time>
      </trkpt>
      <trkpt lat="48.10813" lon="6.41031">
        <ele>409.39999389648</ele>
        <time>2024-01-28T10:14:37.000Z</time>
      </trkpt>
      <trkpt lat="48.10805" lon="6.41021">
        <ele>409.20001220703</ele>
        <time>2024-01-28T10:14:45.000Z</time>
      </trkpt>
      <trkpt lat="48.10802" lon="6.41018">
        <ele>409</ele>
        <time>2024-01-28T10:14:48.000Z</time>
      </trkpt>
      <trkpt lat="48.10797" lon="6.41013">
        <ele>408.39999389648</ele>
        <time>2024-01-28T10:14:52.000Z</time>
      </trkpt>
      <trkpt lat="48.10787" lon="6.41003">
        <ele>408</ele>
        <time>2024-01-28T10:15:01.000Z</time>
      </trkpt>
      <trkpt lat="48.10784" lon="6.41002">
        <ele>408</ele>
        <time>2024-01-28T10:15:03.000Z</time>
      </trkpt>
      <trkpt lat="48.10782" lon="6.41">
        <ele>408</ele>
        <time>2024-01-28T10:15:05.000Z</time>
      </trkpt>
      <trkpt lat="48.10775" lon="6.40993">
        <ele>407.60000610352</ele>
        <time>2024-01-28T10:15:12.000Z</time>
      </trkpt>
      <trkpt lat="48.10771" lon="6.40987">
        <ele>407.60000610352</ele>
        <time>2024-01-28T10:15:16.000Z</time>
      </trkpt>
      <trkpt lat="48.10769" lon="6.40984">
        <ele>407.39999389648</ele>
        <time>2024-01-28T10:15:18.000Z</time>
      </trkpt>
      <trkpt lat="48.10761" lon="6.4097">
        <ele>407</ele>
        <time>2024-01-28T10:15:27.000Z</time>
      </trkpt>
      <trkpt lat="48.10756" lon="6.4096">
        <ele>406.39999389648</ele>
        <time>2024-01-28T10:15:34.000Z</time>
      </trkpt>
      <trkpt lat="48.1075" lon="6.40947">
        <ele>405.60000610352</ele>
        <time>2024-01-28T10:15:42.000Z</time>
      </trkpt>
      <trkpt lat="48.10749" lon="6.40945">
        <ele>405.60000610352</ele>
        <time>2024-01-28T10:15:43.000Z</time>
      </trkpt>
      <trkpt lat="48.10746" lon="6.40939">
        <ele>405.39999389648</ele>
        <time>2024-01-28T10:15:47.000Z</time>
      </trkpt>
      <trkpt lat="48.10739" lon="6.40925">
        <ele>404.60000610352</ele>
        <time>2024-01-28T10:15:55.000Z</time>
      </trkpt>
      <trkpt lat="48.10736" lon="6.4092">
        <ele>404.39999389648</ele>
        <time>2024-01-28T10:15:59.000Z</time>
      </trkpt>
      <trkpt lat="48.10735" lon="6.40918">
        <ele>404.39999389648</ele>
        <time>2024-01-28T10:16:00.000Z</time>
      </trkpt>
      <trkpt lat="48.10732" lon="6.40912">
        <ele>404</ele>
        <time>2024-01-28T10:16:04.000Z</time>
      </trkpt>
      <trkpt lat="48.10726" lon="6.40898">
        <ele>403.39999389648</ele>
        <time>2024-01-28T10:16:13.000Z</time>
      </trkpt>
      <trkpt lat="48.10724" lon="6.40895">
        <ele>403.39999389648</ele>
        <time>2024-01-28T10:16:15.000Z</time>
      </trkpt>
      <trkpt lat="48.10719" lon="6.40884">
        <ele>402.79998779297</ele>
        <time>2024-01-28T10:16:22.000Z</time>
      </trkpt>
      <trkpt lat="48.10713" lon="6.4087">
        <ele>402.39999389648</ele>
        <time>2024-01-28T10:16:31.000Z</time>
      </trkpt>
      <trkpt lat="48.10711" lon="6.40866">
        <ele>402.20001220703</ele>
        <time>2024-01-28T10:16:33.000Z</time>
      </trkpt>
      <trkpt lat="48.10709" lon="6.40861">
        <ele>402.20001220703</ele>
        <time>2024-01-28T10:16:36.000Z</time>
      </trkpt>
      <trkpt lat="48.10709" lon="6.4086">
        <ele>402</ele>
        <time>2024-01-28T10:16:37.000Z</time>
      </trkpt>
      <trkpt lat="48.10703" lon="6.40844">
        <ele>401.20001220703</ele>
        <time>2024-01-28T10:16:47.000Z</time>
      </trkpt>
      <trkpt lat="48.10701" lon="6.40841">
        <ele>401</ele>
        <time>2024-01-28T10:16:49.000Z</time>
      </trkpt>
      <trkpt lat="48.10694" lon="6.40824">
        <ele>400.39999389648</ele>
        <time>2024-01-28T10:16:59.000Z</time>
      </trkpt>
      <trkpt lat="48.10693" lon="6.40823">
        <ele>400.20001220703</ele>
        <time>2024-01-28T10:17:00.000Z</time>
      </trkpt>
      <trkpt lat="48.10689" lon="6.40813">
        <ele>399.39999389648</ele>
        <time>2024-01-28T10:17:06.000Z</time>
      </trkpt>
      <trkpt lat="48.10689" lon="6.40812">
        <ele>399.39999389648</ele>
        <time>2024-01-28T10:17:07.000Z</time>
      </trkpt>
      <trkpt lat="48.10688" lon="6.40809">
        <ele>399.20001220703</ele>
        <time>2024-01-28T10:17:09.000Z</time>
      </trkpt>
      <trkpt lat="48.10687" lon="6.40807">
        <ele>399.20001220703</ele>
        <time>2024-01-28T10:17:10.000Z</time>
      </trkpt>
      <trkpt lat="48.10684" lon="6.40801">
        <ele>398.60000610352</ele>
        <time>2024-01-28T10:17:14.000Z</time>
      </trkpt>
      <trkpt lat="48.10681" lon="6.40795">
        <ele>398.20001220703</ele>
        <time>2024-01-28T10:17:18.000Z</time>
      </trkpt>
      <trkpt lat="48.1068" lon="6.40794">
        <ele>398.20001220703</ele>
        <time>2024-01-28T10:17:19.000Z</time>
      </trkpt>
      <trkpt lat="48.10672" lon="6.40781">
        <ele>397</ele>
        <time>2024-01-28T10:17:28.000Z</time>
      </trkpt>
      <trkpt lat="48.10671" lon="6.4078">
        <ele>397</ele>
        <time>2024-01-28T10:17:29.000Z</time>
      </trkpt>
      <trkpt lat="48.10662" lon="6.40767">
        <ele>396</ele>
        <time>2024-01-28T10:17:39.000Z</time>
      </trkpt>
      <trkpt lat="48.10661" lon="6.40764">
        <ele>395.79998779297</ele>
        <time>2024-01-28T10:17:41.000Z</time>
      </trkpt>
      <trkpt lat="48.10656" lon="6.40756">
        <ele>395</ele>
        <time>2024-01-28T10:17:48.000Z</time>
      </trkpt>
      <trkpt lat="48.10648" lon="6.40743">
        <ele>394.20001220703</ele>
        <time>2024-01-28T10:17:57.000Z</time>
      </trkpt>
      <trkpt lat="48.10647" lon="6.40742">
        <ele>394.20001220703</ele>
        <time>2024-01-28T10:17:58.000Z</time>
      </trkpt>
      <trkpt lat="48.10645" lon="6.40738">
        <ele>394</ele>
        <time>2024-01-28T10:18:01.000Z</time>
      </trkpt>
      <trkpt lat="48.1064" lon="6.40731">
        <ele>393.60000610352</ele>
        <time>2024-01-28T10:18:06.000Z</time>
      </trkpt>
      <trkpt lat="48.10632" lon="6.40726">
        <ele>393.60000610352</ele>
        <time>2024-01-28T10:18:14.000Z</time>
      </trkpt>
      <trkpt lat="48.10625" lon="6.4072">
        <ele>394.60000610352</ele>
        <time>2024-01-28T10:18:23.000Z</time>
      </trkpt>
      <trkpt lat="48.10623" lon="6.40718">
        <ele>394.79998779297</ele>
        <time>2024-01-28T10:18:25.000Z</time>
      </trkpt>
      <trkpt lat="48.1062" lon="6.40714">
        <ele>395</ele>
        <time>2024-01-28T10:18:28.000Z</time>
      </trkpt>
      <trkpt lat="48.10619" lon="6.40713">
        <ele>395.20001220703</ele>
        <time>2024-01-28T10:18:29.000Z</time>
      </trkpt>
      <trkpt lat="48.10618" lon="6.40711">
        <ele>395.20001220703</ele>
        <time>2024-01-28T10:18:31.000Z</time>
      </trkpt>
      <trkpt lat="48.10617" lon="6.4071">
        <ele>395.20001220703</ele>
        <time>2024-01-28T10:18:32.000Z</time>
      </trkpt>
      <trkpt lat="48.10613" lon="6.40705">
        <ele>395.39999389648</ele>
        <time>2024-01-28T10:18:36.000Z</time>
      </trkpt>
      <trkpt lat="48.10607" lon="6.40699">
        <ele>395.79998779297</ele>
        <time>2024-01-28T10:18:42.000Z</time>
      </trkpt>
      <trkpt lat="48.10605" lon="6.40697">
        <ele>395.79998779297</ele>
        <time>2024-01-28T10:18:44.000Z</time>
      </trkpt>
      <trkpt lat="48.10601" lon="6.40692">
        <ele>396</ele>
        <time>2024-01-28T10:18:48.000Z</time>
      </trkpt>
      <trkpt lat="48.106" lon="6.40691">
        <ele>396.20001220703</ele>
        <time>2024-01-28T10:18:49.000Z</time>
      </trkpt>
      <trkpt lat="48.10599" lon="6.4069">
        <ele>396.20001220703</ele>
        <time>2024-01-28T10:18:50.000Z</time>
      </trkpt>
      <trkpt lat="48.10597" lon="6.40687">
        <ele>396.20001220703</ele>
        <time>2024-01-28T10:18:52.000Z</time>
      </trkpt>
      <trkpt lat="48.10596" lon="6.40685">
        <ele>396.20001220703</ele>
        <time>2024-01-28T10:18:54.000Z</time>
      </trkpt>
      <trkpt lat="48.10585" lon="6.40671">
        <ele>396.39999389648</ele>
        <time>2024-01-28T10:19:06.000Z</time>
      </trkpt>
      <trkpt lat="48.10584" lon="6.4067">
        <ele>396.39999389648</ele>
        <time>2024-01-28T10:19:07.000Z</time>
      </trkpt>
      <trkpt lat="48.10579" lon="6.40663">
        <ele>396.39999389648</ele>
        <time>2024-01-28T10:19:13.000Z</time>
      </trkpt>
      <trkpt lat="48.10575" lon="6.40657">
        <ele>396.39999389648</ele>
        <time>2024-01-28T10:19:18.000Z</time>
      </trkpt>
      <trkpt lat="48.10566" lon="6.40647">
        <ele>396.39999389648</ele>
        <time>2024-01-28T10:19:27.000Z</time>
      </trkpt>
      <trkpt lat="48.10565" lon="6.40644">
        <ele>396.39999389648</ele>
        <time>2024-01-28T10:19:29.000Z</time>
      </trkpt>
      <trkpt lat="48.10556" lon="6.40636">
        <ele>396</ele>
        <time>2024-01-28T10:19:37.000Z</time>
      </trkpt>
      <trkpt lat="48.10551" lon="6.40633">
        <ele>396</ele>
        <time>2024-01-28T10:19:41.000Z</time>
      </trkpt>
      <trkpt lat="48.10534" lon="6.40624">
        <ele>395.39999389648</ele>
        <time>2024-01-28T10:19:55.000Z</time>
      </trkpt>
      <trkpt lat="48.10532" lon="6.40623">
        <ele>395.39999389648</ele>
        <time>2024-01-28T10:19:57.000Z</time>
      </trkpt>
      <trkpt lat="48.10531" lon="6.40623">
        <ele>395.39999389648</ele>
        <time>2024-01-28T10:19:58.000Z</time>
      </trkpt>
      <trkpt lat="48.10521" lon="6.40617">
        <ele>395.20001220703</ele>
        <time>2024-01-28T10:20:06.000Z</time>
      </trkpt>
      <trkpt lat="48.10519" lon="6.40616">
        <ele>395.20001220703</ele>
        <time>2024-01-28T10:20:08.000Z</time>
      </trkpt>
      <trkpt lat="48.10511" lon="6.40609">
        <ele>395</ele>
        <time>2024-01-28T10:20:15.000Z</time>
      </trkpt>
      <trkpt lat="48.10506" lon="6.40605">
        <ele>395.20001220703</ele>
        <time>2024-01-28T10:20:19.000Z</time>
      </trkpt>
      <trkpt lat="48.10499" lon="6.406">
        <ele>395</ele>
        <time>2024-01-28T10:20:26.000Z</time>
      </trkpt>
      <trkpt lat="48.10498" lon="6.406">
        <ele>395</ele>
        <time>2024-01-28T10:20:27.000Z</time>
      </trkpt>
      <trkpt lat="48.10496" lon="6.40599">
        <ele>395</ele>
        <time>2024-01-28T10:20:28.000Z</time>
      </trkpt>
      <trkpt lat="48.10494" lon="6.40598">
        <ele>395</ele>
        <time>2024-01-28T10:20:30.000Z</time>
      </trkpt>
      <trkpt lat="48.10489" lon="6.40594">
        <ele>394.79998779297</ele>
        <time>2024-01-28T10:20:35.000Z</time>
      </trkpt>
      <trkpt lat="48.10488" lon="6.40593">
        <ele>394.79998779297</ele>
        <time>2024-01-28T10:20:36.000Z</time>
      </trkpt>
      <trkpt lat="48.10487" lon="6.40592">
        <ele>394.79998779297</ele>
        <time>2024-01-28T10:20:37.000Z</time>
      </trkpt>
      <trkpt lat="48.10473" lon="6.40585">
        <ele>394.60000610352</ele>
        <time>2024-01-28T10:20:49.000Z</time>
      </trkpt>
      <trkpt lat="48.10472" lon="6.40584">
        <ele>394.60000610352</ele>
        <time>2024-01-28T10:20:50.000Z</time>
      </trkpt>
      <trkpt lat="48.10461" lon="6.40579">
        <ele>394.39999389648</ele>
        <time>2024-01-28T10:20:59.000Z</time>
      </trkpt>
      <trkpt lat="48.10458" lon="6.40576">
        <ele>394.39999389648</ele>
        <time>2024-01-28T10:21:02.000Z</time>
      </trkpt>
      <trkpt lat="48.10457" lon="6.40576">
        <ele>394.39999389648</ele>
        <time>2024-01-28T10:21:03.000Z</time>
      </trkpt>
      <trkpt lat="48.10453" lon="6.40573">
        <ele>394.20001220703</ele>
        <time>2024-01-28T10:21:06.000Z</time>
      </trkpt>
      <trkpt lat="48.10451" lon="6.40572">
        <ele>394.20001220703</ele>
        <time>2024-01-28T10:21:08.000Z</time>
      </trkpt>
      <trkpt lat="48.10447" lon="6.40569">
        <ele>394.20001220703</ele>
        <time>2024-01-28T10:21:11.000Z</time>
      </trkpt>
      <trkpt lat="48.10443" lon="6.40567">
        <ele>393.79998779297</ele>
        <time>2024-01-28T10:21:14.000Z</time>
      </trkpt>
      <trkpt lat="48.10431" lon="6.40561">
        <ele>393.39999389648</ele>
        <time>2024-01-28T10:21:25.000Z</time>
      </trkpt>
      <trkpt lat="48.10429" lon="6.4056">
        <ele>393.20001220703</ele>
        <time>2024-01-28T10:21:26.000Z</time>
      </trkpt>
      <trkpt lat="48.10427" lon="6.40559">
        <ele>393.20001220703</ele>
        <time>2024-01-28T10:21:28.000Z</time>
      </trkpt>
      <trkpt lat="48.10426" lon="6.40559">
        <ele>393.20001220703</ele>
        <time>2024-01-28T10:21:29.000Z</time>
      </trkpt>
      <trkpt lat="48.10416" lon="6.40553">
        <ele>393.20001220703</ele>
        <time>2024-01-28T10:21:37.000Z</time>
      </trkpt>
      <trkpt lat="48.10415" lon="6.40553">
        <ele>393.20001220703</ele>
        <time>2024-01-28T10:21:38.000Z</time>
      </trkpt>
      <trkpt lat="48.10401" lon="6.40545">
        <ele>392.79998779297</ele>
        <time>2024-01-28T10:21:50.000Z</time>
      </trkpt>
      <trkpt lat="48.10398" lon="6.40543">
        <ele>392.79998779297</ele>
        <time>2024-01-28T10:21:52.000Z</time>
      </trkpt>
      <trkpt lat="48.10386" lon="6.40537">
        <ele>392.20001220703</ele>
        <time>2024-01-28T10:22:02.000Z</time>
      </trkpt>
      <trkpt lat="48.10385" lon="6.40536">
        <ele>392.20001220703</ele>
        <time>2024-01-28T10:22:03.000Z</time>
      </trkpt>
      <trkpt lat="48.10381" lon="6.40533">
        <ele>392</ele>
        <time>2024-01-28T10:22:07.000Z</time>
      </trkpt>
      <trkpt lat="48.10374" lon="6.40528">
        <ele>392</ele>
        <time>2024-01-28T10:22:13.000Z</time>
      </trkpt>
      <trkpt lat="48.10372" lon="6.40527">
        <ele>391.79998779297</ele>
        <time>2024-01-28T10:22:15.000Z</time>
      </trkpt>
      <trkpt lat="48.10371" lon="6.40527">
        <ele>391.79998779297</ele>
        <time>2024-01-28T10:22:16.000Z</time>
      </trkpt>
      <trkpt lat="48.10366" lon="6.40523">
        <ele>391.60000610352</ele>
        <time>2024-01-28T10:22:20.000Z</time>
      </trkpt>
      <trkpt lat="48.10365" lon="6.40522">
        <ele>391.60000610352</ele>
        <time>2024-01-28T10:22:21.000Z</time>
      </trkpt>
      <trkpt lat="48.10363" lon="6.40522">
        <ele>391.60000610352</ele>
        <time>2024-01-28T10:22:22.000Z</time>
      </trkpt>
      <trkpt lat="48.10361" lon="6.4052">
        <ele>391.60000610352</ele>
        <time>2024-01-28T10:22:24.000Z</time>
      </trkpt>
      <trkpt lat="48.1036" lon="6.40519">
        <ele>391.39999389648</ele>
        <time>2024-01-28T10:22:25.000Z</time>
      </trkpt>
      <trkpt lat="48.10357" lon="6.40517">
        <ele>391.39999389648</ele>
        <time>2024-01-28T10:22:28.000Z</time>
      </trkpt>
      <trkpt lat="48.10349" lon="6.40513">
        <ele>391.20001220703</ele>
        <time>2024-01-28T10:22:34.000Z</time>
      </trkpt>
      <trkpt lat="48.10341" lon="6.40508">
        <ele>390.79998779297</ele>
        <time>2024-01-28T10:22:40.000Z</time>
      </trkpt>
      <trkpt lat="48.10339" lon="6.40508">
        <ele>390.79998779297</ele>
        <time>2024-01-28T10:22:42.000Z</time>
      </trkpt>
      <trkpt lat="48.10332" lon="6.40504">
        <ele>390.39999389648</ele>
        <time>2024-01-28T10:22:48.000Z</time>
      </trkpt>
      <trkpt lat="48.10317" lon="6.40495">
        <ele>389.79998779297</ele>
        <time>2024-01-28T10:23:00.000Z</time>
      </trkpt>
      <trkpt lat="48.10312" lon="6.40491">
        <ele>389.79998779297</ele>
        <time>2024-01-28T10:23:04.000Z</time>
      </trkpt>
      <trkpt lat="48.10301" lon="6.40486">
        <ele>389.39999389648</ele>
        <time>2024-01-28T10:23:13.000Z</time>
      </trkpt>
      <trkpt lat="48.10293" lon="6.40481">
        <ele>389</ele>
        <time>2024-01-28T10:23:20.000Z</time>
      </trkpt>
      <trkpt lat="48.10292" lon="6.4048">
        <ele>389</ele>
        <time>2024-01-28T10:23:21.000Z</time>
      </trkpt>
      <trkpt lat="48.10287" lon="6.40477">
        <ele>388.79998779297</ele>
        <time>2024-01-28T10:23:25.000Z</time>
      </trkpt>
      <trkpt lat="48.10282" lon="6.40474">
        <ele>388.79998779297</ele>
        <time>2024-01-28T10:23:30.000Z</time>
      </trkpt>
      <trkpt lat="48.10275" lon="6.4047">
        <ele>388.60000610352</ele>
        <time>2024-01-28T10:23:35.000Z</time>
      </trkpt>
      <trkpt lat="48.10274" lon="6.40469">
        <ele>388.60000610352</ele>
        <time>2024-01-28T10:23:36.000Z</time>
      </trkpt>
      <trkpt lat="48.10268" lon="6.40467">
        <ele>388.20001220703</ele>
        <time>2024-01-28T10:23:41.000Z</time>
      </trkpt>
      <trkpt lat="48.10254" lon="6.4046">
        <ele>387.79998779297</ele>
        <time>2024-01-28T10:23:53.000Z</time>
      </trkpt>
      <trkpt lat="48.10251" lon="6.40459">
        <ele>387.60000610352</ele>
        <time>2024-01-28T10:23:55.000Z</time>
      </trkpt>
      <trkpt lat="48.1025" lon="6.40458">
        <ele>387.60000610352</ele>
        <time>2024-01-28T10:23:56.000Z</time>
      </trkpt>
      <trkpt lat="48.10246" lon="6.40457">
        <ele>387.39999389648</ele>
        <time>2024-01-28T10:23:59.000Z</time>
      </trkpt>
      <trkpt lat="48.10241" lon="6.4045">
        <ele>387.20001220703</ele>
        <time>2024-01-28T10:24:06.000Z</time>
      </trkpt>
      <trkpt lat="48.10241" lon="6.40448">
        <ele>387</ele>
        <time>2024-01-28T10:24:08.000Z</time>
      </trkpt>
      <trkpt lat="48.10243" lon="6.40438">
        <ele>387</ele>
        <time>2024-01-28T10:24:14.000Z</time>
      </trkpt>
      <trkpt lat="48.10243" lon="6.40436">
        <ele>387</ele>
        <time>2024-01-28T10:24:15.000Z</time>
      </trkpt>
      <trkpt lat="48.10246" lon="6.40428">
        <ele>386.60000610352</ele>
        <time>2024-01-28T10:24:20.000Z</time>
      </trkpt>
      <trkpt lat="48.10246" lon="6.40426">
        <ele>386.60000610352</ele>
        <time>2024-01-28T10:24:21.000Z</time>
      </trkpt>
      <trkpt lat="48.10248" lon="6.40419">
        <ele>386.39999389648</ele>
        <time>2024-01-28T10:24:25.000Z</time>
      </trkpt>
      <trkpt lat="48.10251" lon="6.40405">
        <ele>385.79998779297</ele>
        <time>2024-01-28T10:24:33.000Z</time>
      </trkpt>
      <trkpt lat="48.10252" lon="6.40399">
        <ele>385.60000610352</ele>
        <time>2024-01-28T10:24:36.000Z</time>
      </trkpt>
      <trkpt lat="48.10253" lon="6.40397">
        <ele>385.60000610352</ele>
        <time>2024-01-28T10:24:37.000Z</time>
      </trkpt>
      <trkpt lat="48.10257" lon="6.40381">
        <ele>384.79998779297</ele>
        <time>2024-01-28T10:24:46.000Z</time>
      </trkpt>
      <trkpt lat="48.10258" lon="6.40373">
        <ele>384.60000610352</ele>
        <time>2024-01-28T10:24:50.000Z</time>
      </trkpt>
      <trkpt lat="48.10259" lon="6.40371">
        <ele>384.60000610352</ele>
        <time>2024-01-28T10:24:51.000Z</time>
      </trkpt>
      <trkpt lat="48.1026" lon="6.40364">
        <ele>383.79998779297</ele>
        <time>2024-01-28T10:24:58.000Z</time>
      </trkpt>
      <trkpt lat="48.10262" lon="6.40356">
        <ele>383.60000610352</ele>
        <time>2024-01-28T10:25:04.000Z</time>
      </trkpt>
      <trkpt lat="48.10262" lon="6.40355">
        <ele>383.39999389648</ele>
        <time>2024-01-28T10:25:05.000Z</time>
      </trkpt>
      <trkpt lat="48.10264" lon="6.4035">
        <ele>383.20001220703</ele>
        <time>2024-01-28T10:25:08.000Z</time>
      </trkpt>
      <trkpt lat="48.10264" lon="6.40348">
        <ele>383</ele>
        <time>2024-01-28T10:25:09.000Z</time>
      </trkpt>
      <trkpt lat="48.10266" lon="6.40342">
        <ele>382.79998779297</ele>
        <time>2024-01-28T10:25:12.000Z</time>
      </trkpt>
      <trkpt lat="48.10266" lon="6.4034">
        <ele>382.79998779297</ele>
        <time>2024-01-28T10:25:13.000Z</time>
      </trkpt>
      <trkpt lat="48.10267" lon="6.40334">
        <ele>382.60000610352</ele>
        <time>2024-01-28T10:25:16.000Z</time>
      </trkpt>
      <trkpt lat="48.10268" lon="6.40331">
        <ele>382.39999389648</ele>
        <time>2024-01-28T10:25:18.000Z</time>
      </trkpt>
      <trkpt lat="48.10271" lon="6.40318">
        <ele>382.20001220703</ele>
        <time>2024-01-28T10:25:25.000Z</time>
      </trkpt>
      <trkpt lat="48.10272" lon="6.40315">
        <ele>382</ele>
        <time>2024-01-28T10:25:27.000Z</time>
      </trkpt>
      <trkpt lat="48.10273" lon="6.40313">
        <ele>382</ele>
        <time>2024-01-28T10:25:29.000Z</time>
      </trkpt>
      <trkpt lat="48.10274" lon="6.40311">
        <ele>382.20001220703</ele>
        <time>2024-01-28T10:25:33.000Z</time>
      </trkpt>
      <trkpt lat="48.10275" lon="6.40308">
        <ele>382.20001220703</ele>
        <time>2024-01-28T10:25:35.000Z</time>
      </trkpt>
      <trkpt lat="48.10276" lon="6.40304">
        <ele>382.20001220703</ele>
        <time>2024-01-28T10:25:38.000Z</time>
      </trkpt>
      <trkpt lat="48.10277" lon="6.40302">
        <ele>382.20001220703</ele>
        <time>2024-01-28T10:25:39.000Z</time>
      </trkpt>
      <trkpt lat="48.10277" lon="6.403">
        <ele>382.20001220703</ele>
        <time>2024-01-28T10:25:40.000Z</time>
      </trkpt>
      <trkpt lat="48.10286" lon="6.40291">
        <ele>383</ele>
        <time>2024-01-28T10:25:49.000Z</time>
      </trkpt>
      <trkpt lat="48.10293" lon="6.4029">
        <ele>383.39999389648</ele>
        <time>2024-01-28T10:25:55.000Z</time>
      </trkpt>
      <trkpt lat="48.10297" lon="6.4029">
        <ele>384</ele>
        <time>2024-01-28T10:25:59.000Z</time>
      </trkpt>
      <trkpt lat="48.10297" lon="6.40289">
        <ele>384</ele>
        <time>2024-01-28T10:26:00.000Z</time>
      </trkpt>
      <trkpt lat="48.10298" lon="6.40289">
        <ele>384.20001220703</ele>
        <time>2024-01-28T10:26:01.000Z</time>
      </trkpt>
      <trkpt lat="48.10301" lon="6.40286">
        <ele>384.39999389648</ele>
        <time>2024-01-28T10:26:04.000Z</time>
      </trkpt>
      <trkpt lat="48.10302" lon="6.40285">
        <ele>384.39999389648</ele>
        <time>2024-01-28T10:26:05.000Z</time>
      </trkpt>
      <trkpt lat="48.10303" lon="6.40283">
        <ele>384.60000610352</ele>
        <time>2024-01-28T10:26:07.000Z</time>
      </trkpt>
      <trkpt lat="48.10304" lon="6.40281">
        <ele>384.79998779297</ele>
        <time>2024-01-28T10:26:09.000Z</time>
      </trkpt>
      <trkpt lat="48.10304" lon="6.4028">
        <ele>384.79998779297</ele>
        <time>2024-01-28T10:26:10.000Z</time>
      </trkpt>
      <trkpt lat="48.10306" lon="6.40273">
        <ele>385.20001220703</ele>
        <time>2024-01-28T10:26:14.000Z</time>
      </trkpt>
      <trkpt lat="48.10307" lon="6.40268">
        <ele>385.39999389648</ele>
        <time>2024-01-28T10:26:17.000Z</time>
      </trkpt>
      <trkpt lat="48.10307" lon="6.40265">
        <ele>385.60000610352</ele>
        <time>2024-01-28T10:26:19.000Z</time>
      </trkpt>
      <trkpt lat="48.1031" lon="6.40256">
        <ele>386</ele>
        <time>2024-01-28T10:26:25.000Z</time>
      </trkpt>
      <trkpt lat="48.10312" lon="6.40243">
        <ele>386.20001220703</ele>
        <time>2024-01-28T10:26:34.000Z</time>
      </trkpt>
      <trkpt lat="48.10315" lon="6.4023">
        <ele>386.60000610352</ele>
        <time>2024-01-28T10:26:42.000Z</time>
      </trkpt>
      <trkpt lat="48.10315" lon="6.40229">
        <ele>386.60000610352</ele>
        <time>2024-01-28T10:26:43.000Z</time>
      </trkpt>
      <trkpt lat="48.10316" lon="6.40226">
        <ele>386.60000610352</ele>
        <time>2024-01-28T10:26:45.000Z</time>
      </trkpt>
      <trkpt lat="48.10319" lon="6.40214">
        <ele>387</ele>
        <time>2024-01-28T10:26:53.000Z</time>
      </trkpt>
      <trkpt lat="48.10324" lon="6.40195">
        <ele>387.39999389648</ele>
        <time>2024-01-28T10:27:05.000Z</time>
      </trkpt>
      <trkpt lat="48.10328" lon="6.40187">
        <ele>387.20001220703</ele>
        <time>2024-01-28T10:27:10.000Z</time>
      </trkpt>
      <trkpt lat="48.1033" lon="6.40182">
        <ele>387</ele>
        <time>2024-01-28T10:27:14.000Z</time>
      </trkpt>
      <trkpt lat="48.10335" lon="6.40167">
        <ele>386.60000610352</ele>
        <time>2024-01-28T10:27:23.000Z</time>
      </trkpt>
      <trkpt lat="48.10337" lon="6.40163">
        <ele>386.39999389648</ele>
        <time>2024-01-28T10:27:26.000Z</time>
      </trkpt>
      <trkpt lat="48.10337" lon="6.40161">
        <ele>386.20001220703</ele>
        <time>2024-01-28T10:27:27.000Z</time>
      </trkpt>
      <trkpt lat="48.10339" lon="6.40156">
        <ele>386.20001220703</ele>
        <time>2024-01-28T10:27:30.000Z</time>
      </trkpt>
      <trkpt lat="48.10343" lon="6.40143">
        <ele>385.39999389648</ele>
        <time>2024-01-28T10:27:38.000Z</time>
      </trkpt>
      <trkpt lat="48.10345" lon="6.40137">
        <ele>385</ele>
        <time>2024-01-28T10:27:42.000Z</time>
      </trkpt>
      <trkpt lat="48.10346" lon="6.40132">
        <ele>384.60000610352</ele>
        <time>2024-01-28T10:27:45.000Z</time>
      </trkpt>
      <trkpt lat="48.10348" lon="6.40127">
        <ele>384.39999389648</ele>
        <time>2024-01-28T10:27:48.000Z</time>
      </trkpt>
      <trkpt lat="48.1035" lon="6.40121">
        <ele>384</ele>
        <time>2024-01-28T10:27:51.000Z</time>
      </trkpt>
      <trkpt lat="48.10351" lon="6.40118">
        <ele>383.79998779297</ele>
        <time>2024-01-28T10:27:53.000Z</time>
      </trkpt>
      <trkpt lat="48.10352" lon="6.40116">
        <ele>383.39999389648</ele>
        <time>2024-01-28T10:27:55.000Z</time>
      </trkpt>
      <trkpt lat="48.10355" lon="6.40108">
        <ele>382.60000610352</ele>
        <time>2024-01-28T10:28:01.000Z</time>
      </trkpt>
      <trkpt lat="48.10355" lon="6.40105">
        <ele>382.20001220703</ele>
        <time>2024-01-28T10:28:03.000Z</time>
      </trkpt>
      <trkpt lat="48.10355" lon="6.40104">
        <ele>382</ele>
        <time>2024-01-28T10:28:04.000Z</time>
      </trkpt>
      <trkpt lat="48.10355" lon="6.40102">
        <ele>381.79998779297</ele>
        <time>2024-01-28T10:28:05.000Z</time>
      </trkpt>
      <trkpt lat="48.10356" lon="6.40097">
        <ele>381.20001220703</ele>
        <time>2024-01-28T10:28:09.000Z</time>
      </trkpt>
    </trkseg>
  </trk>
</gpx>